<?xml version='1.0' encoding='UTF-8'?><gpx version="1.1" creator="JPX - https://github.com/jenetics/jpx" xmlns="http://www.topografix.com/GPX/1/1"><trk><trkseg><trkpt lat="37.0333427" lon="14.7034686"><ele>660.6</ele><time>2026-04-24T15:20:01.616Z</time></trkpt><trkpt lat="37.0332737" lon="14.7036031"><ele>662.2</ele><time>2026-04-24T15:20:03.617Z</time></trkpt><trkpt lat="37.0331941" lon="14.7037346"><ele>663.8000000000001</ele><time>2026-04-24T15:20:04.617Z</time></trkpt><trkpt lat="37.0331352" lon="14.7038429"><ele>665.4000000000001</ele><time>2026-04-24T15:20:05.617Z</time></trkpt><trkpt lat="37.0330881" lon="14.7039313"><ele>667.0</ele><time>2026-04-24T15:20:06.617Z</time></trkpt><trkpt lat="37.033047" lon="14.7040117"><ele>667.0</ele><time>2026-04-24T15:20:07.617Z</time></trkpt><trkpt lat="37.0330051" lon="14.7041351"><ele>667.0</ele><time>2026-04-24T15:20:09.618Z</time></trkpt><trkpt lat="37.0329754" lon="14.7042099"><ele>667.0</ele><time>2026-04-24T15:20:10.616Z</time></trkpt><trkpt lat="37.0328792" lon="14.7043075"><ele>667.0</ele><time>2026-04-24T15:20:11.616Z</time></trkpt><trkpt lat="37.0328028" lon="14.7044347"><ele>667.0</ele><time>2026-04-24T15:20:12.616Z</time></trkpt><trkpt lat="37.0327091" lon="14.7045315"><ele>667.6</ele><time>2026-04-24T15:20:13.617Z</time></trkpt><trkpt lat="37.0326106" lon="14.7045982"><ele>668.2</ele><time>2026-04-24T15:20:14.617Z</time></trkpt><trkpt lat="37.0325054" lon="14.7046564"><ele>668.8</ele><time>2026-04-24T15:20:15.617Z</time></trkpt><trkpt lat="37.032403" lon="14.7047333"><ele>669.4</ele><time>2026-04-24T15:20:16.617Z</time></trkpt><trkpt lat="37.0323235" lon="14.7048106"><ele>670.0</ele><time>2026-04-24T15:20:17.617Z</time></trkpt><trkpt lat="37.0322692" lon="14.7049122"><ele>670.0</ele><time>2026-04-24T15:20:18.617Z</time></trkpt><trkpt lat="37.0322462" lon="14.7050187"><ele>670.0</ele><time>2026-04-24T15:20:19.618Z</time></trkpt><trkpt lat="37.0322326" lon="14.705112"><ele>670.0</ele><time>2026-04-24T15:20:20.617Z</time></trkpt><trkpt lat="37.0321972" lon="14.705209"><ele>670.0</ele><time>2026-04-24T15:20:21.617Z</time></trkpt><trkpt lat="37.0321356" lon="14.7052928"><ele>670.0</ele><time>2026-04-24T15:20:22.617Z</time></trkpt><trkpt lat="37.0320581" lon="14.7053778"><ele>670.0</ele><time>2026-04-24T15:20:23.617Z</time></trkpt><trkpt lat="37.0319589" lon="14.7054818"><ele>670.0</ele><time>2026-04-24T15:20:24.618Z</time></trkpt><trkpt lat="37.0318675" lon="14.7055783"><ele>670.0</ele><time>2026-04-24T15:20:25.617Z</time></trkpt><trkpt lat="37.031769" lon="14.7056949"><ele>670.0</ele><time>2026-04-24T15:20:26.617Z</time></trkpt><trkpt lat="37.0316609" lon="14.7058357"><ele>670.0</ele><time>2026-04-24T15:20:27.616Z</time></trkpt><trkpt lat="37.0315526" lon="14.7059726"><ele>664.0</ele><time>2026-04-24T15:20:28.617Z</time></trkpt><trkpt lat="37.0314486" lon="14.7060947"><ele>658.0</ele><time>2026-04-24T15:20:29.616Z</time></trkpt><trkpt lat="37.0313427" lon="14.7062371"><ele>652.0</ele><time>2026-04-24T15:20:30.616Z</time></trkpt><trkpt lat="37.0312387" lon="14.706368"><ele>646.0</ele><time>2026-04-24T15:20:31.617Z</time></trkpt><trkpt lat="37.0311897" lon="14.7065277"><ele>646.0</ele><time>2026-04-24T15:20:32.618Z</time></trkpt><trkpt lat="37.0311564" lon="14.7066683"><ele>646.0</ele><time>2026-04-24T15:20:33.617Z</time></trkpt><trkpt lat="37.0311225" lon="14.7068051"><ele>646.0</ele><time>2026-04-24T15:20:34.617Z</time></trkpt><trkpt lat="37.0310735" lon="14.7069146"><ele>646.0</ele><time>2026-04-24T15:20:35.617Z</time></trkpt><trkpt lat="37.0310103" lon="14.7070335"><ele>646.0</ele><time>2026-04-24T15:20:36.617Z</time></trkpt><trkpt lat="37.030951" lon="14.7071398"><ele>644.6666666666667</ele><time>2026-04-24T15:20:37.617Z</time></trkpt><trkpt lat="37.0308973" lon="14.7072335"><ele>643.3333333333334</ele><time>2026-04-24T15:20:38.616Z</time></trkpt><trkpt lat="37.0308339" lon="14.7072893"><ele>642.0</ele><time>2026-04-24T15:20:39.617Z</time></trkpt><trkpt lat="37.0307734" lon="14.7073676"><ele>640.6666666666666</ele><time>2026-04-24T15:20:40.617Z</time></trkpt><trkpt lat="37.030725" lon="14.7074212"><ele>639.3333333333333</ele><time>2026-04-24T15:20:41.617Z</time></trkpt><trkpt lat="37.0306797" lon="14.7075369"><ele>638.0</ele><time>2026-04-24T15:20:43.617Z</time></trkpt><trkpt lat="37.0307311" lon="14.7075903"><ele>638.0</ele><time>2026-04-24T15:20:45.618Z</time></trkpt><trkpt lat="37.0308158" lon="14.7075865"><ele>638.0</ele><time>2026-04-24T15:20:47.617Z</time></trkpt><trkpt lat="37.0309088" lon="14.707591"><ele>638.0</ele><time>2026-04-24T15:20:49.617Z</time></trkpt><trkpt lat="37.031022" lon="14.7076287"><ele>638.0</ele><time>2026-04-24T15:20:51.617Z</time></trkpt><trkpt lat="37.0310959" lon="14.7076193"><ele>638.0</ele><time>2026-04-24T15:20:52.617Z</time></trkpt><trkpt lat="37.0311827" lon="14.7076242"><ele>638.0</ele><time>2026-04-24T15:20:53.618Z</time></trkpt><trkpt lat="37.0312598" lon="14.7076097"><ele>638.0</ele><time>2026-04-24T15:20:54.617Z</time></trkpt><trkpt lat="37.0313153" lon="14.7076899"><ele>638.0</ele><time>2026-04-24T15:20:56.617Z</time></trkpt><trkpt lat="37.03126" lon="14.7078068"><ele>638.0</ele><time>2026-04-24T15:20:58.617Z</time></trkpt><trkpt lat="37.0312083" lon="14.7078841"><ele>638.0</ele><time>2026-04-24T15:20:59.617Z</time></trkpt><trkpt lat="37.0311595" lon="14.7079755"><ele>638.0</ele><time>2026-04-24T15:21:00.617Z</time></trkpt><trkpt lat="37.0310335" lon="14.7080758"><ele>642.25</ele><time>2026-04-24T15:21:01.617Z</time></trkpt><trkpt lat="37.0309391" lon="14.7081254"><ele>646.5</ele><time>2026-04-24T15:21:02.617Z</time></trkpt><trkpt lat="37.0308145" lon="14.7081442"><ele>650.75</ele><time>2026-04-24T15:21:03.618Z</time></trkpt><trkpt lat="37.0306983" lon="14.7081738"><ele>655.0</ele><time>2026-04-24T15:21:04.617Z</time></trkpt><trkpt lat="37.0305829" lon="14.7081793"><ele>656.75</ele><time>2026-04-24T15:21:05.617Z</time></trkpt><trkpt lat="37.0304643" lon="14.7081189"><ele>658.5</ele><time>2026-04-24T15:21:06.617Z</time></trkpt><trkpt lat="37.0304186" lon="14.7078975"><ele>660.25</ele><time>2026-04-24T15:21:07.617Z</time></trkpt><trkpt lat="37.0303301" lon="14.7077807"><ele>662.0</ele><time>2026-04-24T15:21:08.616Z</time></trkpt><trkpt lat="37.030245" lon="14.7076428"><ele>662.0</ele><time>2026-04-24T15:21:09.617Z</time></trkpt><trkpt lat="37.0301337" lon="14.7075453"><ele>662.0</ele><time>2026-04-24T15:21:10.617Z</time></trkpt><trkpt lat="37.0300341" lon="14.7074574"><ele>662.0</ele><time>2026-04-24T15:21:11.618Z</time></trkpt><trkpt lat="37.0299245" lon="14.7075289"><ele>662.0</ele><time>2026-04-24T15:21:12.617Z</time></trkpt><trkpt lat="37.0298236" lon="14.7076091"><ele>665.75</ele><time>2026-04-24T15:21:13.617Z</time></trkpt><trkpt lat="37.0297253" lon="14.707721"><ele>669.5</ele><time>2026-04-24T15:21:14.617Z</time></trkpt><trkpt lat="37.0296242" lon="14.707848"><ele>673.25</ele><time>2026-04-24T15:21:15.616Z</time></trkpt><trkpt lat="37.0295197" lon="14.7079882"><ele>677.0</ele><time>2026-04-24T15:21:16.616Z</time></trkpt><trkpt lat="37.0294169" lon="14.7081254"><ele>677.0</ele><time>2026-04-24T15:21:17.617Z</time></trkpt><trkpt lat="37.029305" lon="14.7082585"><ele>677.0</ele><time>2026-04-24T15:21:18.617Z</time></trkpt><trkpt lat="37.0291731" lon="14.7083708"><ele>677.0</ele><time>2026-04-24T15:21:19.618Z</time></trkpt><trkpt lat="37.0290364" lon="14.708452"><ele>681.0</ele><time>2026-04-24T15:21:20.616Z</time></trkpt><trkpt lat="37.0288987" lon="14.7085111"><ele>685.0</ele><time>2026-04-24T15:21:21.617Z</time></trkpt><trkpt lat="37.0287543" lon="14.7085645"><ele>689.0</ele><time>2026-04-24T15:21:22.616Z</time></trkpt><trkpt lat="37.0286092" lon="14.7086288"><ele>689.0</ele><time>2026-04-24T15:21:23.617Z</time></trkpt><trkpt lat="37.0284773" lon="14.7087242"><ele>689.0</ele><time>2026-04-24T15:21:24.617Z</time></trkpt><trkpt lat="37.0283476" lon="14.7088275"><ele>689.0</ele><time>2026-04-24T15:21:25.617Z</time></trkpt><trkpt lat="37.0282996" lon="14.7089868"><ele>689.0</ele><time>2026-04-24T15:21:26.618Z</time></trkpt><trkpt lat="37.0282519" lon="14.7091475"><ele>693.5</ele><time>2026-04-24T15:21:27.616Z</time></trkpt><trkpt lat="37.028203" lon="14.7093212"><ele>698.0</ele><time>2026-04-24T15:21:28.617Z</time></trkpt><trkpt lat="37.0281546" lon="14.7094865"><ele>702.5</ele><time>2026-04-24T15:21:29.617Z</time></trkpt><trkpt lat="37.0280839" lon="14.7096089"><ele>707.0</ele><time>2026-04-24T15:21:30.618Z</time></trkpt><trkpt lat="37.0279895" lon="14.7096999"><ele>707.25</ele><time>2026-04-24T15:21:31.617Z</time></trkpt><trkpt lat="37.0278974" lon="14.7097874"><ele>707.5</ele><time>2026-04-24T15:21:32.617Z</time></trkpt><trkpt lat="37.0277784" lon="14.7097602"><ele>707.75</ele><time>2026-04-24T15:21:33.617Z</time></trkpt><trkpt lat="37.027671" lon="14.7097063"><ele>708.0</ele><time>2026-04-24T15:21:34.617Z</time></trkpt><trkpt lat="37.0275864" lon="14.7096405"><ele>708.0</ele><time>2026-04-24T15:21:35.616Z</time></trkpt><trkpt lat="37.0275331" lon="14.7095413"><ele>708.0</ele><time>2026-04-24T15:21:36.617Z</time></trkpt><trkpt lat="37.0274952" lon="14.7094456"><ele>708.0</ele><time>2026-04-24T15:21:37.617Z</time></trkpt><trkpt lat="37.0274438" lon="14.7093824"><ele>708.0</ele><time>2026-04-24T15:21:38.618Z</time></trkpt><trkpt lat="37.0273419" lon="14.7093452"><ele>708.0</ele><time>2026-04-24T15:21:40.618Z</time></trkpt><trkpt lat="37.0272839" lon="14.7093866"><ele>708.0</ele><time>2026-04-24T15:21:41.617Z</time></trkpt><trkpt lat="37.0272228" lon="14.70944"><ele>713.25</ele><time>2026-04-24T15:21:42.617Z</time></trkpt><trkpt lat="37.0271576" lon="14.7095594"><ele>718.5</ele><time>2026-04-24T15:21:43.617Z</time></trkpt><trkpt lat="37.0270974" lon="14.7096777"><ele>723.75</ele><time>2026-04-24T15:21:44.617Z</time></trkpt><trkpt lat="37.027041" lon="14.7098139"><ele>729.0</ele><time>2026-04-24T15:21:45.617Z</time></trkpt><trkpt lat="37.0269865" lon="14.7099682"><ele>729.0</ele><time>2026-04-24T15:21:46.618Z</time></trkpt><trkpt lat="37.0269375" lon="14.7101325"><ele>729.0</ele><time>2026-04-24T15:21:47.617Z</time></trkpt><trkpt lat="37.0268979" lon="14.710282"><ele>729.0</ele><time>2026-04-24T15:21:48.618Z</time></trkpt><trkpt lat="37.0268605" lon="14.710404"><ele>729.0</ele><time>2026-04-24T15:21:49.617Z</time></trkpt><trkpt lat="37.0268173" lon="14.7104902"><ele>731.0</ele><time>2026-04-24T15:21:50.618Z</time></trkpt><trkpt lat="37.0267709" lon="14.7105602"><ele>733.0</ele><time>2026-04-24T15:21:51.616Z</time></trkpt><trkpt lat="37.0267484" lon="14.7106444"><ele>735.0</ele><time>2026-04-24T15:21:53.617Z</time></trkpt><trkpt lat="37.0268101" lon="14.7102451"><ele>733.5</ele><time>2026-04-24T15:21:56.616Z</time></trkpt><trkpt lat="37.0268444" lon="14.7100996"><ele>732.0</ele><time>2026-04-24T15:21:57.617Z</time></trkpt><trkpt lat="37.0268686" lon="14.7099261"><ele>730.5</ele><time>2026-04-24T15:21:58.617Z</time></trkpt><trkpt lat="37.0269019" lon="14.709739"><ele>729.0</ele><time>2026-04-24T15:21:59.616Z</time></trkpt><trkpt lat="37.0269394" lon="14.7095332"><ele>729.0</ele><time>2026-04-24T15:22:00.617Z</time></trkpt><trkpt lat="37.0269801" lon="14.70933"><ele>729.0</ele><time>2026-04-24T15:22:01.618Z</time></trkpt><trkpt lat="37.0270246" lon="14.7091214"><ele>729.0</ele><time>2026-04-24T15:22:02.617Z</time></trkpt><trkpt lat="37.0270664" lon="14.7089201"><ele>729.0</ele><time>2026-04-24T15:22:03.617Z</time></trkpt><trkpt lat="37.0270785" lon="14.7087326"><ele>729.0</ele><time>2026-04-24T15:22:04.617Z</time></trkpt><trkpt lat="37.0270418" lon="14.7085599"><ele>729.0</ele><time>2026-04-24T15:22:05.618Z</time></trkpt><trkpt lat="37.0269801" lon="14.7084025"><ele>729.0</ele><time>2026-04-24T15:22:06.617Z</time></trkpt><trkpt lat="37.0268975" lon="14.7082551"><ele>730.0</ele><time>2026-04-24T15:22:07.618Z</time></trkpt><trkpt lat="37.0268029" lon="14.708102"><ele>731.0</ele><time>2026-04-24T15:22:08.617Z</time></trkpt><trkpt lat="37.026712" lon="14.7079457"><ele>732.0</ele><time>2026-04-24T15:22:09.618Z</time></trkpt><trkpt lat="37.0266152" lon="14.707797"><ele>730.0</ele><time>2026-04-24T15:22:10.617Z</time></trkpt><trkpt lat="37.0264978" lon="14.7076836"><ele>728.0</ele><time>2026-04-24T15:22:11.617Z</time></trkpt><trkpt lat="37.0263648" lon="14.7076142"><ele>726.0</ele><time>2026-04-24T15:22:12.618Z</time></trkpt><trkpt lat="37.0262114" lon="14.7075829"><ele>724.0</ele><time>2026-04-24T15:22:13.617Z</time></trkpt><trkpt lat="37.0260619" lon="14.7075887"><ele>724.0</ele><time>2026-04-24T15:22:14.618Z</time></trkpt><trkpt lat="37.025925" lon="14.7076424"><ele>724.0</ele><time>2026-04-24T15:22:15.617Z</time></trkpt><trkpt lat="37.0257971" lon="14.707745"><ele>724.0</ele><time>2026-04-24T15:22:16.618Z</time></trkpt><trkpt lat="37.0256834" lon="14.7078736"><ele>724.0</ele><time>2026-04-24T15:22:17.617Z</time></trkpt><trkpt lat="37.025576" lon="14.7080181"><ele>729.6666666666667</ele><time>2026-04-24T15:22:18.617Z</time></trkpt><trkpt lat="37.0254621" lon="14.7081643"><ele>735.3333333333334</ele><time>2026-04-24T15:22:19.617Z</time></trkpt><trkpt lat="37.0253465" lon="14.7083037"><ele>741.0</ele><time>2026-04-24T15:22:20.616Z</time></trkpt><trkpt lat="37.0252169" lon="14.7084182"><ele>741.0</ele><time>2026-04-24T15:22:21.617Z</time></trkpt><trkpt lat="37.0250761" lon="14.7085143"><ele>741.0</ele><time>2026-04-24T15:22:22.618Z</time></trkpt><trkpt lat="37.0249215" lon="14.7085476"><ele>741.0</ele><time>2026-04-24T15:22:23.616Z</time></trkpt><trkpt lat="37.0247522" lon="14.7085816"><ele>752.0</ele><time>2026-04-24T15:22:24.618Z</time></trkpt><trkpt lat="37.024574" lon="14.7085941"><ele>763.0</ele><time>2026-04-24T15:22:25.618Z</time></trkpt><trkpt lat="37.0244111" lon="14.7086206"><ele>774.0</ele><time>2026-04-24T15:22:26.618Z</time></trkpt><trkpt lat="37.0242379" lon="14.7086516"><ele>772.3333333333333</ele><time>2026-04-24T15:22:27.617Z</time></trkpt><trkpt lat="37.0240658" lon="14.7086765"><ele>770.6666666666666</ele><time>2026-04-24T15:22:28.617Z</time></trkpt><trkpt lat="37.0238958" lon="14.7087255"><ele>769.0</ele><time>2026-04-24T15:22:29.617Z</time></trkpt><trkpt lat="37.0237326" lon="14.708777"><ele>769.0</ele><time>2026-04-24T15:22:30.617Z</time></trkpt><trkpt lat="37.0235598" lon="14.7088379"><ele>769.0</ele><time>2026-04-24T15:22:31.617Z</time></trkpt><trkpt lat="37.0233902" lon="14.7089125"><ele>769.0</ele><time>2026-04-24T15:22:32.617Z</time></trkpt><trkpt lat="37.0232148" lon="14.7089896"><ele>765.0</ele><time>2026-04-24T15:22:33.617Z</time></trkpt><trkpt lat="37.0230437" lon="14.7090727"><ele>761.0</ele><time>2026-04-24T15:22:34.617Z</time></trkpt><trkpt lat="37.0228787" lon="14.709165"><ele>757.0</ele><time>2026-04-24T15:22:35.617Z</time></trkpt><trkpt lat="37.0227099" lon="14.7092603"><ele>757.0</ele><time>2026-04-24T15:22:36.617Z</time></trkpt><trkpt lat="37.0225415" lon="14.7093632"><ele>757.0</ele><time>2026-04-24T15:22:37.617Z</time></trkpt><trkpt lat="37.0223747" lon="14.7094716"><ele>757.0</ele><time>2026-04-24T15:22:38.617Z</time></trkpt><trkpt lat="37.0222004" lon="14.7095493"><ele>764.0</ele><time>2026-04-24T15:22:39.617Z</time></trkpt><trkpt lat="37.0220249" lon="14.7096184"><ele>771.0</ele><time>2026-04-24T15:22:40.617Z</time></trkpt><trkpt lat="37.0218701" lon="14.709672"><ele>778.0</ele><time>2026-04-24T15:22:41.617Z</time></trkpt><trkpt lat="37.0217455" lon="14.7097367"><ele>778.0</ele><time>2026-04-24T15:22:42.617Z</time></trkpt><trkpt lat="37.0216679" lon="14.7098233"><ele>778.0</ele><time>2026-04-24T15:22:43.617Z</time></trkpt><trkpt lat="37.0216164" lon="14.7099288"><ele>778.0</ele><time>2026-04-24T15:22:44.617Z</time></trkpt><trkpt lat="37.0215741" lon="14.7100307"><ele>778.0</ele><time>2026-04-24T15:22:45.617Z</time></trkpt><trkpt lat="37.0215161" lon="14.7101088"><ele>778.0</ele><time>2026-04-24T15:22:46.617Z</time></trkpt><trkpt lat="37.021458" lon="14.7102081"><ele>782.8</ele><time>2026-04-24T15:22:47.617Z</time></trkpt><trkpt lat="37.0213994" lon="14.7103203"><ele>787.5999999999999</ele><time>2026-04-24T15:22:48.618Z</time></trkpt><trkpt lat="37.021326" lon="14.7104223"><ele>792.4000000000001</ele><time>2026-04-24T15:22:49.617Z</time></trkpt><trkpt lat="37.0212612" lon="14.7105159"><ele>797.2</ele><time>2026-04-24T15:22:50.617Z</time></trkpt><trkpt lat="37.0211944" lon="14.7105615"><ele>802.0</ele><time>2026-04-24T15:22:51.617Z</time></trkpt><trkpt lat="37.0210805" lon="14.7105535"><ele>802.0</ele><time>2026-04-24T15:22:53.617Z</time></trkpt><trkpt lat="37.0209849" lon="14.7104802"><ele>802.0</ele><time>2026-04-24T15:22:55.617Z</time></trkpt><trkpt lat="37.0210056" lon="14.7103252"><ele>802.0</ele><time>2026-04-24T15:22:56.617Z</time></trkpt><trkpt lat="37.021015" lon="14.7102091"><ele>802.0</ele><time>2026-04-24T15:22:57.618Z</time></trkpt><trkpt lat="37.0210366" lon="14.7100619"><ele>801.5</ele><time>2026-04-24T15:22:58.616Z</time></trkpt><trkpt lat="37.0210497" lon="14.7098856"><ele>801.0</ele><time>2026-04-24T15:22:59.616Z</time></trkpt><trkpt lat="37.0210586" lon="14.7097152"><ele>800.5</ele><time>2026-04-24T15:23:00.617Z</time></trkpt><trkpt lat="37.0210593" lon="14.7095428"><ele>800.0</ele><time>2026-04-24T15:23:01.617Z</time></trkpt><trkpt lat="37.0211042" lon="14.7093658"><ele>802.6666666666667</ele><time>2026-04-24T15:23:02.617Z</time></trkpt><trkpt lat="37.0211368" lon="14.7091833"><ele>805.3333333333333</ele><time>2026-04-24T15:23:03.617Z</time></trkpt><trkpt lat="37.0211741" lon="14.7089928"><ele>808.0</ele><time>2026-04-24T15:23:04.616Z</time></trkpt><trkpt lat="37.0211945" lon="14.7088127"><ele>808.0</ele><time>2026-04-24T15:23:05.617Z</time></trkpt><trkpt lat="37.0212115" lon="14.7086431"><ele>808.0</ele><time>2026-04-24T15:23:06.617Z</time></trkpt><trkpt lat="37.0212262" lon="14.7084836"><ele>808.0</ele><time>2026-04-24T15:23:07.617Z</time></trkpt><trkpt lat="37.0212428" lon="14.7083372"><ele>808.0</ele><time>2026-04-24T15:23:08.616Z</time></trkpt><trkpt lat="37.0212539" lon="14.708226"><ele>807.8</ele><time>2026-04-24T15:23:09.617Z</time></trkpt><trkpt lat="37.0212697" lon="14.7081378"><ele>807.5999999999999</ele><time>2026-04-24T15:23:10.618Z</time></trkpt><trkpt lat="37.0213034" lon="14.7080345"><ele>807.4000000000001</ele><time>2026-04-24T15:23:12.617Z</time></trkpt><trkpt lat="37.0213976" lon="14.7079777"><ele>807.2</ele><time>2026-04-24T15:24:26.617Z</time></trkpt><trkpt lat="37.0215015" lon="14.7078801"><ele>807.0</ele><time>2026-04-24T15:24:28.617Z</time></trkpt><trkpt lat="37.0215648" lon="14.7077895"><ele>805.6666666666666</ele><time>2026-04-24T15:24:29.617Z</time></trkpt><trkpt lat="37.0216322" lon="14.7077266"><ele>804.3333333333333</ele><time>2026-04-24T15:24:30.617Z</time></trkpt><trkpt lat="37.0217019" lon="14.7076778"><ele>803.0</ele><time>2026-04-24T15:24:31.616Z</time></trkpt><trkpt lat="37.02177" lon="14.7076107"><ele>801.6666666666666</ele><time>2026-04-24T15:24:32.616Z</time></trkpt><trkpt lat="37.0218224" lon="14.7075378"><ele>800.3333333333333</ele><time>2026-04-24T15:24:33.618Z</time></trkpt><trkpt lat="37.0218773" lon="14.7074777"><ele>799.0</ele><time>2026-04-24T15:24:34.617Z</time></trkpt><trkpt lat="37.0219349" lon="14.7074318"><ele>796.3333333333333</ele><time>2026-04-24T15:24:35.618Z</time></trkpt><trkpt lat="37.0220003" lon="14.7073958"><ele>793.6666666666666</ele><time>2026-04-24T15:24:36.617Z</time></trkpt><trkpt lat="37.0220553" lon="14.7073515"><ele>791.0</ele><time>2026-04-24T15:24:37.616Z</time></trkpt><trkpt lat="37.0221424" lon="14.7072919"><ele>788.3333333333333</ele><time>2026-04-24T15:24:38.616Z</time></trkpt><trkpt lat="37.0222133" lon="14.7072478"><ele>785.6666666666666</ele><time>2026-04-24T15:24:39.617Z</time></trkpt><trkpt lat="37.0222933" lon="14.7071936"><ele>783.0</ele><time>2026-04-24T15:24:40.617Z</time></trkpt><trkpt lat="37.0223586" lon="14.7071456"><ele>783.0</ele><time>2026-04-24T15:24:41.616Z</time></trkpt><trkpt lat="37.0224278" lon="14.7071025"><ele>783.0</ele><time>2026-04-24T15:24:42.617Z</time></trkpt><trkpt lat="37.0225155" lon="14.7070623"><ele>783.0</ele><time>2026-04-24T15:24:44.617Z</time></trkpt><trkpt lat="37.0225963" lon="14.7069964"><ele>783.0</ele><time>2026-04-24T15:24:46.617Z</time></trkpt><trkpt lat="37.0226303" lon="14.7070941"><ele>783.0</ele><time>2026-04-24T15:24:50.617Z</time></trkpt><trkpt lat="37.0225953" lon="14.7071964"><ele>783.0</ele><time>2026-04-24T15:24:52.616Z</time></trkpt><trkpt lat="37.0225522" lon="14.7073237"><ele>783.0</ele><time>2026-04-24T15:24:54.618Z</time></trkpt><trkpt lat="37.022528" lon="14.7073977"><ele>783.0</ele><time>2026-04-24T15:24:55.616Z</time></trkpt><trkpt lat="37.0224798" lon="14.7075435"><ele>783.0</ele><time>2026-04-24T15:24:57.617Z</time></trkpt><trkpt lat="37.0224509" lon="14.7076207"><ele>783.0</ele><time>2026-04-24T15:24:58.617Z</time></trkpt><trkpt lat="37.0224188" lon="14.7077055"><ele>783.0</ele><time>2026-04-24T15:24:59.616Z</time></trkpt><trkpt lat="37.0223662" lon="14.7078357"><ele>783.0</ele><time>2026-04-24T15:25:01.617Z</time></trkpt><trkpt lat="37.0223355" lon="14.7079267"><ele>781.75</ele><time>2026-04-24T15:25:03.617Z</time></trkpt><trkpt lat="37.022438" lon="14.707831"><ele>780.5</ele><time>2026-04-24T15:25:09.617Z</time></trkpt><trkpt lat="37.0225181" lon="14.7077414"><ele>779.25</ele><time>2026-04-24T15:25:11.617Z</time></trkpt><trkpt lat="37.0226147" lon="14.7076496"><ele>778.0</ele><time>2026-04-24T15:25:13.616Z</time></trkpt><trkpt lat="37.0227038" lon="14.7075928"><ele>774.4999999999999</ele><time>2026-04-24T15:25:15.617Z</time></trkpt><trkpt lat="37.0227592" lon="14.7075504"><ele>771.0</ele><time>2026-04-24T15:25:16.617Z</time></trkpt><trkpt lat="37.0228692" lon="14.707491"><ele>767.5</ele><time>2026-04-24T15:25:18.617Z</time></trkpt><trkpt lat="37.0229295" lon="14.7074509"><ele>764.0</ele><time>2026-04-24T15:25:19.618Z</time></trkpt><trkpt lat="37.0229946" lon="14.7074234"><ele>760.5</ele><time>2026-04-24T15:25:20.618Z</time></trkpt><trkpt lat="37.0230626" lon="14.7073861"><ele>757.0</ele><time>2026-04-24T15:25:21.617Z</time></trkpt><trkpt lat="37.0231226" lon="14.7073413"><ele>757.0</ele><time>2026-04-24T15:25:22.617Z</time></trkpt><trkpt lat="37.023192" lon="14.7073018"><ele>757.0</ele><time>2026-04-24T15:25:23.616Z</time></trkpt><trkpt lat="37.0232868" lon="14.7072389"><ele>757.0</ele><time>2026-04-24T15:25:25.617Z</time></trkpt><trkpt lat="37.0233854" lon="14.7071054"><ele>757.0</ele><time>2026-04-24T15:25:27.617Z</time></trkpt><trkpt lat="37.0234479" lon="14.707082"><ele>757.0</ele><time>2026-04-24T15:25:28.618Z</time></trkpt><trkpt lat="37.0235144" lon="14.7070345"><ele>754.5</ele><time>2026-04-24T15:25:29.617Z</time></trkpt><trkpt lat="37.0235876" lon="14.7069857"><ele>752.0</ele><time>2026-04-24T15:25:30.617Z</time></trkpt><trkpt lat="37.0236668" lon="14.7069554"><ele>749.5</ele><time>2026-04-24T15:25:31.617Z</time></trkpt><trkpt lat="37.0237371" lon="14.706927"><ele>747.0</ele><time>2026-04-24T15:25:32.617Z</time></trkpt><trkpt lat="37.0238246" lon="14.7068981"><ele>744.5</ele><time>2026-04-24T15:25:33.617Z</time></trkpt><trkpt lat="37.0238963" lon="14.7068541"><ele>742.0</ele><time>2026-04-24T15:25:34.617Z</time></trkpt><trkpt lat="37.0239896" lon="14.7067847"><ele>742.0</ele><time>2026-04-24T15:25:36.617Z</time></trkpt><trkpt lat="37.0240468" lon="14.7067413"><ele>742.0</ele><time>2026-04-24T15:25:37.617Z</time></trkpt><trkpt lat="37.0241094" lon="14.7067034"><ele>742.0</ele><time>2026-04-24T15:25:38.617Z</time></trkpt><trkpt lat="37.0241796" lon="14.706644"><ele>742.0</ele><time>2026-04-24T15:25:39.617Z</time></trkpt><trkpt lat="37.024232" lon="14.7065793"><ele>742.0</ele><time>2026-04-24T15:25:40.617Z</time></trkpt><trkpt lat="37.0242777" lon="14.70652"><ele>742.0</ele><time>2026-04-24T15:25:41.618Z</time></trkpt><trkpt lat="37.0243256" lon="14.7064618"><ele>742.0</ele><time>2026-04-24T15:25:42.617Z</time></trkpt><trkpt lat="37.024409" lon="14.7063583"><ele>735.5</ele><time>2026-04-24T15:25:44.618Z</time></trkpt><trkpt lat="37.0244562" lon="14.7062346"><ele>729.0</ele><time>2026-04-24T15:25:46.617Z</time></trkpt><trkpt lat="37.0245068" lon="14.7061075"><ele>722.5</ele><time>2026-04-24T15:25:48.617Z</time></trkpt><trkpt lat="37.0245692" lon="14.7059668"><ele>716.0</ele><time>2026-04-24T15:25:50.616Z</time></trkpt><trkpt lat="37.0245507" lon="14.7058384"><ele>715.8571428571429</ele><time>2026-04-24T15:25:52.617Z</time></trkpt><trkpt lat="37.0245082" lon="14.7057185"><ele>715.7142857142858</ele><time>2026-04-24T15:25:54.616Z</time></trkpt><trkpt lat="37.0245056" lon="14.7056346"><ele>715.5714285714287</ele><time>2026-04-24T15:25:56.617Z</time></trkpt><trkpt lat="37.0244531" lon="14.7055887"><ele>715.4285714285714</ele><time>2026-04-24T15:26:00.617Z</time></trkpt><trkpt lat="37.0243911" lon="14.7055447"><ele>715.2857142857142</ele><time>2026-04-24T15:26:02.617Z</time></trkpt><trkpt lat="37.0243304" lon="14.705506"><ele>715.1428571428572</ele><time>2026-04-24T15:26:04.617Z</time></trkpt><trkpt lat="37.0243238" lon="14.7054248"><ele>715.0</ele><time>2026-04-24T15:26:07.617Z</time></trkpt><trkpt lat="37.0243807" lon="14.7053594"><ele>715.0</ele><time>2026-04-24T15:26:09.617Z</time></trkpt><trkpt lat="37.0244472" lon="14.7053246"><ele>715.0</ele><time>2026-04-24T15:26:11.617Z</time></trkpt><trkpt lat="37.0246299" lon="14.7053313"><ele>715.0</ele><time>2026-04-24T15:26:18.618Z</time></trkpt><trkpt lat="37.024717" lon="14.7053512"><ele>715.0</ele><time>2026-04-24T15:26:21.617Z</time></trkpt><trkpt lat="37.0248092" lon="14.7053776"><ele>715.0</ele><time>2026-04-24T15:26:24.617Z</time></trkpt><trkpt lat="37.024872" lon="14.7054107"><ele>715.0</ele><time>2026-04-24T15:26:26.617Z</time></trkpt><trkpt lat="37.024956" lon="14.7054612"><ele>715.0</ele><time>2026-04-24T15:26:28.616Z</time></trkpt><trkpt lat="37.0250262" lon="14.7055348"><ele>715.0</ele><time>2026-04-24T15:26:30.617Z</time></trkpt><trkpt lat="37.0250716" lon="14.7055932"><ele>715.0</ele><time>2026-04-24T15:26:32.617Z</time></trkpt><trkpt lat="37.0251296" lon="14.7056281"><ele>715.0</ele><time>2026-04-24T15:26:34.617Z</time></trkpt><trkpt lat="37.0252047" lon="14.7056548"><ele>715.0</ele><time>2026-04-24T15:26:36.616Z</time></trkpt><trkpt lat="37.0253259" lon="14.7056837"><ele>709.6666666666667</ele><time>2026-04-24T15:26:38.617Z</time></trkpt><trkpt lat="37.0254219" lon="14.7057339"><ele>704.3333333333334</ele><time>2026-04-24T15:26:40.618Z</time></trkpt><trkpt lat="37.0255181" lon="14.7057599"><ele>699.0</ele><time>2026-04-24T15:26:42.617Z</time></trkpt><trkpt lat="37.025594" lon="14.7057293"><ele>693.6666666666666</ele><time>2026-04-24T15:26:44.617Z</time></trkpt><trkpt lat="37.0256641" lon="14.7057243"><ele>688.3333333333333</ele><time>2026-04-24T15:26:46.617Z</time></trkpt><trkpt lat="37.0257544" lon="14.7057212"><ele>683.0</ele><time>2026-04-24T15:26:48.617Z</time></trkpt><trkpt lat="37.0258483" lon="14.7057595"><ele>679.8333333333333</ele><time>2026-04-24T15:26:50.617Z</time></trkpt><trkpt lat="37.0259297" lon="14.7057844"><ele>676.6666666666666</ele><time>2026-04-24T15:26:52.617Z</time></trkpt><trkpt lat="37.0260254" lon="14.7058131"><ele>673.5</ele><time>2026-04-24T15:26:54.617Z</time></trkpt><trkpt lat="37.0260972" lon="14.705788"><ele>670.3333333333334</ele><time>2026-04-24T15:26:56.616Z</time></trkpt><trkpt lat="37.0261692" lon="14.7057788"><ele>667.1666666666667</ele><time>2026-04-24T15:26:58.616Z</time></trkpt><trkpt lat="37.0262736" lon="14.7057273"><ele>664.0</ele><time>2026-04-24T15:27:01.617Z</time></trkpt><trkpt lat="37.0263582" lon="14.7056712"><ele>664.0</ele><time>2026-04-24T15:27:03.617Z</time></trkpt><trkpt lat="37.0264752" lon="14.7056204"><ele>664.0</ele><time>2026-04-24T15:27:05.617Z</time></trkpt><trkpt lat="37.0265705" lon="14.7056079"><ele>664.0</ele><time>2026-04-24T15:27:08.617Z</time></trkpt><trkpt lat="37.0266782" lon="14.7055624"><ele>664.0</ele><time>2026-04-24T15:27:10.617Z</time></trkpt><trkpt lat="37.026758" lon="14.7054935"><ele>664.0</ele><time>2026-04-24T15:27:12.617Z</time></trkpt><trkpt lat="37.0268542" lon="14.7054626"><ele>662.4000000000001</ele><time>2026-04-24T15:27:14.617Z</time></trkpt><trkpt lat="37.0269154" lon="14.7054823"><ele>660.8</ele><time>2026-04-24T15:27:17.618Z</time></trkpt><trkpt lat="37.027003" lon="14.7054796"><ele>659.2</ele><time>2026-04-24T15:27:21.617Z</time></trkpt><trkpt lat="37.0270479" lon="14.7053853"><ele>657.5999999999999</ele><time>2026-04-24T15:27:23.618Z</time></trkpt><trkpt lat="37.0270585" lon="14.705254"><ele>656.0</ele><time>2026-04-24T15:27:24.617Z</time></trkpt><trkpt lat="37.0271256" lon="14.7051383"><ele>656.0</ele><time>2026-04-24T15:27:26.617Z</time></trkpt><trkpt lat="37.0271542" lon="14.7050679"><ele>656.0</ele><time>2026-04-24T15:27:27.617Z</time></trkpt><trkpt lat="37.0271711" lon="14.7049905"><ele>656.0</ele><time>2026-04-24T15:27:28.618Z</time></trkpt><trkpt lat="37.0271734" lon="14.7049063"><ele>656.0</ele><time>2026-04-24T15:27:29.616Z</time></trkpt><trkpt lat="37.0271679" lon="14.7048084"><ele>656.0</ele><time>2026-04-24T15:27:30.617Z</time></trkpt><trkpt lat="37.0271606" lon="14.7047021"><ele>656.0</ele><time>2026-04-24T15:27:31.617Z</time></trkpt><trkpt lat="37.0271574" lon="14.704586"><ele>656.0</ele><time>2026-04-24T15:27:32.617Z</time></trkpt><trkpt lat="37.0271546" lon="14.704462"><ele>656.0</ele><time>2026-04-24T15:27:33.616Z</time></trkpt><trkpt lat="37.0271548" lon="14.7043315"><ele>656.0</ele><time>2026-04-24T15:27:34.617Z</time></trkpt><trkpt lat="37.0271511" lon="14.7041991"><ele>656.0</ele><time>2026-04-24T15:27:35.618Z</time></trkpt><trkpt lat="37.0271479" lon="14.704066"><ele>656.0</ele><time>2026-04-24T15:27:36.617Z</time></trkpt><trkpt lat="37.0271383" lon="14.7039273"><ele>658.4</ele><time>2026-04-24T15:27:37.617Z</time></trkpt><trkpt lat="37.0271277" lon="14.7037834"><ele>660.8</ele><time>2026-04-24T15:27:38.617Z</time></trkpt><trkpt lat="37.0271158" lon="14.7036448"><ele>663.1999999999999</ele><time>2026-04-24T15:27:39.617Z</time></trkpt><trkpt lat="37.0271032" lon="14.7035072"><ele>665.5999999999999</ele><time>2026-04-24T15:27:40.617Z</time></trkpt><trkpt lat="37.0270885" lon="14.7033737"><ele>668.0</ele><time>2026-04-24T15:27:41.618Z</time></trkpt><trkpt lat="37.0270597" lon="14.7032432"><ele>669.8</ele><time>2026-04-24T15:27:42.617Z</time></trkpt><trkpt lat="37.0270116" lon="14.7031258"><ele>671.5999999999999</ele><time>2026-04-24T15:27:43.617Z</time></trkpt><trkpt lat="37.0269458" lon="14.7030189"><ele>673.4000000000001</ele><time>2026-04-24T15:27:44.617Z</time></trkpt><trkpt lat="37.0268661" lon="14.7029193"><ele>675.2</ele><time>2026-04-24T15:27:45.617Z</time></trkpt><trkpt lat="37.0267733" lon="14.7028492"><ele>677.0</ele><time>2026-04-24T15:27:46.617Z</time></trkpt><trkpt lat="37.0266828" lon="14.7028031"><ele>678.8333333333333</ele><time>2026-04-24T15:27:47.617Z</time></trkpt><trkpt lat="37.0266048" lon="14.7027641"><ele>680.6666666666666</ele><time>2026-04-24T15:27:48.617Z</time></trkpt><trkpt lat="37.0265461" lon="14.7027182"><ele>682.5</ele><time>2026-04-24T15:27:49.618Z</time></trkpt><trkpt lat="37.0264686" lon="14.7026469"><ele>684.3333333333334</ele><time>2026-04-24T15:27:50.617Z</time></trkpt><trkpt lat="37.0263888" lon="14.7025808"><ele>686.1666666666667</ele><time>2026-04-24T15:27:51.617Z</time></trkpt><trkpt lat="37.0263122" lon="14.7025123"><ele>688.0</ele><time>2026-04-24T15:27:52.617Z</time></trkpt><trkpt lat="37.0262435" lon="14.7024327"><ele>688.0</ele><time>2026-04-24T15:27:53.617Z</time></trkpt><trkpt lat="37.026185" lon="14.7023589"><ele>688.0</ele><time>2026-04-24T15:27:54.617Z</time></trkpt><trkpt lat="37.0261456" lon="14.7022935"><ele>688.0</ele><time>2026-04-24T15:27:55.618Z</time></trkpt><trkpt lat="37.0261249" lon="14.7022136"><ele>688.0</ele><time>2026-04-24T15:27:57.616Z</time></trkpt><trkpt lat="37.0261893" lon="14.7021199"><ele>688.0</ele><time>2026-04-24T15:28:00.616Z</time></trkpt><trkpt lat="37.0262605" lon="14.7020472"><ele>688.0</ele><time>2026-04-24T15:28:02.616Z</time></trkpt><trkpt lat="37.0263006" lon="14.7019384"><ele>686.5999999999999</ele><time>2026-04-24T15:28:04.615Z</time></trkpt><trkpt lat="37.0263398" lon="14.701798"><ele>685.1999999999999</ele><time>2026-04-24T15:28:06.617Z</time></trkpt><trkpt lat="37.0263572" lon="14.7017209"><ele>683.8</ele><time>2026-04-24T15:28:07.616Z</time></trkpt><trkpt lat="37.0264188" lon="14.7016092"><ele>682.4</ele><time>2026-04-24T15:28:09.616Z</time></trkpt><trkpt lat="37.0264962" lon="14.7015054"><ele>681.0</ele><time>2026-04-24T15:28:11.617Z</time></trkpt><trkpt lat="37.026548" lon="14.7014188"><ele>681.0</ele><time>2026-04-24T15:28:13.616Z</time></trkpt><trkpt lat="37.0266101" lon="14.7013363"><ele>681.0</ele><time>2026-04-24T15:28:15.617Z</time></trkpt><trkpt lat="37.0266747" lon="14.7012815"><ele>681.0</ele><time>2026-04-24T15:28:17.616Z</time></trkpt><trkpt lat="37.0267192" lon="14.7012202"><ele>681.0</ele><time>2026-04-24T15:28:19.617Z</time></trkpt><trkpt lat="37.0267709" lon="14.7011716"><ele>681.0</ele><time>2026-04-24T15:28:21.617Z</time></trkpt><trkpt lat="37.0268176" lon="14.7010715"><ele>681.0</ele><time>2026-04-24T15:28:23.616Z</time></trkpt><trkpt lat="37.0268307" lon="14.7009341"><ele>674.5</ele><time>2026-04-24T15:28:25.616Z</time></trkpt><trkpt lat="37.0268431" lon="14.7008056"><ele>668.0</ele><time>2026-04-24T15:28:27.617Z</time></trkpt><trkpt lat="37.0268949" lon="14.7006918"><ele>661.5</ele><time>2026-04-24T15:28:29.618Z</time></trkpt><trkpt lat="37.0269439" lon="14.7005972"><ele>655.0</ele><time>2026-04-24T15:28:31.616Z</time></trkpt><trkpt lat="37.0269969" lon="14.7005251"><ele>648.5</ele><time>2026-04-24T15:28:34.616Z</time></trkpt><trkpt lat="37.0270526" lon="14.7004822"><ele>642.0</ele><time>2026-04-24T15:28:36.617Z</time></trkpt><trkpt lat="37.027137" lon="14.7004511"><ele>642.0</ele><time>2026-04-24T15:28:38.617Z</time></trkpt><trkpt lat="37.0271818" lon="14.7003885"><ele>642.0</ele><time>2026-04-24T15:28:41.616Z</time></trkpt><trkpt lat="37.0271506" lon="14.7003092"><ele>642.0</ele><time>2026-04-24T15:28:45.617Z</time></trkpt><trkpt lat="37.0271786" lon="14.7002145"><ele>642.0</ele><time>2026-04-24T15:28:48.616Z</time></trkpt><trkpt lat="37.027198" lon="14.7001328"><ele>642.0</ele><time>2026-04-24T15:28:50.616Z</time></trkpt><trkpt lat="37.0272077" lon="14.7000057"><ele>642.0</ele><time>2026-04-24T15:28:53.616Z</time></trkpt><trkpt lat="37.0272156" lon="14.6999009"><ele>639.4</ele><time>2026-04-24T15:28:55.75Z</time></trkpt><trkpt lat="37.0271841" lon="14.699769"><ele>636.8000000000001</ele><time>2026-04-24T15:28:58.616Z</time></trkpt><trkpt lat="37.027167" lon="14.6996897"><ele>634.2</ele><time>2026-04-24T15:29:00.617Z</time></trkpt><trkpt lat="37.0271356" lon="14.6995649"><ele>631.6</ele><time>2026-04-24T15:29:02.618Z</time></trkpt><trkpt lat="37.0270977" lon="14.6994459"><ele>629.0</ele><time>2026-04-24T15:29:04.615Z</time></trkpt><trkpt lat="37.0270911" lon="14.6993197"><ele>626.1666666666666</ele><time>2026-04-24T15:29:06.616Z</time></trkpt><trkpt lat="37.0271319" lon="14.699205"><ele>623.3333333333333</ele><time>2026-04-24T15:29:08.617Z</time></trkpt><trkpt lat="37.0271315" lon="14.6991005"><ele>620.5</ele><time>2026-04-24T15:29:10.616Z</time></trkpt><trkpt lat="37.0271291" lon="14.6990165"><ele>617.6666666666666</ele><time>2026-04-24T15:29:12.616Z</time></trkpt><trkpt lat="37.0271315" lon="14.6989321"><ele>614.8333333333334</ele><time>2026-04-24T15:29:14.616Z</time></trkpt><trkpt lat="37.027144" lon="14.6988542"><ele>612.0</ele><time>2026-04-24T15:29:16.616Z</time></trkpt><trkpt lat="37.0271815" lon="14.6987813"><ele>612.0</ele><time>2026-04-24T15:29:19.616Z</time></trkpt><trkpt lat="37.0272584" lon="14.6987247"><ele>612.0</ele><time>2026-04-24T15:29:22.617Z</time></trkpt><trkpt lat="37.0273358" lon="14.6986418"><ele>612.0</ele><time>2026-04-24T15:29:25.617Z</time></trkpt><trkpt lat="37.0274082" lon="14.6985686"><ele>612.0</ele><time>2026-04-24T15:29:28.616Z</time></trkpt><trkpt lat="37.0274702" lon="14.6985031"><ele>612.0</ele><time>2026-04-24T15:29:30.616Z</time></trkpt><trkpt lat="37.0275369" lon="14.698474"><ele>612.0</ele><time>2026-04-24T15:29:32.609Z</time></trkpt><trkpt lat="37.0275909" lon="14.6984315"><ele>605.8000000000001</ele><time>2026-04-24T15:29:34.617Z</time></trkpt><trkpt lat="37.0276738" lon="14.6983698"><ele>599.6</ele><time>2026-04-24T15:29:36.616Z</time></trkpt><trkpt lat="37.0277216" lon="14.6982703"><ele>593.4000000000001</ele><time>2026-04-24T15:29:38.616Z</time></trkpt><trkpt lat="37.0276972" lon="14.6981652"><ele>587.2</ele><time>2026-04-24T15:29:40.617Z</time></trkpt><trkpt lat="37.0276926" lon="14.6980241"><ele>581.0</ele><time>2026-04-24T15:29:42.616Z</time></trkpt><trkpt lat="37.0277491" lon="14.6979142"><ele>581.0</ele><time>2026-04-24T15:29:44.618Z</time></trkpt><trkpt lat="37.027812" lon="14.6979042"><ele>581.0</ele><time>2026-04-24T15:29:46.616Z</time></trkpt><trkpt lat="37.0278552" lon="14.6978261"><ele>581.0</ele><time>2026-04-24T15:29:50.616Z</time></trkpt><trkpt lat="37.0278336" lon="14.6977361"><ele>581.0</ele><time>2026-04-24T15:29:52.615Z</time></trkpt><trkpt lat="37.0278199" lon="14.6976404"><ele>581.0</ele><time>2026-04-24T15:29:54.616Z</time></trkpt><trkpt lat="37.0278123" lon="14.6975281"><ele>581.0</ele><time>2026-04-24T15:29:56.616Z</time></trkpt><trkpt lat="37.0277837" lon="14.6974015"><ele>581.5</ele><time>2026-04-24T15:29:58.616Z</time></trkpt><trkpt lat="37.0277758" lon="14.6972544"><ele>582.0</ele><time>2026-04-24T15:30:00.616Z</time></trkpt><trkpt lat="37.0277896" lon="14.6971333"><ele>582.5</ele><time>2026-04-24T15:30:02.617Z</time></trkpt><trkpt lat="37.0277675" lon="14.6970421"><ele>583.0</ele><time>2026-04-24T15:30:34.617Z</time></trkpt><trkpt lat="37.0277366" lon="14.6969624"><ele>583.5</ele><time>2026-04-24T15:30:37.617Z</time></trkpt><trkpt lat="37.0277149" lon="14.6968739"><ele>584.0</ele><time>2026-04-24T15:30:39.617Z</time></trkpt><trkpt lat="37.0277148" lon="14.696778"><ele>584.6666666666666</ele><time>2026-04-24T15:30:41.615Z</time></trkpt><trkpt lat="37.0276938" lon="14.6966445"><ele>585.3333333333333</ele><time>2026-04-24T15:30:43.617Z</time></trkpt><trkpt lat="37.0276893" lon="14.6965503"><ele>586.0</ele><time>2026-04-24T15:30:44.615Z</time></trkpt><trkpt lat="37.0276872" lon="14.6964483"><ele>586.6666666666666</ele><time>2026-04-24T15:30:46.616Z</time></trkpt><trkpt lat="37.0277062" lon="14.6963518"><ele>587.3333333333334</ele><time>2026-04-24T15:30:48.616Z</time></trkpt><trkpt lat="37.0277349" lon="14.6962392"><ele>588.0</ele><time>2026-04-24T15:30:50.616Z</time></trkpt><trkpt lat="37.0277734" lon="14.6961094"><ele>589.1999999999999</ele><time>2026-04-24T15:30:52.618Z</time></trkpt><trkpt lat="37.0278052" lon="14.695998"><ele>590.4</ele><time>2026-04-24T15:30:54.616Z</time></trkpt><trkpt lat="37.0278746" lon="14.6958848"><ele>591.5999999999999</ele><time>2026-04-24T15:30:56.616Z</time></trkpt><trkpt lat="37.0279335" lon="14.6957786"><ele>592.8</ele><time>2026-04-24T15:30:58.616Z</time></trkpt><trkpt lat="37.0279922" lon="14.6956914"><ele>594.0</ele><time>2026-04-24T15:31:00.617Z</time></trkpt><trkpt lat="37.0280403" lon="14.6955983"><ele>594.0</ele><time>2026-04-24T15:31:02.616Z</time></trkpt><trkpt lat="37.0281027" lon="14.695513"><ele>594.0</ele><time>2026-04-24T15:31:04.617Z</time></trkpt><trkpt lat="37.0281623" lon="14.6954266"><ele>594.0</ele><time>2026-04-24T15:31:06.616Z</time></trkpt><trkpt lat="37.0282067" lon="14.6953556"><ele>594.0</ele><time>2026-04-24T15:31:08.616Z</time></trkpt><trkpt lat="37.0282645" lon="14.6952796"><ele>594.0</ele><time>2026-04-24T15:31:10.616Z</time></trkpt><trkpt lat="37.0283226" lon="14.6951993"><ele>594.0</ele><time>2026-04-24T15:31:12.616Z</time></trkpt><trkpt lat="37.0283578" lon="14.6951298"><ele>590.6666666666666</ele><time>2026-04-24T15:31:14.616Z</time></trkpt><trkpt lat="37.0283954" lon="14.6950462"><ele>587.3333333333334</ele><time>2026-04-24T15:31:16.616Z</time></trkpt><trkpt lat="37.0284452" lon="14.6949364"><ele>584.0</ele><time>2026-04-24T15:31:19.617Z</time></trkpt><trkpt lat="37.0284567" lon="14.6948429"><ele>580.6666666666667</ele><time>2026-04-24T15:31:21.616Z</time></trkpt><trkpt lat="37.0284198" lon="14.6947383"><ele>577.3333333333334</ele><time>2026-04-24T15:31:23.618Z</time></trkpt><trkpt lat="37.0283764" lon="14.6946244"><ele>574.0</ele><time>2026-04-24T15:31:25.616Z</time></trkpt><trkpt lat="37.0283863" lon="14.6945228"><ele>576.3333333333334</ele><time>2026-04-24T15:31:27.616Z</time></trkpt><trkpt lat="37.0284155" lon="14.6943885"><ele>578.6666666666667</ele><time>2026-04-24T15:31:29.617Z</time></trkpt><trkpt lat="37.0284374" lon="14.6942761"><ele>581.0</ele><time>2026-04-24T15:31:31.618Z</time></trkpt><trkpt lat="37.0284794" lon="14.6941716"><ele>583.3333333333334</ele><time>2026-04-24T15:31:33.615Z</time></trkpt><trkpt lat="37.0285228" lon="14.6941045"><ele>585.6666666666666</ele><time>2026-04-24T15:31:34.616Z</time></trkpt><trkpt lat="37.0285661" lon="14.6940375"><ele>588.0</ele><time>2026-04-24T15:31:35.618Z</time></trkpt><trkpt lat="37.0286285" lon="14.6939147"><ele>588.0</ele><time>2026-04-24T15:31:37.616Z</time></trkpt><trkpt lat="37.0287046" lon="14.6938031"><ele>588.0</ele><time>2026-04-24T15:31:39.615Z</time></trkpt><trkpt lat="37.0287482" lon="14.6936926"><ele>588.0</ele><time>2026-04-24T15:31:41.617Z</time></trkpt><trkpt lat="37.0287782" lon="14.6935926"><ele>588.0</ele><time>2026-04-24T15:31:43.618Z</time></trkpt><trkpt lat="37.0288204" lon="14.6934918"><ele>588.0</ele><time>2026-04-24T15:31:45.616Z</time></trkpt><trkpt lat="37.0288726" lon="14.6934087"><ele>589.4</ele><time>2026-04-24T15:31:47.617Z</time></trkpt><trkpt lat="37.0289284" lon="14.6933033"><ele>590.8</ele><time>2026-04-24T15:31:49.617Z</time></trkpt><trkpt lat="37.0289706" lon="14.6932128"><ele>592.2</ele><time>2026-04-24T15:31:51.616Z</time></trkpt><trkpt lat="37.0290663" lon="14.6931855"><ele>593.6</ele><time>2026-04-24T15:31:55.617Z</time></trkpt><trkpt lat="37.0291561" lon="14.69319"><ele>595.0</ele><time>2026-04-24T15:31:57.616Z</time></trkpt><trkpt lat="37.0292592" lon="14.6931956"><ele>592.3333333333334</ele><time>2026-04-24T15:31:59.617Z</time></trkpt><trkpt lat="37.0292926" lon="14.6931275"><ele>589.6666666666667</ele><time>2026-04-24T15:32:01.616Z</time></trkpt><trkpt lat="37.0293336" lon="14.6930227"><ele>587.0</ele><time>2026-04-24T15:32:03.616Z</time></trkpt><trkpt lat="37.0293612" lon="14.6929436"><ele>584.3333333333334</ele><time>2026-04-24T15:32:04.618Z</time></trkpt><trkpt lat="37.0293931" lon="14.6928713"><ele>581.6666666666666</ele><time>2026-04-24T15:32:05.616Z</time></trkpt><trkpt lat="37.0294773" lon="14.6927829"><ele>579.0</ele><time>2026-04-24T15:32:07.616Z</time></trkpt><trkpt lat="37.0295956" lon="14.6927122"><ele>578.7142857142857</ele><time>2026-04-24T15:32:09.616Z</time></trkpt><trkpt lat="37.0296622" lon="14.6926735"><ele>578.4285714285714</ele><time>2026-04-24T15:32:10.616Z</time></trkpt><trkpt lat="37.0297293" lon="14.6926437"><ele>578.1428571428571</ele><time>2026-04-24T15:32:11.616Z</time></trkpt><trkpt lat="37.0297917" lon="14.6926209"><ele>577.8571428571429</ele><time>2026-04-24T15:32:12.617Z</time></trkpt><trkpt lat="37.0298552" lon="14.6925874"><ele>577.5714285714286</ele><time>2026-04-24T15:32:13.617Z</time></trkpt><trkpt lat="37.0299167" lon="14.6925614"><ele>577.2857142857142</ele><time>2026-04-24T15:32:14.616Z</time></trkpt><trkpt lat="37.0299907" lon="14.6925278"><ele>577.0</ele><time>2026-04-24T15:32:15.616Z</time></trkpt><trkpt lat="37.0300598" lon="14.6924954"><ele>574.2</ele><time>2026-04-24T15:32:16.617Z</time></trkpt><trkpt lat="37.0301721" lon="14.6924357"><ele>571.4000000000001</ele><time>2026-04-24T15:32:18.616Z</time></trkpt><trkpt lat="37.0302568" lon="14.6923589"><ele>568.5999999999999</ele><time>2026-04-24T15:32:20.617Z</time></trkpt><trkpt lat="37.0303162" lon="14.6923187"><ele>565.8</ele><time>2026-04-24T15:32:22.615Z</time></trkpt><trkpt lat="37.0303886" lon="14.6922874"><ele>563.0</ele><time>2026-04-24T15:32:24.616Z</time></trkpt><trkpt lat="37.0304394" lon="14.6921954"><ele>563.0</ele><time>2026-04-24T15:32:27.622Z</time></trkpt><trkpt lat="37.0304772" lon="14.6921322"><ele>563.0</ele><time>2026-04-24T15:32:29.616Z</time></trkpt><trkpt lat="37.0305438" lon="14.6920468"><ele>563.0</ele><time>2026-04-24T15:32:32.616Z</time></trkpt><trkpt lat="37.030591" lon="14.6919756"><ele>563.0</ele><time>2026-04-24T15:32:34.617Z</time></trkpt><trkpt lat="37.0306844" lon="14.6918744"><ele>563.0</ele><time>2026-04-24T15:32:36.618Z</time></trkpt><trkpt lat="37.0307576" lon="14.6917882"><ele>556.8</ele><time>2026-04-24T15:32:38.617Z</time></trkpt><trkpt lat="37.0308215" lon="14.6917297"><ele>550.5999999999999</ele><time>2026-04-24T15:32:40.616Z</time></trkpt><trkpt lat="37.0309086" lon="14.6916762"><ele>544.4000000000001</ele><time>2026-04-24T15:32:42.619Z</time></trkpt><trkpt lat="37.0310091" lon="14.6916516"><ele>538.2</ele><time>2026-04-24T15:32:44.615Z</time></trkpt><trkpt lat="37.0310995" lon="14.6915804"><ele>532.0</ele><time>2026-04-24T15:32:46.617Z</time></trkpt><trkpt lat="37.0311944" lon="14.6915464"><ele>532.0</ele><time>2026-04-24T15:32:48.615Z</time></trkpt><trkpt lat="37.0313078" lon="14.6915068"><ele>532.0</ele><time>2026-04-24T15:32:50.617Z</time></trkpt><trkpt lat="37.031371" lon="14.6914878"><ele>532.0</ele><time>2026-04-24T15:32:51.616Z</time></trkpt><trkpt lat="37.0314723" lon="14.6914784"><ele>532.0</ele><time>2026-04-24T15:32:53.616Z</time></trkpt><trkpt lat="37.0315373" lon="14.6915491"><ele>532.0</ele><time>2026-04-24T15:32:55.617Z</time></trkpt><trkpt lat="37.0315773" lon="14.6916155"><ele>532.0</ele><time>2026-04-24T15:32:56.615Z</time></trkpt><trkpt lat="37.0316581" lon="14.6916607"><ele>528.0</ele><time>2026-04-24T15:32:58.616Z</time></trkpt><trkpt lat="37.0317345" lon="14.6915934"><ele>524.0</ele><time>2026-04-24T15:33:00.616Z</time></trkpt><trkpt lat="37.0317795" lon="14.691531"><ele>520.0</ele><time>2026-04-24T15:33:01.616Z</time></trkpt><trkpt lat="37.0318786" lon="14.6914408"><ele>516.0</ele><time>2026-04-24T15:33:03.617Z</time></trkpt><trkpt lat="37.0319444" lon="14.6913927"><ele>512.0</ele><time>2026-04-24T15:33:05.617Z</time></trkpt><trkpt lat="37.0319854" lon="14.6912667"><ele>512.0</ele><time>2026-04-24T15:33:07.617Z</time></trkpt><trkpt lat="37.0320093" lon="14.6911541"><ele>512.0</ele><time>2026-04-24T15:33:08.617Z</time></trkpt><trkpt lat="37.0320407" lon="14.6910179"><ele>512.0</ele><time>2026-04-24T15:33:09.617Z</time></trkpt><trkpt lat="37.0320825" lon="14.6908746"><ele>512.0</ele><time>2026-04-24T15:33:10.617Z</time></trkpt><trkpt lat="37.0321216" lon="14.6907317"><ele>512.0</ele><time>2026-04-24T15:33:11.616Z</time></trkpt><trkpt lat="37.0321597" lon="14.6905802"><ele>510.5</ele><time>2026-04-24T15:33:12.617Z</time></trkpt><trkpt lat="37.0321921" lon="14.6904222"><ele>509.0</ele><time>2026-04-24T15:33:13.616Z</time></trkpt><trkpt lat="37.0322219" lon="14.6902604"><ele>507.5</ele><time>2026-04-24T15:33:14.617Z</time></trkpt><trkpt lat="37.0322542" lon="14.6900984"><ele>506.0</ele><time>2026-04-24T15:33:15.616Z</time></trkpt><trkpt lat="37.0322843" lon="14.6899422"><ele>504.0</ele><time>2026-04-24T15:33:16.616Z</time></trkpt><trkpt lat="37.0323082" lon="14.6897806"><ele>502.0</ele><time>2026-04-24T15:33:17.616Z</time></trkpt><trkpt lat="37.0323275" lon="14.6896178"><ele>500.0</ele><time>2026-04-24T15:33:18.616Z</time></trkpt><trkpt lat="37.0323444" lon="14.6894484"><ele>498.0</ele><time>2026-04-24T15:33:19.616Z</time></trkpt><trkpt lat="37.0323679" lon="14.6892815"><ele>496.0</ele><time>2026-04-24T15:33:20.616Z</time></trkpt><trkpt lat="37.0323893" lon="14.6891142"><ele>494.0</ele><time>2026-04-24T15:33:21.616Z</time></trkpt><trkpt lat="37.0324027" lon="14.6889469"><ele>492.0</ele><time>2026-04-24T15:33:22.616Z</time></trkpt><trkpt lat="37.0324241" lon="14.6887785"><ele>490.0</ele><time>2026-04-24T15:33:23.616Z</time></trkpt><trkpt lat="37.0324458" lon="14.6886114"><ele>487.5</ele><time>2026-04-24T15:33:24.615Z</time></trkpt><trkpt lat="37.032461" lon="14.6884412"><ele>485.0</ele><time>2026-04-24T15:33:25.616Z</time></trkpt><trkpt lat="37.0324734" lon="14.688272"><ele>482.5</ele><time>2026-04-24T15:33:26.618Z</time></trkpt><trkpt lat="37.0324848" lon="14.6881016"><ele>480.0</ele><time>2026-04-24T15:33:27.617Z</time></trkpt><trkpt lat="37.032496" lon="14.6879296"><ele>480.0</ele><time>2026-04-24T15:33:28.617Z</time></trkpt><trkpt lat="37.0325028" lon="14.6877638"><ele>480.0</ele><time>2026-04-24T15:33:29.617Z</time></trkpt><trkpt lat="37.0325" lon="14.6875911"><ele>480.0</ele><time>2026-04-24T15:33:30.616Z</time></trkpt><trkpt lat="37.0325011" lon="14.687404"><ele>480.0</ele><time>2026-04-24T15:33:31.615Z</time></trkpt><trkpt lat="37.032512" lon="14.6872191"><ele>477.75</ele><time>2026-04-24T15:33:32.617Z</time></trkpt><trkpt lat="37.0325302" lon="14.6870394"><ele>475.5</ele><time>2026-04-24T15:33:33.616Z</time></trkpt><trkpt lat="37.032579" lon="14.686864"><ele>473.25</ele><time>2026-04-24T15:33:34.616Z</time></trkpt><trkpt lat="37.0326337" lon="14.6866952"><ele>471.0</ele><time>2026-04-24T15:33:35.616Z</time></trkpt><trkpt lat="37.032688" lon="14.6865328"><ele>468.0</ele><time>2026-04-24T15:33:36.616Z</time></trkpt><trkpt lat="37.0327305" lon="14.6863502"><ele>465.0</ele><time>2026-04-24T15:33:37.617Z</time></trkpt><trkpt lat="37.0327574" lon="14.686155"><ele>462.0</ele><time>2026-04-24T15:33:38.616Z</time></trkpt><trkpt lat="37.0327746" lon="14.6859595"><ele>460.66666666666663</ele><time>2026-04-24T15:33:39.617Z</time></trkpt><trkpt lat="37.0327937" lon="14.6857553"><ele>459.3333333333333</ele><time>2026-04-24T15:33:40.617Z</time></trkpt><trkpt lat="37.0328051" lon="14.6855459"><ele>458.0</ele><time>2026-04-24T15:33:41.617Z</time></trkpt><trkpt lat="37.0328173" lon="14.6853386"><ele>456.0</ele><time>2026-04-24T15:33:42.617Z</time></trkpt><trkpt lat="37.0328279" lon="14.6851352"><ele>454.0</ele><time>2026-04-24T15:33:43.616Z</time></trkpt><trkpt lat="37.0328418" lon="14.684926"><ele>452.0</ele><time>2026-04-24T15:33:44.616Z</time></trkpt><trkpt lat="37.0328609" lon="14.6847174"><ele>452.0</ele><time>2026-04-24T15:33:45.616Z</time></trkpt><trkpt lat="37.0328817" lon="14.6844971"><ele>452.0</ele><time>2026-04-24T15:33:46.616Z</time></trkpt><trkpt lat="37.0329022" lon="14.6842778"><ele>452.0</ele><time>2026-04-24T15:33:47.616Z</time></trkpt><trkpt lat="37.0329194" lon="14.6840549"><ele>450.3333333333333</ele><time>2026-04-24T15:33:48.616Z</time></trkpt><trkpt lat="37.0329401" lon="14.6838271"><ele>448.66666666666663</ele><time>2026-04-24T15:33:49.617Z</time></trkpt><trkpt lat="37.0329513" lon="14.6835999"><ele>447.0</ele><time>2026-04-24T15:33:50.617Z</time></trkpt><trkpt lat="37.0329733" lon="14.6833734"><ele>444.66666666666663</ele><time>2026-04-24T15:33:51.616Z</time></trkpt><trkpt lat="37.0329908" lon="14.6831574"><ele>442.3333333333333</ele><time>2026-04-24T15:33:52.617Z</time></trkpt><trkpt lat="37.0330082" lon="14.6829311"><ele>440.0</ele><time>2026-04-24T15:33:53.615Z</time></trkpt><trkpt lat="37.0330281" lon="14.6827062"><ele>438.3333333333333</ele><time>2026-04-24T15:33:54.616Z</time></trkpt><trkpt lat="37.0330429" lon="14.6824777"><ele>436.66666666666663</ele><time>2026-04-24T15:33:55.616Z</time></trkpt><trkpt lat="37.0330503" lon="14.6822584"><ele>435.0</ele><time>2026-04-24T15:33:56.616Z</time></trkpt><trkpt lat="37.0330564" lon="14.6820322"><ele>433.0</ele><time>2026-04-24T15:33:57.616Z</time></trkpt><trkpt lat="37.0330604" lon="14.6818072"><ele>431.0</ele><time>2026-04-24T15:33:58.616Z</time></trkpt><trkpt lat="37.0330678" lon="14.6815771"><ele>429.0</ele><time>2026-04-24T15:33:59.617Z</time></trkpt><trkpt lat="37.0330729" lon="14.6813591"><ele>429.0</ele><time>2026-04-24T15:34:00.616Z</time></trkpt><trkpt lat="37.0330736" lon="14.68114"><ele>429.0</ele><time>2026-04-24T15:34:01.616Z</time></trkpt><trkpt lat="37.0330734" lon="14.6809141"><ele>429.0</ele><time>2026-04-24T15:34:02.617Z</time></trkpt><trkpt lat="37.0330682" lon="14.6806866"><ele>427.66666666666663</ele><time>2026-04-24T15:34:03.616Z</time></trkpt><trkpt lat="37.0330555" lon="14.6804598"><ele>426.3333333333333</ele><time>2026-04-24T15:34:04.617Z</time></trkpt><trkpt lat="37.0330407" lon="14.6802456"><ele>425.0</ele><time>2026-04-24T15:34:05.616Z</time></trkpt><trkpt lat="37.0330254" lon="14.6800406"><ele>423.5</ele><time>2026-04-24T15:34:06.617Z</time></trkpt><trkpt lat="37.0330211" lon="14.6798465"><ele>422.0</ele><time>2026-04-24T15:34:07.616Z</time></trkpt><trkpt lat="37.0330166" lon="14.6796693"><ele>420.5</ele><time>2026-04-24T15:34:08.616Z</time></trkpt><trkpt lat="37.0330116" lon="14.6795249"><ele>419.0</ele><time>2026-04-24T15:34:09.617Z</time></trkpt><trkpt lat="37.0330046" lon="14.6794097"><ele>418.3333333333333</ele><time>2026-04-24T15:34:10.616Z</time></trkpt><trkpt lat="37.0329948" lon="14.679328"><ele>417.66666666666663</ele><time>2026-04-24T15:34:11.617Z</time></trkpt><trkpt lat="37.0329712" lon="14.679213"><ele>417.0</ele><time>2026-04-24T15:34:14.617Z</time></trkpt><trkpt lat="37.0329643" lon="14.6790678"><ele>416.33333333333337</ele><time>2026-04-24T15:34:16.616Z</time></trkpt><trkpt lat="37.0329625" lon="14.6789815"><ele>415.6666666666667</ele><time>2026-04-24T15:34:17.616Z</time></trkpt><trkpt lat="37.0329589" lon="14.6788866"><ele>415.0</ele><time>2026-04-24T15:34:18.616Z</time></trkpt><trkpt lat="37.0329569" lon="14.678782"><ele>415.0</ele><time>2026-04-24T15:34:19.616Z</time></trkpt><trkpt lat="37.0329534" lon="14.6786827"><ele>415.0</ele><time>2026-04-24T15:34:20.616Z</time></trkpt><trkpt lat="37.0329417" lon="14.6785656"><ele>415.0</ele><time>2026-04-24T15:34:21.617Z</time></trkpt><trkpt lat="37.0329215" lon="14.6784464"><ele>415.0</ele><time>2026-04-24T15:34:22.616Z</time></trkpt><trkpt lat="37.0329085" lon="14.6783203"><ele>415.0</ele><time>2026-04-24T15:34:23.617Z</time></trkpt><trkpt lat="37.0329074" lon="14.6781738"><ele>413.75</ele><time>2026-04-24T15:34:24.616Z</time></trkpt><trkpt lat="37.032902" lon="14.6780203"><ele>412.5</ele><time>2026-04-24T15:34:25.616Z</time></trkpt><trkpt lat="37.0328877" lon="14.6778532"><ele>411.25</ele><time>2026-04-24T15:34:26.617Z</time></trkpt><trkpt lat="37.0328588" lon="14.6776861"><ele>410.0</ele><time>2026-04-24T15:34:27.617Z</time></trkpt><trkpt lat="37.0328362" lon="14.677515"><ele>408.5</ele><time>2026-04-24T15:34:28.616Z</time></trkpt><trkpt lat="37.0328231" lon="14.6773398"><ele>407.0</ele><time>2026-04-24T15:34:29.616Z</time></trkpt><trkpt lat="37.0328069" lon="14.677171"><ele>405.5</ele><time>2026-04-24T15:34:30.616Z</time></trkpt><trkpt lat="37.0328082" lon="14.6769962"><ele>404.0</ele><time>2026-04-24T15:34:31.616Z</time></trkpt><trkpt lat="37.0328027" lon="14.6768204"><ele>403.25</ele><time>2026-04-24T15:34:32.617Z</time></trkpt><trkpt lat="37.0327853" lon="14.6766376"><ele>402.5</ele><time>2026-04-24T15:34:33.616Z</time></trkpt><trkpt lat="37.0327704" lon="14.676454"><ele>401.75</ele><time>2026-04-24T15:34:34.616Z</time></trkpt><trkpt lat="37.032763" lon="14.6762696"><ele>401.0</ele><time>2026-04-24T15:34:35.618Z</time></trkpt><trkpt lat="37.0327512" lon="14.6760831"><ele>400.5</ele><time>2026-04-24T15:34:36.616Z</time></trkpt><trkpt lat="37.0327367" lon="14.675894"><ele>400.0</ele><time>2026-04-24T15:34:37.617Z</time></trkpt><trkpt lat="37.0327235" lon="14.6757116"><ele>399.5</ele><time>2026-04-24T15:34:38.615Z</time></trkpt><trkpt lat="37.0327032" lon="14.6755318"><ele>399.0</ele><time>2026-04-24T15:34:39.616Z</time></trkpt><trkpt lat="37.0326871" lon="14.6753541"><ele>397.5</ele><time>2026-04-24T15:34:40.616Z</time></trkpt><trkpt lat="37.0326795" lon="14.6751665"><ele>396.0</ele><time>2026-04-24T15:34:41.617Z</time></trkpt><trkpt lat="37.0326641" lon="14.6749969"><ele>394.5</ele><time>2026-04-24T15:34:42.617Z</time></trkpt><trkpt lat="37.0326478" lon="14.6748224"><ele>393.0</ele><time>2026-04-24T15:34:43.618Z</time></trkpt><trkpt lat="37.0326445" lon="14.6746477"><ele>393.0</ele><time>2026-04-24T15:34:44.617Z</time></trkpt><trkpt lat="37.0326443" lon="14.6744651"><ele>393.0</ele><time>2026-04-24T15:34:45.616Z</time></trkpt><trkpt lat="37.0326294" lon="14.6742871"><ele>393.0</ele><time>2026-04-24T15:34:46.615Z</time></trkpt><trkpt lat="37.0326132" lon="14.6741222"><ele>393.0</ele><time>2026-04-24T15:34:47.616Z</time></trkpt><trkpt lat="37.0326109" lon="14.673946"><ele>392.0</ele><time>2026-04-24T15:34:48.617Z</time></trkpt><trkpt lat="37.0326003" lon="14.6737721"><ele>391.0</ele><time>2026-04-24T15:34:49.616Z</time></trkpt><trkpt lat="37.0325906" lon="14.6735822"><ele>390.0</ele><time>2026-04-24T15:34:50.616Z</time></trkpt><trkpt lat="37.0325822" lon="14.6733969"><ele>389.0</ele><time>2026-04-24T15:34:51.616Z</time></trkpt><trkpt lat="37.0325763" lon="14.6731991"><ele>387.66666666666663</ele><time>2026-04-24T15:34:52.616Z</time></trkpt><trkpt lat="37.0325615" lon="14.673001"><ele>386.33333333333337</ele><time>2026-04-24T15:34:53.616Z</time></trkpt><trkpt lat="37.032547" lon="14.6727953"><ele>385.0</ele><time>2026-04-24T15:34:54.615Z</time></trkpt><trkpt lat="37.0325259" lon="14.6725925"><ele>384.0</ele><time>2026-04-24T15:34:55.616Z</time></trkpt><trkpt lat="37.0325088" lon="14.6723929"><ele>383.0</ele><time>2026-04-24T15:34:56.616Z</time></trkpt><trkpt lat="37.0324913" lon="14.672195"><ele>382.0</ele><time>2026-04-24T15:34:57.616Z</time></trkpt><trkpt lat="37.0324709" lon="14.6719983"><ele>379.66666666666663</ele><time>2026-04-24T15:34:58.616Z</time></trkpt><trkpt lat="37.0324442" lon="14.6718047"><ele>377.3333333333333</ele><time>2026-04-24T15:34:59.616Z</time></trkpt><trkpt lat="37.0324239" lon="14.6716101"><ele>375.0</ele><time>2026-04-24T15:35:00.616Z</time></trkpt><trkpt lat="37.0324088" lon="14.6714214"><ele>375.0</ele><time>2026-04-24T15:35:01.616Z</time></trkpt><trkpt lat="37.0323878" lon="14.6712266"><ele>375.0</ele><time>2026-04-24T15:35:02.617Z</time></trkpt><trkpt lat="37.0323758" lon="14.6710276"><ele>375.0</ele><time>2026-04-24T15:35:03.616Z</time></trkpt><trkpt lat="37.0323663" lon="14.6708352"><ele>373.0</ele><time>2026-04-24T15:35:04.616Z</time></trkpt><trkpt lat="37.0323505" lon="14.6706345"><ele>371.0</ele><time>2026-04-24T15:35:05.616Z</time></trkpt><trkpt lat="37.0323349" lon="14.6704411"><ele>369.0</ele><time>2026-04-24T15:35:06.616Z</time></trkpt><trkpt lat="37.0323171" lon="14.670247"><ele>369.0</ele><time>2026-04-24T15:35:07.617Z</time></trkpt><trkpt lat="37.0323008" lon="14.6700429"><ele>369.0</ele><time>2026-04-24T15:35:08.616Z</time></trkpt><trkpt lat="37.0322803" lon="14.669839"><ele>369.0</ele><time>2026-04-24T15:35:09.616Z</time></trkpt><trkpt lat="37.0322602" lon="14.6696462"><ele>369.0</ele><time>2026-04-24T15:35:10.615Z</time></trkpt><trkpt lat="37.0322425" lon="14.6694714"><ele>369.0</ele><time>2026-04-24T15:35:11.616Z</time></trkpt><trkpt lat="37.0322314" lon="14.6693099"><ele>369.0</ele><time>2026-04-24T15:35:12.616Z</time></trkpt><trkpt lat="37.0322236" lon="14.6691616"><ele>369.0</ele><time>2026-04-24T15:35:13.616Z</time></trkpt><trkpt lat="37.0322283" lon="14.6690259"><ele>369.2</ele><time>2026-04-24T15:35:14.617Z</time></trkpt><trkpt lat="37.0322694" lon="14.6688934"><ele>369.4</ele><time>2026-04-24T15:35:15.616Z</time></trkpt><trkpt lat="37.0323274" lon="14.6687892"><ele>369.6</ele><time>2026-04-24T15:35:16.616Z</time></trkpt><trkpt lat="37.0323845" lon="14.6686774"><ele>369.8</ele><time>2026-04-24T15:35:17.617Z</time></trkpt><trkpt lat="37.0323985" lon="14.6685284"><ele>370.0</ele><time>2026-04-24T15:35:18.616Z</time></trkpt><trkpt lat="37.0323882" lon="14.668376"><ele>368.75</ele><time>2026-04-24T15:35:19.616Z</time></trkpt><trkpt lat="37.0323421" lon="14.6682233"><ele>367.5</ele><time>2026-04-24T15:35:20.616Z</time></trkpt><trkpt lat="37.032267" lon="14.6680739"><ele>366.25</ele><time>2026-04-24T15:35:21.617Z</time></trkpt><trkpt lat="37.0321965" lon="14.6679169"><ele>365.0</ele><time>2026-04-24T15:35:22.616Z</time></trkpt><trkpt lat="37.0321347" lon="14.6677405"><ele>363.6666666666667</ele><time>2026-04-24T15:35:23.617Z</time></trkpt><trkpt lat="37.0320897" lon="14.6675461"><ele>362.3333333333333</ele><time>2026-04-24T15:35:24.617Z</time></trkpt><trkpt lat="37.0320561" lon="14.6673469"><ele>361.0</ele><time>2026-04-24T15:35:25.616Z</time></trkpt><trkpt lat="37.032025" lon="14.6671374"><ele>360.5</ele><time>2026-04-24T15:35:26.617Z</time></trkpt><trkpt lat="37.0319937" lon="14.666936"><ele>360.0</ele><time>2026-04-24T15:35:27.617Z</time></trkpt><trkpt lat="37.0319729" lon="14.6667618"><ele>359.5</ele><time>2026-04-24T15:35:28.616Z</time></trkpt><trkpt lat="37.031971" lon="14.6666269"><ele>359.0</ele><time>2026-04-24T15:35:29.617Z</time></trkpt><trkpt lat="37.0319675" lon="14.6665098"><ele>359.0</ele><time>2026-04-24T15:35:30.615Z</time></trkpt><trkpt lat="37.0319511" lon="14.6663988"><ele>359.0</ele><time>2026-04-24T15:35:31.616Z</time></trkpt><trkpt lat="37.0319189" lon="14.6662987"><ele>359.0</ele><time>2026-04-24T15:35:32.616Z</time></trkpt><trkpt lat="37.0319018" lon="14.6662088"><ele>359.0</ele><time>2026-04-24T15:35:33.617Z</time></trkpt><trkpt lat="37.0319305" lon="14.6660993"><ele>359.0</ele><time>2026-04-24T15:35:35.617Z</time></trkpt><trkpt lat="37.0319961" lon="14.6660566"><ele>359.0</ele><time>2026-04-24T15:35:37.616Z</time></trkpt><trkpt lat="37.0320656" lon="14.6660275"><ele>358.2</ele><time>2026-04-24T15:35:39.615Z</time></trkpt><trkpt lat="37.0321523" lon="14.6659544"><ele>357.4</ele><time>2026-04-24T15:35:41.615Z</time></trkpt><trkpt lat="37.0322125" lon="14.6659135"><ele>356.6</ele><time>2026-04-24T15:35:42.616Z</time></trkpt><trkpt lat="37.0323259" lon="14.6658372"><ele>355.8</ele><time>2026-04-24T15:35:44.618Z</time></trkpt><trkpt lat="37.0323864" lon="14.6658011"><ele>355.0</ele><time>2026-04-24T15:35:45.616Z</time></trkpt><trkpt lat="37.032463" lon="14.6657536"><ele>355.0</ele><time>2026-04-24T15:35:46.615Z</time></trkpt><trkpt lat="37.0325383" lon="14.6657102"><ele>355.0</ele><time>2026-04-24T15:35:47.617Z</time></trkpt><trkpt lat="37.0326206" lon="14.665672"><ele>355.0</ele><time>2026-04-24T15:35:48.616Z</time></trkpt><trkpt lat="37.0327167" lon="14.6656406"><ele>355.0</ele><time>2026-04-24T15:35:49.616Z</time></trkpt><trkpt lat="37.0328137" lon="14.6656172"><ele>355.0</ele><time>2026-04-24T15:35:50.616Z</time></trkpt><trkpt lat="37.0329101" lon="14.6655861"><ele>355.0</ele><time>2026-04-24T15:35:51.616Z</time></trkpt><trkpt lat="37.0330096" lon="14.6655502"><ele>355.0</ele><time>2026-04-24T15:35:52.616Z</time></trkpt><trkpt lat="37.033116" lon="14.6655074"><ele>355.0</ele><time>2026-04-24T15:35:53.616Z</time></trkpt><trkpt lat="37.0332208" lon="14.6654646"><ele>355.0</ele><time>2026-04-24T15:35:54.616Z</time></trkpt><trkpt lat="37.0333367" lon="14.6654223"><ele>355.0</ele><time>2026-04-24T15:35:55.617Z</time></trkpt><trkpt lat="37.0334433" lon="14.6653735"><ele>355.0</ele><time>2026-04-24T15:35:56.616Z</time></trkpt><trkpt lat="37.0335466" lon="14.6653085"><ele>355.0</ele><time>2026-04-24T15:35:57.616Z</time></trkpt><trkpt lat="37.0336532" lon="14.6652363"><ele>355.0</ele><time>2026-04-24T15:35:58.617Z</time></trkpt><trkpt lat="37.0337574" lon="14.6651567"><ele>355.0</ele><time>2026-04-24T15:35:59.616Z</time></trkpt><trkpt lat="37.0338606" lon="14.6650783"><ele>354.0</ele><time>2026-04-24T15:36:00.617Z</time></trkpt><trkpt lat="37.0339629" lon="14.6650044"><ele>353.0</ele><time>2026-04-24T15:36:01.615Z</time></trkpt><trkpt lat="37.0340584" lon="14.6649179"><ele>352.0</ele><time>2026-04-24T15:36:02.616Z</time></trkpt><trkpt lat="37.0341519" lon="14.6648221"><ele>351.0</ele><time>2026-04-24T15:36:03.615Z</time></trkpt><trkpt lat="37.0342484" lon="14.664725"><ele>351.0</ele><time>2026-04-24T15:36:04.616Z</time></trkpt><trkpt lat="37.0343515" lon="14.6646338"><ele>351.0</ele><time>2026-04-24T15:36:05.616Z</time></trkpt><trkpt lat="37.0344559" lon="14.6645485"><ele>351.0</ele><time>2026-04-24T15:36:06.617Z</time></trkpt><trkpt lat="37.0345613" lon="14.6644586"><ele>351.0</ele><time>2026-04-24T15:36:07.616Z</time></trkpt><trkpt lat="37.034662" lon="14.6643737"><ele>349.75</ele><time>2026-04-24T15:36:08.618Z</time></trkpt><trkpt lat="37.0347583" lon="14.6642732"><ele>348.5</ele><time>2026-04-24T15:36:09.616Z</time></trkpt><trkpt lat="37.0348464" lon="14.6641764"><ele>347.25</ele><time>2026-04-24T15:36:10.617Z</time></trkpt><trkpt lat="37.0349308" lon="14.6640806"><ele>346.0</ele><time>2026-04-24T15:36:11.616Z</time></trkpt><trkpt lat="37.0350044" lon="14.663975"><ele>346.0</ele><time>2026-04-24T15:36:12.616Z</time></trkpt><trkpt lat="37.0350578" lon="14.6638492"><ele>346.0</ele><time>2026-04-24T15:36:13.615Z</time></trkpt><trkpt lat="37.0350924" lon="14.6637167"><ele>346.0</ele><time>2026-04-24T15:36:14.616Z</time></trkpt><trkpt lat="37.035112" lon="14.6635737"><ele>346.0</ele><time>2026-04-24T15:36:15.617Z</time></trkpt><trkpt lat="37.0351236" lon="14.6634228"><ele>345.0</ele><time>2026-04-24T15:36:16.618Z</time></trkpt><trkpt lat="37.0351215" lon="14.6632627"><ele>344.0</ele><time>2026-04-24T15:36:17.615Z</time></trkpt><trkpt lat="37.0351246" lon="14.6630998"><ele>343.0</ele><time>2026-04-24T15:36:18.616Z</time></trkpt><trkpt lat="37.0351295" lon="14.6629299"><ele>342.0</ele><time>2026-04-24T15:36:19.617Z</time></trkpt><trkpt lat="37.0351361" lon="14.6627614"><ele>341.25</ele><time>2026-04-24T15:36:20.616Z</time></trkpt><trkpt lat="37.0351528" lon="14.6625963"><ele>340.5</ele><time>2026-04-24T15:36:21.616Z</time></trkpt><trkpt lat="37.0351734" lon="14.6624301"><ele>339.75</ele><time>2026-04-24T15:36:22.617Z</time></trkpt><trkpt lat="37.0351966" lon="14.6622654"><ele>339.0</ele><time>2026-04-24T15:36:23.616Z</time></trkpt><trkpt lat="37.0352171" lon="14.662108"><ele>339.0</ele><time>2026-04-24T15:36:24.617Z</time></trkpt><trkpt lat="37.0352245" lon="14.66195"><ele>339.0</ele><time>2026-04-24T15:36:25.615Z</time></trkpt><trkpt lat="37.0352294" lon="14.6618054"><ele>339.0</ele><time>2026-04-24T15:36:26.616Z</time></trkpt><trkpt lat="37.0352422" lon="14.6616596"><ele>339.0</ele><time>2026-04-24T15:36:27.616Z</time></trkpt><trkpt lat="37.0352461" lon="14.661525"><ele>338.6666666666667</ele><time>2026-04-24T15:36:28.618Z</time></trkpt><trkpt lat="37.0352517" lon="14.6613983"><ele>338.3333333333333</ele><time>2026-04-24T15:36:29.616Z</time></trkpt><trkpt lat="37.0352561" lon="14.661278"><ele>338.0</ele><time>2026-04-24T15:36:30.617Z</time></trkpt><trkpt lat="37.0352571" lon="14.6611658"><ele>337.66666666666663</ele><time>2026-04-24T15:36:31.616Z</time></trkpt><trkpt lat="37.0352481" lon="14.6610622"><ele>337.3333333333333</ele><time>2026-04-24T15:36:32.617Z</time></trkpt><trkpt lat="37.0352235" lon="14.6609706"><ele>337.0</ele><time>2026-04-24T15:36:33.615Z</time></trkpt><trkpt lat="37.0351935" lon="14.6608859"><ele>336.8333333333333</ele><time>2026-04-24T15:36:34.616Z</time></trkpt><trkpt lat="37.0351946" lon="14.6607904"><ele>336.66666666666663</ele><time>2026-04-24T15:36:36.615Z</time></trkpt><trkpt lat="37.0352599" lon="14.6607558"><ele>336.5</ele><time>2026-04-24T15:36:38.617Z</time></trkpt><trkpt lat="37.0353277" lon="14.6607402"><ele>336.3333333333333</ele><time>2026-04-24T15:36:40.617Z</time></trkpt><trkpt lat="37.0354003" lon="14.6606397"><ele>336.1666666666667</ele><time>2026-04-24T15:36:43.617Z</time></trkpt><trkpt lat="37.0354153" lon="14.6605501"><ele>336.0</ele><time>2026-04-24T15:36:44.617Z</time></trkpt><trkpt lat="37.0354338" lon="14.6604314"><ele>336.0</ele><time>2026-04-24T15:36:45.615Z</time></trkpt><trkpt lat="37.0354423" lon="14.6602968"><ele>336.0</ele><time>2026-04-24T15:36:46.615Z</time></trkpt><trkpt lat="37.0354546" lon="14.6601487"><ele>336.0</ele><time>2026-04-24T15:36:47.615Z</time></trkpt><trkpt lat="37.0354708" lon="14.6599865"><ele>336.0</ele><time>2026-04-24T15:36:48.615Z</time></trkpt><trkpt lat="37.035483" lon="14.6598121"><ele>335.0</ele><time>2026-04-24T15:36:49.616Z</time></trkpt><trkpt lat="37.0355016" lon="14.6596234"><ele>334.0</ele><time>2026-04-24T15:36:50.618Z</time></trkpt><trkpt lat="37.0355258" lon="14.6594293"><ele>333.0</ele><time>2026-04-24T15:36:51.616Z</time></trkpt><trkpt lat="37.0355387" lon="14.6592264"><ele>332.25</ele><time>2026-04-24T15:36:52.616Z</time></trkpt><trkpt lat="37.0355469" lon="14.6590362"><ele>331.5</ele><time>2026-04-24T15:36:53.616Z</time></trkpt><trkpt lat="37.0355438" lon="14.6588517"><ele>330.75</ele><time>2026-04-24T15:36:54.617Z</time></trkpt><trkpt lat="37.0355336" lon="14.658684"><ele>330.0</ele><time>2026-04-24T15:36:55.616Z</time></trkpt><trkpt lat="37.0355191" lon="14.6585279"><ele>329.6</ele><time>2026-04-24T15:36:56.617Z</time></trkpt><trkpt lat="37.0355217" lon="14.6583858"><ele>329.2</ele><time>2026-04-24T15:36:57.616Z</time></trkpt><trkpt lat="37.0355439" lon="14.6582696"><ele>328.79999999999995</ele><time>2026-04-24T15:36:58.617Z</time></trkpt><trkpt lat="37.0355804" lon="14.6581717"><ele>328.4</ele><time>2026-04-24T15:36:59.615Z</time></trkpt><trkpt lat="37.0356467" lon="14.6580833"><ele>328.0</ele><time>2026-04-24T15:37:00.617Z</time></trkpt><trkpt lat="37.035729" lon="14.6580052"><ele>328.2</ele><time>2026-04-24T15:37:01.617Z</time></trkpt><trkpt lat="37.0358235" lon="14.6579412"><ele>328.4</ele><time>2026-04-24T15:37:02.616Z</time></trkpt><trkpt lat="37.0359083" lon="14.6579442"><ele>328.59999999999997</ele><time>2026-04-24T15:37:03.617Z</time></trkpt><trkpt lat="37.0359801" lon="14.6579854"><ele>328.79999999999995</ele><time>2026-04-24T15:37:04.615Z</time></trkpt><trkpt lat="37.0360415" lon="14.6580776"><ele>329.0</ele><time>2026-04-24T15:37:05.616Z</time></trkpt><trkpt lat="37.0361194" lon="14.6581825"><ele>329.0</ele><time>2026-04-24T15:37:06.616Z</time></trkpt><trkpt lat="37.036207" lon="14.658299"><ele>329.0</ele><time>2026-04-24T15:37:07.617Z</time></trkpt><trkpt lat="37.0362958" lon="14.6584294"><ele>329.0</ele><time>2026-04-24T15:37:08.615Z</time></trkpt><trkpt lat="37.0363921" lon="14.6585666"><ele>329.0</ele><time>2026-04-24T15:37:09.616Z</time></trkpt><trkpt lat="37.036499" lon="14.658709"><ele>329.33333333333337</ele><time>2026-04-24T15:37:10.616Z</time></trkpt><trkpt lat="37.0366109" lon="14.6588608"><ele>329.6666666666667</ele><time>2026-04-24T15:37:11.617Z</time></trkpt><trkpt lat="37.0367255" lon="14.6590142"><ele>330.0</ele><time>2026-04-24T15:37:12.617Z</time></trkpt><trkpt lat="37.0368391" lon="14.6591663"><ele>331.0</ele><time>2026-04-24T15:37:13.616Z</time></trkpt><trkpt lat="37.0369631" lon="14.6593112"><ele>332.0</ele><time>2026-04-24T15:37:14.617Z</time></trkpt><trkpt lat="37.0370962" lon="14.6594415"><ele>333.0</ele><time>2026-04-24T15:37:15.617Z</time></trkpt><trkpt lat="37.0372355" lon="14.6595652"><ele>333.0</ele><time>2026-04-24T15:37:16.615Z</time></trkpt><trkpt lat="37.0373786" lon="14.6596852"><ele>333.0</ele><time>2026-04-24T15:37:17.615Z</time></trkpt><trkpt lat="37.0375257" lon="14.6598039"><ele>333.0</ele><time>2026-04-24T15:37:18.616Z</time></trkpt><trkpt lat="37.0376718" lon="14.6599111"><ele>334.0</ele><time>2026-04-24T15:37:19.615Z</time></trkpt><trkpt lat="37.0378052" lon="14.6600212"><ele>335.0</ele><time>2026-04-24T15:37:20.616Z</time></trkpt><trkpt lat="37.0379357" lon="14.6601267"><ele>336.0</ele><time>2026-04-24T15:37:21.616Z</time></trkpt><trkpt lat="37.0380274" lon="14.6602675"><ele>335.75</ele><time>2026-04-24T15:37:22.617Z</time></trkpt><trkpt lat="37.0381239" lon="14.6604095"><ele>335.5</ele><time>2026-04-24T15:37:23.615Z</time></trkpt><trkpt lat="37.0382043" lon="14.6605634"><ele>335.25</ele><time>2026-04-24T15:37:24.616Z</time></trkpt><trkpt lat="37.0382667" lon="14.6607362"><ele>335.0</ele><time>2026-04-24T15:37:25.615Z</time></trkpt><trkpt lat="37.0383307" lon="14.6609181"><ele>334.6666666666667</ele><time>2026-04-24T15:37:26.615Z</time></trkpt><trkpt lat="37.0384012" lon="14.6611076"><ele>334.3333333333333</ele><time>2026-04-24T15:37:27.617Z</time></trkpt><trkpt lat="37.0384825" lon="14.6612968"><ele>334.0</ele><time>2026-04-24T15:37:28.616Z</time></trkpt><trkpt lat="37.0385787" lon="14.6614804"><ele>335.0</ele><time>2026-04-24T15:37:29.616Z</time></trkpt><trkpt lat="37.0386771" lon="14.6616677"><ele>336.0</ele><time>2026-04-24T15:37:30.616Z</time></trkpt><trkpt lat="37.0387783" lon="14.6618539"><ele>337.0</ele><time>2026-04-24T15:37:31.616Z</time></trkpt><trkpt lat="37.0388804" lon="14.6620323"><ele>337.3333333333333</ele><time>2026-04-24T15:37:32.616Z</time></trkpt><trkpt lat="37.0389813" lon="14.6622052"><ele>337.6666666666667</ele><time>2026-04-24T15:37:33.615Z</time></trkpt><trkpt lat="37.0390746" lon="14.6623681"><ele>338.0</ele><time>2026-04-24T15:37:34.616Z</time></trkpt><trkpt lat="37.0391624" lon="14.6625306"><ele>337.0</ele><time>2026-04-24T15:37:35.616Z</time></trkpt><trkpt lat="37.0392422" lon="14.6626901"><ele>336.0</ele><time>2026-04-24T15:37:36.617Z</time></trkpt><trkpt lat="37.0393083" lon="14.6628453"><ele>335.0</ele><time>2026-04-24T15:37:37.616Z</time></trkpt><trkpt lat="37.039359" lon="14.6629834"><ele>334.0</ele><time>2026-04-24T15:37:38.617Z</time></trkpt><trkpt lat="37.03941" lon="14.6630871"><ele>334.0</ele><time>2026-04-24T15:37:39.616Z</time></trkpt><trkpt lat="37.0394592" lon="14.6631505"><ele>334.0</ele><time>2026-04-24T15:37:40.616Z</time></trkpt><trkpt lat="37.0395621" lon="14.6631433"><ele>334.0</ele><time>2026-04-24T15:37:42.616Z</time></trkpt><trkpt lat="37.0396071" lon="14.6630849"><ele>334.0</ele><time>2026-04-24T15:37:43.616Z</time></trkpt><trkpt lat="37.0396539" lon="14.6629869"><ele>334.0</ele><time>2026-04-24T15:37:44.616Z</time></trkpt><trkpt lat="37.0396987" lon="14.6628777"><ele>334.0</ele><time>2026-04-24T15:37:45.617Z</time></trkpt><trkpt lat="37.0397611" lon="14.6627591"><ele>333.5</ele><time>2026-04-24T15:37:46.617Z</time></trkpt><trkpt lat="37.0398336" lon="14.6626519"><ele>333.0</ele><time>2026-04-24T15:37:47.616Z</time></trkpt><trkpt lat="37.0398988" lon="14.6625713"><ele>332.5</ele><time>2026-04-24T15:37:48.618Z</time></trkpt><trkpt lat="37.0399516" lon="14.6625223"><ele>332.0</ele><time>2026-04-24T15:37:49.617Z</time></trkpt><trkpt lat="37.0400165" lon="14.6624756"><ele>331.5</ele><time>2026-04-24T15:37:51.618Z</time></trkpt><trkpt lat="37.0400896" lon="14.6624376"><ele>331.0</ele><time>2026-04-24T15:37:53.616Z</time></trkpt><trkpt lat="37.0402088" lon="14.6623938"><ele>330.3333333333333</ele><time>2026-04-24T15:37:55.616Z</time></trkpt><trkpt lat="37.0402751" lon="14.6623641"><ele>329.66666666666663</ele><time>2026-04-24T15:37:56.616Z</time></trkpt><trkpt lat="37.0403516" lon="14.6623378"><ele>329.0</ele><time>2026-04-24T15:37:57.617Z</time></trkpt><trkpt lat="37.0404349" lon="14.6623003"><ele>328.3333333333333</ele><time>2026-04-24T15:37:58.617Z</time></trkpt><trkpt lat="37.0405345" lon="14.6622749"><ele>327.6666666666667</ele><time>2026-04-24T15:37:59.615Z</time></trkpt><trkpt lat="37.0406427" lon="14.6622746"><ele>327.0</ele><time>2026-04-24T15:38:00.617Z</time></trkpt><trkpt lat="37.0407473" lon="14.6623015"><ele>328.5</ele><time>2026-04-24T15:38:01.616Z</time></trkpt><trkpt lat="37.0408571" lon="14.6623629"><ele>330.0</ele><time>2026-04-24T15:38:02.616Z</time></trkpt><trkpt lat="37.040976" lon="14.6624371"><ele>331.5</ele><time>2026-04-24T15:38:03.617Z</time></trkpt><trkpt lat="37.0410912" lon="14.6625295"><ele>333.0</ele><time>2026-04-24T15:38:04.616Z</time></trkpt><trkpt lat="37.0412029" lon="14.6626381"><ele>333.0</ele><time>2026-04-24T15:38:05.618Z</time></trkpt><trkpt lat="37.0413125" lon="14.662757"><ele>333.0</ele><time>2026-04-24T15:38:06.616Z</time></trkpt><trkpt lat="37.0414234" lon="14.6628729"><ele>333.0</ele><time>2026-04-24T15:38:07.616Z</time></trkpt><trkpt lat="37.0415362" lon="14.6629965"><ele>333.0</ele><time>2026-04-24T15:38:08.617Z</time></trkpt><trkpt lat="37.0416453" lon="14.6631127"><ele>334.6666666666667</ele><time>2026-04-24T15:38:09.615Z</time></trkpt><trkpt lat="37.0417533" lon="14.663236"><ele>336.33333333333337</ele><time>2026-04-24T15:38:10.616Z</time></trkpt><trkpt lat="37.0418712" lon="14.6633642"><ele>338.0</ele><time>2026-04-24T15:38:11.617Z</time></trkpt><trkpt lat="37.0419854" lon="14.6634916"><ele>337.0</ele><time>2026-04-24T15:38:12.616Z</time></trkpt><trkpt lat="37.0421071" lon="14.6636218"><ele>336.0</ele><time>2026-04-24T15:38:13.616Z</time></trkpt><trkpt lat="37.0422256" lon="14.6637612"><ele>335.0</ele><time>2026-04-24T15:38:14.615Z</time></trkpt><trkpt lat="37.0423441" lon="14.6638989"><ele>335.0</ele><time>2026-04-24T15:38:15.617Z</time></trkpt><trkpt lat="37.0424615" lon="14.6640466"><ele>335.0</ele><time>2026-04-24T15:38:16.616Z</time></trkpt><trkpt lat="37.0425604" lon="14.6642063"><ele>335.0</ele><time>2026-04-24T15:38:17.616Z</time></trkpt><trkpt lat="37.0426462" lon="14.6643703"><ele>338.6666666666667</ele><time>2026-04-24T15:38:18.615Z</time></trkpt><trkpt lat="37.0427291" lon="14.6645407"><ele>342.3333333333333</ele><time>2026-04-24T15:38:19.616Z</time></trkpt><trkpt lat="37.0428267" lon="14.6646795"><ele>346.0</ele><time>2026-04-24T15:38:20.617Z</time></trkpt><trkpt lat="37.0429396" lon="14.6647887"><ele>346.0</ele><time>2026-04-24T15:38:21.617Z</time></trkpt><trkpt lat="37.0430551" lon="14.6648844"><ele>346.0</ele><time>2026-04-24T15:38:22.616Z</time></trkpt><trkpt lat="37.0432083" lon="14.6649526"><ele>346.0</ele><time>2026-04-24T15:38:23.617Z</time></trkpt><trkpt lat="37.0433544" lon="14.6650294"><ele>348.66666666666663</ele><time>2026-04-24T15:38:24.617Z</time></trkpt><trkpt lat="37.0435049" lon="14.6651093"><ele>351.3333333333333</ele><time>2026-04-24T15:38:25.616Z</time></trkpt><trkpt lat="37.0436466" lon="14.6651843"><ele>354.0</ele><time>2026-04-24T15:38:26.616Z</time></trkpt><trkpt lat="37.0437736" lon="14.6652463"><ele>354.25</ele><time>2026-04-24T15:38:27.616Z</time></trkpt><trkpt lat="37.0438919" lon="14.665282"><ele>354.5</ele><time>2026-04-24T15:38:28.617Z</time></trkpt><trkpt lat="37.0440194" lon="14.665289"><ele>354.75</ele><time>2026-04-24T15:38:29.616Z</time></trkpt><trkpt lat="37.0441556" lon="14.6652802"><ele>355.0</ele><time>2026-04-24T15:38:30.616Z</time></trkpt><trkpt lat="37.0442958" lon="14.6652556"><ele>356.0</ele><time>2026-04-24T15:38:31.615Z</time></trkpt><trkpt lat="37.0444492" lon="14.6652228"><ele>357.0</ele><time>2026-04-24T15:38:32.616Z</time></trkpt><trkpt lat="37.0445991" lon="14.6651615"><ele>358.0</ele><time>2026-04-24T15:38:33.617Z</time></trkpt><trkpt lat="37.0447494" lon="14.6650969"><ele>358.0</ele><time>2026-04-24T15:38:34.616Z</time></trkpt><trkpt lat="37.0449018" lon="14.6650322"><ele>358.0</ele><time>2026-04-24T15:38:35.616Z</time></trkpt><trkpt lat="37.0450411" lon="14.664984"><ele>358.0</ele><time>2026-04-24T15:38:36.616Z</time></trkpt><trkpt lat="37.0451839" lon="14.6649653"><ele>358.0</ele><time>2026-04-24T15:38:37.616Z</time></trkpt><trkpt lat="37.0453195" lon="14.6649721"><ele>359.0</ele><time>2026-04-24T15:38:38.616Z</time></trkpt><trkpt lat="37.0454564" lon="14.6649953"><ele>360.0</ele><time>2026-04-24T15:38:39.616Z</time></trkpt><trkpt lat="37.045553" lon="14.6650943"><ele>361.0</ele><time>2026-04-24T15:38:40.616Z</time></trkpt><trkpt lat="37.0456469" lon="14.6651969"><ele>362.0</ele><time>2026-04-24T15:38:41.618Z</time></trkpt><trkpt lat="37.0457463" lon="14.6653246"><ele>363.33333333333337</ele><time>2026-04-24T15:38:42.617Z</time></trkpt><trkpt lat="37.0458634" lon="14.6654578"><ele>364.6666666666667</ele><time>2026-04-24T15:38:43.616Z</time></trkpt><trkpt lat="37.0459723" lon="14.6656039"><ele>366.0</ele><time>2026-04-24T15:38:44.615Z</time></trkpt><trkpt lat="37.0460946" lon="14.665746"><ele>366.0</ele><time>2026-04-24T15:38:45.618Z</time></trkpt><trkpt lat="37.0462268" lon="14.6658714"><ele>366.0</ele><time>2026-04-24T15:38:46.617Z</time></trkpt><trkpt lat="37.0463719" lon="14.6659621"><ele>366.0</ele><time>2026-04-24T15:38:47.616Z</time></trkpt><trkpt lat="37.0465195" lon="14.6660514"><ele>368.0</ele><time>2026-04-24T15:38:48.617Z</time></trkpt><trkpt lat="37.0466836" lon="14.6661319"><ele>370.0</ele><time>2026-04-24T15:38:49.617Z</time></trkpt><trkpt lat="37.0468503" lon="14.6662088"><ele>372.0</ele><time>2026-04-24T15:38:50.616Z</time></trkpt><trkpt lat="37.0470204" lon="14.6662804"><ele>372.0</ele><time>2026-04-24T15:38:51.616Z</time></trkpt><trkpt lat="37.0471929" lon="14.6663533"><ele>372.0</ele><time>2026-04-24T15:38:52.616Z</time></trkpt><trkpt lat="37.0473585" lon="14.6664258"><ele>372.0</ele><time>2026-04-24T15:38:53.616Z</time></trkpt><trkpt lat="37.0475358" lon="14.666488"><ele>372.3333333333333</ele><time>2026-04-24T15:38:54.616Z</time></trkpt><trkpt lat="37.0477111" lon="14.6665541"><ele>372.66666666666663</ele><time>2026-04-24T15:38:55.616Z</time></trkpt><trkpt lat="37.0478731" lon="14.6666265"><ele>373.0</ele><time>2026-04-24T15:38:56.616Z</time></trkpt><trkpt lat="37.0480322" lon="14.6666924"><ele>373.0</ele><time>2026-04-24T15:38:57.621Z</time></trkpt><trkpt lat="37.0481751" lon="14.6667717"><ele>373.0</ele><time>2026-04-24T15:38:58.615Z</time></trkpt><trkpt lat="37.0483121" lon="14.6668543"><ele>373.0</ele><time>2026-04-24T15:38:59.616Z</time></trkpt><trkpt lat="37.048444" lon="14.6669449"><ele>374.66666666666663</ele><time>2026-04-24T15:39:00.616Z</time></trkpt><trkpt lat="37.0485871" lon="14.6670338"><ele>376.3333333333333</ele><time>2026-04-24T15:39:01.617Z</time></trkpt><trkpt lat="37.0487343" lon="14.6671281"><ele>378.0</ele><time>2026-04-24T15:39:02.616Z</time></trkpt><trkpt lat="37.0488863" lon="14.6672259"><ele>378.0</ele><time>2026-04-24T15:39:03.616Z</time></trkpt><trkpt lat="37.0490373" lon="14.6673351"><ele>378.0</ele><time>2026-04-24T15:39:04.616Z</time></trkpt><trkpt lat="37.0491819" lon="14.6674569"><ele>378.0</ele><time>2026-04-24T15:39:05.616Z</time></trkpt><trkpt lat="37.0493292" lon="14.6675767"><ele>378.3333333333333</ele><time>2026-04-24T15:39:06.617Z</time></trkpt><trkpt lat="37.0494707" lon="14.6677078"><ele>378.66666666666663</ele><time>2026-04-24T15:39:07.616Z</time></trkpt><trkpt lat="37.0496104" lon="14.6678401"><ele>379.0</ele><time>2026-04-24T15:39:08.616Z</time></trkpt><trkpt lat="37.0497442" lon="14.6679888"><ele>379.3333333333333</ele><time>2026-04-24T15:39:09.617Z</time></trkpt><trkpt lat="37.0498682" lon="14.6681426"><ele>379.6666666666667</ele><time>2026-04-24T15:39:10.618Z</time></trkpt><trkpt lat="37.049999" lon="14.6683025"><ele>380.0</ele><time>2026-04-24T15:39:11.617Z</time></trkpt><trkpt lat="37.0501193" lon="14.6684659"><ele>381.0</ele><time>2026-04-24T15:39:12.616Z</time></trkpt><trkpt lat="37.05024" lon="14.6686322"><ele>382.0</ele><time>2026-04-24T15:39:13.616Z</time></trkpt><trkpt lat="37.0503453" lon="14.668817"><ele>383.0</ele><time>2026-04-24T15:39:14.616Z</time></trkpt><trkpt lat="37.0504436" lon="14.6690062"><ele>383.0</ele><time>2026-04-24T15:39:15.615Z</time></trkpt><trkpt lat="37.0505456" lon="14.6691904"><ele>383.0</ele><time>2026-04-24T15:39:16.617Z</time></trkpt><trkpt lat="37.0506563" lon="14.669366"><ele>383.0</ele><time>2026-04-24T15:39:17.615Z</time></trkpt><trkpt lat="37.050788" lon="14.669516"><ele>384.33333333333337</ele><time>2026-04-24T15:39:18.616Z</time></trkpt><trkpt lat="37.0509219" lon="14.6696654"><ele>385.6666666666667</ele><time>2026-04-24T15:39:19.615Z</time></trkpt><trkpt lat="37.0510676" lon="14.6697929"><ele>387.0</ele><time>2026-04-24T15:39:20.616Z</time></trkpt><trkpt lat="37.0512266" lon="14.6699011"><ele>387.0</ele><time>2026-04-24T15:39:21.617Z</time></trkpt><trkpt lat="37.0513871" lon="14.6699971"><ele>387.0</ele><time>2026-04-24T15:39:22.616Z</time></trkpt><trkpt lat="37.051544" lon="14.6700924"><ele>387.0</ele><time>2026-04-24T15:39:23.616Z</time></trkpt><trkpt lat="37.0517049" lon="14.6701875"><ele>387.66666666666663</ele><time>2026-04-24T15:39:24.616Z</time></trkpt><trkpt lat="37.0518621" lon="14.6702803"><ele>388.3333333333333</ele><time>2026-04-24T15:39:25.616Z</time></trkpt><trkpt lat="37.0520173" lon="14.6703531"><ele>389.0</ele><time>2026-04-24T15:39:26.616Z</time></trkpt><trkpt lat="37.0521677" lon="14.6704049"><ele>389.0</ele><time>2026-04-24T15:39:27.616Z</time></trkpt><trkpt lat="37.0523273" lon="14.6704354"><ele>389.0</ele><time>2026-04-24T15:39:28.616Z</time></trkpt><trkpt lat="37.0524899" lon="14.6704527"><ele>389.0</ele><time>2026-04-24T15:39:29.616Z</time></trkpt><trkpt lat="37.0526595" lon="14.6704589"><ele>389.0</ele><time>2026-04-24T15:39:30.616Z</time></trkpt><trkpt lat="37.052827" lon="14.6704671"><ele>389.0</ele><time>2026-04-24T15:39:31.617Z</time></trkpt><trkpt lat="37.0529616" lon="14.6704689"><ele>389.0</ele><time>2026-04-24T15:39:32.617Z</time></trkpt><trkpt lat="37.0530665" lon="14.6704763"><ele>389.0</ele><time>2026-04-24T15:39:33.616Z</time></trkpt><trkpt lat="37.0531412" lon="14.6704732"><ele>389.0</ele><time>2026-04-24T15:39:34.616Z</time></trkpt><trkpt lat="37.0532216" lon="14.6704723"><ele>389.0</ele><time>2026-04-24T15:39:35.617Z</time></trkpt><trkpt lat="37.0533152" lon="14.6704737"><ele>389.0</ele><time>2026-04-24T15:39:36.617Z</time></trkpt><trkpt lat="37.053432" lon="14.670466"><ele>389.0</ele><time>2026-04-24T15:39:37.617Z</time></trkpt><trkpt lat="37.0535684" lon="14.6704565"><ele>389.0</ele><time>2026-04-24T15:39:38.617Z</time></trkpt><trkpt lat="37.0537099" lon="14.670446"><ele>390.0</ele><time>2026-04-24T15:39:39.616Z</time></trkpt><trkpt lat="37.0538736" lon="14.670434"><ele>391.0</ele><time>2026-04-24T15:39:40.617Z</time></trkpt><trkpt lat="37.0540407" lon="14.6704193"><ele>392.0</ele><time>2026-04-24T15:39:41.616Z</time></trkpt><trkpt lat="37.0542076" lon="14.6703847"><ele>392.0</ele><time>2026-04-24T15:39:42.616Z</time></trkpt><trkpt lat="37.0543732" lon="14.6703356"><ele>392.0</ele><time>2026-04-24T15:39:43.616Z</time></trkpt><trkpt lat="37.0545356" lon="14.6702635"><ele>392.0</ele><time>2026-04-24T15:39:44.616Z</time></trkpt><trkpt lat="37.0546949" lon="14.6701692"><ele>392.0</ele><time>2026-04-24T15:39:45.616Z</time></trkpt><trkpt lat="37.0548525" lon="14.6700682"><ele>392.0</ele><time>2026-04-24T15:39:46.617Z</time></trkpt><trkpt lat="37.055007" lon="14.669955"><ele>392.0</ele><time>2026-04-24T15:39:47.616Z</time></trkpt><trkpt lat="37.0551629" lon="14.6698348"><ele>392.66666666666663</ele><time>2026-04-24T15:39:48.617Z</time></trkpt><trkpt lat="37.0553234" lon="14.6697152"><ele>393.33333333333337</ele><time>2026-04-24T15:39:49.617Z</time></trkpt><trkpt lat="37.0554834" lon="14.669591"><ele>394.0</ele><time>2026-04-24T15:39:50.616Z</time></trkpt><trkpt lat="37.0556372" lon="14.6694695"><ele>393.6666666666667</ele><time>2026-04-24T15:39:51.617Z</time></trkpt><trkpt lat="37.05579" lon="14.6693395"><ele>393.33333333333337</ele><time>2026-04-24T15:39:52.616Z</time></trkpt><trkpt lat="37.0559308" lon="14.6692059"><ele>393.0</ele><time>2026-04-24T15:39:53.617Z</time></trkpt><trkpt lat="37.0560694" lon="14.6690578"><ele>393.0</ele><time>2026-04-24T15:39:54.616Z</time></trkpt><trkpt lat="37.0562076" lon="14.6689031"><ele>393.0</ele><time>2026-04-24T15:39:55.616Z</time></trkpt><trkpt lat="37.0563447" lon="14.6687483"><ele>393.0</ele><time>2026-04-24T15:39:56.615Z</time></trkpt><trkpt lat="37.05648" lon="14.6685958"><ele>392.66666666666663</ele><time>2026-04-24T15:39:57.616Z</time></trkpt><trkpt lat="37.0566173" lon="14.6684433"><ele>392.3333333333333</ele><time>2026-04-24T15:39:58.616Z</time></trkpt><trkpt lat="37.0567554" lon="14.6682872"><ele>392.0</ele><time>2026-04-24T15:39:59.616Z</time></trkpt><trkpt lat="37.0568912" lon="14.6681284"><ele>392.0</ele><time>2026-04-24T15:40:00.616Z</time></trkpt><trkpt lat="37.057011" lon="14.6679794"><ele>392.0</ele><time>2026-04-24T15:40:01.615Z</time></trkpt><trkpt lat="37.0571382" lon="14.6678345"><ele>392.0</ele><time>2026-04-24T15:40:02.616Z</time></trkpt><trkpt lat="37.0572648" lon="14.6676933"><ele>392.0</ele><time>2026-04-24T15:40:03.616Z</time></trkpt><trkpt lat="37.0573952" lon="14.6675494"><ele>392.0</ele><time>2026-04-24T15:40:04.616Z</time></trkpt><trkpt lat="37.0575261" lon="14.6674037"><ele>392.0</ele><time>2026-04-24T15:40:05.616Z</time></trkpt><trkpt lat="37.0576585" lon="14.6672517"><ele>392.0</ele><time>2026-04-24T15:40:06.617Z</time></trkpt><trkpt lat="37.0578022" lon="14.6670992"><ele>392.0</ele><time>2026-04-24T15:40:07.616Z</time></trkpt><trkpt lat="37.0579398" lon="14.6669417"><ele>392.0</ele><time>2026-04-24T15:40:08.617Z</time></trkpt><trkpt lat="37.0580793" lon="14.6667846"><ele>392.0</ele><time>2026-04-24T15:40:09.615Z</time></trkpt><trkpt lat="37.0582246" lon="14.6666249"><ele>392.0</ele><time>2026-04-24T15:40:10.618Z</time></trkpt><trkpt lat="37.0583658" lon="14.6664612"><ele>392.0</ele><time>2026-04-24T15:40:11.616Z</time></trkpt><trkpt lat="37.0585091" lon="14.6663"><ele>392.0</ele><time>2026-04-24T15:40:12.617Z</time></trkpt><trkpt lat="37.0586589" lon="14.6661401"><ele>392.0</ele><time>2026-04-24T15:40:13.617Z</time></trkpt><trkpt lat="37.0587987" lon="14.6659838"><ele>392.0</ele><time>2026-04-24T15:40:14.616Z</time></trkpt><trkpt lat="37.0589341" lon="14.6658217"><ele>392.0</ele><time>2026-04-24T15:40:15.616Z</time></trkpt><trkpt lat="37.0590718" lon="14.6656638"><ele>392.0</ele><time>2026-04-24T15:40:16.616Z</time></trkpt><trkpt lat="37.059208" lon="14.6655078"><ele>392.0</ele><time>2026-04-24T15:40:17.616Z</time></trkpt><trkpt lat="37.0593472" lon="14.6653567"><ele>391.3333333333333</ele><time>2026-04-24T15:40:18.616Z</time></trkpt><trkpt lat="37.0594823" lon="14.6652017"><ele>390.66666666666663</ele><time>2026-04-24T15:40:19.617Z</time></trkpt><trkpt lat="37.0596123" lon="14.6650511"><ele>390.0</ele><time>2026-04-24T15:40:20.616Z</time></trkpt><trkpt lat="37.0597409" lon="14.6648923"><ele>390.0</ele><time>2026-04-24T15:40:21.615Z</time></trkpt><trkpt lat="37.0598565" lon="14.6647258"><ele>390.0</ele><time>2026-04-24T15:40:22.615Z</time></trkpt><trkpt lat="37.0599729" lon="14.6645459"><ele>390.0</ele><time>2026-04-24T15:40:23.615Z</time></trkpt><trkpt lat="37.0600818" lon="14.6643546"><ele>390.0</ele><time>2026-04-24T15:40:24.616Z</time></trkpt><trkpt lat="37.0601879" lon="14.664161"><ele>390.0</ele><time>2026-04-24T15:40:25.616Z</time></trkpt><trkpt lat="37.060288" lon="14.663966"><ele>390.0</ele><time>2026-04-24T15:40:26.616Z</time></trkpt><trkpt lat="37.0603915" lon="14.6637742"><ele>389.66666666666663</ele><time>2026-04-24T15:40:27.616Z</time></trkpt><trkpt lat="37.0604959" lon="14.6635893"><ele>389.3333333333333</ele><time>2026-04-24T15:40:28.616Z</time></trkpt><trkpt lat="37.0606036" lon="14.663399"><ele>389.0</ele><time>2026-04-24T15:40:29.617Z</time></trkpt><trkpt lat="37.0607075" lon="14.6632067"><ele>389.66666666666663</ele><time>2026-04-24T15:40:30.616Z</time></trkpt><trkpt lat="37.0608064" lon="14.6630207"><ele>390.33333333333337</ele><time>2026-04-24T15:40:31.616Z</time></trkpt><trkpt lat="37.0609079" lon="14.6628301"><ele>391.0</ele><time>2026-04-24T15:40:32.617Z</time></trkpt><trkpt lat="37.0610087" lon="14.6626399"><ele>389.33333333333337</ele><time>2026-04-24T15:40:33.617Z</time></trkpt><trkpt lat="37.0611146" lon="14.6624447"><ele>387.66666666666663</ele><time>2026-04-24T15:40:34.615Z</time></trkpt><trkpt lat="37.0612162" lon="14.6622502"><ele>386.0</ele><time>2026-04-24T15:40:35.616Z</time></trkpt><trkpt lat="37.061324" lon="14.6620557"><ele>386.0</ele><time>2026-04-24T15:40:36.616Z</time></trkpt><trkpt lat="37.0614295" lon="14.6618663"><ele>386.0</ele><time>2026-04-24T15:40:37.617Z</time></trkpt><trkpt lat="37.0615388" lon="14.6616774"><ele>386.0</ele><time>2026-04-24T15:40:38.616Z</time></trkpt><trkpt lat="37.0616436" lon="14.6614757"><ele>386.0</ele><time>2026-04-24T15:40:39.616Z</time></trkpt><trkpt lat="37.0617426" lon="14.6612731"><ele>386.0</ele><time>2026-04-24T15:40:40.616Z</time></trkpt><trkpt lat="37.0618221" lon="14.6610651"><ele>386.0</ele><time>2026-04-24T15:40:41.617Z</time></trkpt><trkpt lat="37.0618847" lon="14.6608509"><ele>385.66666666666663</ele><time>2026-04-24T15:40:42.616Z</time></trkpt><trkpt lat="37.0619387" lon="14.6606354"><ele>385.33333333333337</ele><time>2026-04-24T15:40:43.617Z</time></trkpt><trkpt lat="37.0619937" lon="14.6604146"><ele>385.0</ele><time>2026-04-24T15:40:44.617Z</time></trkpt><trkpt lat="37.0620449" lon="14.6601914"><ele>385.0</ele><time>2026-04-24T15:40:45.616Z</time></trkpt><trkpt lat="37.0621001" lon="14.6599684"><ele>385.0</ele><time>2026-04-24T15:40:46.617Z</time></trkpt><trkpt lat="37.0621568" lon="14.6597436"><ele>385.0</ele><time>2026-04-24T15:40:47.616Z</time></trkpt><trkpt lat="37.0622136" lon="14.6595169"><ele>384.33333333333337</ele><time>2026-04-24T15:40:48.617Z</time></trkpt><trkpt lat="37.0622726" lon="14.6592917"><ele>383.6666666666667</ele><time>2026-04-24T15:40:49.617Z</time></trkpt><trkpt lat="37.0623297" lon="14.6590661"><ele>383.0</ele><time>2026-04-24T15:40:50.617Z</time></trkpt><trkpt lat="37.0623848" lon="14.6588441"><ele>383.0</ele><time>2026-04-24T15:40:51.617Z</time></trkpt><trkpt lat="37.0624372" lon="14.6586235"><ele>383.0</ele><time>2026-04-24T15:40:52.618Z</time></trkpt><trkpt lat="37.0624914" lon="14.6584057"><ele>383.0</ele><time>2026-04-24T15:40:53.616Z</time></trkpt><trkpt lat="37.0625291" lon="14.6581842"><ele>382.6666666666667</ele><time>2026-04-24T15:40:54.617Z</time></trkpt><trkpt lat="37.0625523" lon="14.6579593"><ele>382.3333333333333</ele><time>2026-04-24T15:40:55.616Z</time></trkpt><trkpt lat="37.0625678" lon="14.6577257"><ele>382.0</ele><time>2026-04-24T15:40:56.616Z</time></trkpt><trkpt lat="37.0625832" lon="14.657491"><ele>381.3333333333333</ele><time>2026-04-24T15:40:57.616Z</time></trkpt><trkpt lat="37.0625982" lon="14.6572658"><ele>380.6666666666667</ele><time>2026-04-24T15:40:58.616Z</time></trkpt><trkpt lat="37.0626031" lon="14.657051"><ele>380.0</ele><time>2026-04-24T15:40:59.616Z</time></trkpt><trkpt lat="37.0625925" lon="14.6568496"><ele>379.5</ele><time>2026-04-24T15:41:00.616Z</time></trkpt><trkpt lat="37.0625633" lon="14.6566539"><ele>379.0</ele><time>2026-04-24T15:41:01.617Z</time></trkpt><trkpt lat="37.0625207" lon="14.6564773"><ele>378.5</ele><time>2026-04-24T15:41:02.616Z</time></trkpt><trkpt lat="37.0624753" lon="14.6563233"><ele>378.0</ele><time>2026-04-24T15:41:03.616Z</time></trkpt><trkpt lat="37.0624435" lon="14.6561851"><ele>377.79999999999995</ele><time>2026-04-24T15:41:04.616Z</time></trkpt><trkpt lat="37.0624327" lon="14.6560589"><ele>377.6</ele><time>2026-04-24T15:41:05.616Z</time></trkpt><trkpt lat="37.0624515" lon="14.6559527"><ele>377.4</ele><time>2026-04-24T15:41:06.616Z</time></trkpt><trkpt lat="37.0625067" lon="14.6558698"><ele>377.20000000000005</ele><time>2026-04-24T15:41:07.617Z</time></trkpt><trkpt lat="37.0625933" lon="14.6558271"><ele>377.0</ele><time>2026-04-24T15:41:08.616Z</time></trkpt><trkpt lat="37.0626955" lon="14.6558007"><ele>375.20000000000005</ele><time>2026-04-24T15:41:09.616Z</time></trkpt><trkpt lat="37.0628036" lon="14.6558012"><ele>373.4</ele><time>2026-04-24T15:41:10.616Z</time></trkpt><trkpt lat="37.0628999" lon="14.6558228"><ele>371.6</ele><time>2026-04-24T15:41:11.617Z</time></trkpt><trkpt lat="37.0629878" lon="14.655838"><ele>369.79999999999995</ele><time>2026-04-24T15:41:12.616Z</time></trkpt><trkpt lat="37.0630559" lon="14.6558659"><ele>368.0</ele><time>2026-04-24T15:41:13.616Z</time></trkpt><trkpt lat="37.0631341" lon="14.655931"><ele>368.0</ele><time>2026-04-24T15:41:15.617Z</time></trkpt><trkpt lat="37.0631983" lon="14.656029"><ele>368.0</ele><time>2026-04-24T15:41:17.616Z</time></trkpt><trkpt lat="37.0632294" lon="14.6561203"><ele>368.0</ele><time>2026-04-24T15:41:18.616Z</time></trkpt><trkpt lat="37.0632391" lon="14.6562469"><ele>368.0</ele><time>2026-04-24T15:41:19.616Z</time></trkpt><trkpt lat="37.0632446" lon="14.6564012"><ele>368.0</ele><time>2026-04-24T15:41:20.616Z</time></trkpt><trkpt lat="37.0632486" lon="14.6565745"><ele>365.6666666666667</ele><time>2026-04-24T15:41:21.616Z</time></trkpt><trkpt lat="37.0632571" lon="14.6567633"><ele>363.3333333333333</ele><time>2026-04-24T15:41:22.616Z</time></trkpt><trkpt lat="37.0632796" lon="14.6569672"><ele>361.0</ele><time>2026-04-24T15:41:23.617Z</time></trkpt><trkpt lat="37.0633136" lon="14.6571742"><ele>361.0</ele><time>2026-04-24T15:41:24.615Z</time></trkpt><trkpt lat="37.0633791" lon="14.6575657"><ele>361.0</ele><time>2026-04-24T15:41:26.616Z</time></trkpt><trkpt lat="37.0634268" lon="14.6577513"><ele>361.8</ele><time>2026-04-24T15:41:27.616Z</time></trkpt><trkpt lat="37.0634601" lon="14.6579269"><ele>362.6</ele><time>2026-04-24T15:41:28.615Z</time></trkpt><trkpt lat="37.0634952" lon="14.6580726"><ele>363.4</ele><time>2026-04-24T15:41:29.616Z</time></trkpt><trkpt lat="37.0635305" lon="14.6581775"><ele>364.2</ele><time>2026-04-24T15:41:30.617Z</time></trkpt><trkpt lat="37.0635731" lon="14.6582721"><ele>365.0</ele><time>2026-04-24T15:41:31.615Z</time></trkpt><trkpt lat="37.0636181" lon="14.6584221"><ele>365.0</ele><time>2026-04-24T15:41:33.616Z</time></trkpt><trkpt lat="37.0636362" lon="14.6585763"><ele>365.0</ele><time>2026-04-24T15:41:35.616Z</time></trkpt><trkpt lat="37.0636681" lon="14.6587201"><ele>365.0</ele><time>2026-04-24T15:41:37.616Z</time></trkpt><trkpt lat="37.063714" lon="14.658852"><ele>365.0</ele><time>2026-04-24T15:41:39.616Z</time></trkpt><trkpt lat="37.0637349" lon="14.6589306"><ele>365.0</ele><time>2026-04-24T15:41:40.616Z</time></trkpt><trkpt lat="37.0637624" lon="14.6590094"><ele>367.0</ele><time>2026-04-24T15:41:41.616Z</time></trkpt><trkpt lat="37.0637988" lon="14.6591174"><ele>369.0</ele><time>2026-04-24T15:41:42.617Z</time></trkpt><trkpt lat="37.0638313" lon="14.6592276"><ele>371.0</ele><time>2026-04-24T15:41:43.616Z</time></trkpt><trkpt lat="37.0638738" lon="14.6593319"><ele>373.0</ele><time>2026-04-24T15:41:44.618Z</time></trkpt><trkpt lat="37.0639016" lon="14.659438"><ele>375.0</ele><time>2026-04-24T15:41:45.616Z</time></trkpt><trkpt lat="37.0639369" lon="14.6595349"><ele>376.6666666666667</ele><time>2026-04-24T15:41:46.616Z</time></trkpt><trkpt lat="37.0639632" lon="14.6596313"><ele>378.33333333333337</ele><time>2026-04-24T15:41:47.615Z</time></trkpt><trkpt lat="37.0639897" lon="14.6597276"><ele>380.0</ele><time>2026-04-24T15:41:48.616Z</time></trkpt><trkpt lat="37.0640125" lon="14.6598298"><ele>381.6666666666667</ele><time>2026-04-24T15:41:49.617Z</time></trkpt><trkpt lat="37.0640345" lon="14.6599171"><ele>383.33333333333337</ele><time>2026-04-24T15:41:50.616Z</time></trkpt><trkpt lat="37.0640441" lon="14.6600125"><ele>385.0</ele><time>2026-04-24T15:41:51.617Z</time></trkpt><trkpt lat="37.0640659" lon="14.6600958"><ele>385.00000000000006</ele><time>2026-04-24T15:41:52.615Z</time></trkpt><trkpt lat="37.0640802" lon="14.6601746"><ele>385.0</ele><time>2026-04-24T15:41:53.616Z</time></trkpt><trkpt lat="37.0641047" lon="14.6602639"><ele>385.0</ele><time>2026-04-24T15:41:54.616Z</time></trkpt><trkpt lat="37.0641353" lon="14.6603676"><ele>385.0</ele><time>2026-04-24T15:41:55.617Z</time></trkpt><trkpt lat="37.064154" lon="14.6604683"><ele>385.00000000000006</ele><time>2026-04-24T15:41:56.616Z</time></trkpt><trkpt lat="37.0641735" lon="14.6605525"><ele>385.0</ele><time>2026-04-24T15:41:57.615Z</time></trkpt><trkpt lat="37.0641953" lon="14.6606458"><ele>384.33333333333337</ele><time>2026-04-24T15:41:58.617Z</time></trkpt><trkpt lat="37.0642093" lon="14.6607443"><ele>383.6666666666667</ele><time>2026-04-24T15:41:59.618Z</time></trkpt><trkpt lat="37.0642212" lon="14.6608461"><ele>383.0</ele><time>2026-04-24T15:42:00.616Z</time></trkpt><trkpt lat="37.0642452" lon="14.660967"><ele>382.33333333333337</ele><time>2026-04-24T15:42:02.615Z</time></trkpt><trkpt lat="37.0642496" lon="14.6610543"><ele>381.6666666666667</ele><time>2026-04-24T15:42:04.617Z</time></trkpt><trkpt lat="37.0643015" lon="14.661152"><ele>381.0</ele><time>2026-04-24T15:42:06.615Z</time></trkpt><trkpt lat="37.0643408" lon="14.6612183"><ele>381.0</ele><time>2026-04-24T15:42:07.616Z</time></trkpt><trkpt lat="37.0644155" lon="14.6613381"><ele>381.0</ele><time>2026-04-24T15:42:09.616Z</time></trkpt><trkpt lat="37.0644574" lon="14.6614006"><ele>381.0</ele><time>2026-04-24T15:42:10.617Z</time></trkpt><trkpt lat="37.0645062" lon="14.6614906"><ele>381.0</ele><time>2026-04-24T15:42:11.617Z</time></trkpt><trkpt lat="37.0645537" lon="14.6615642"><ele>381.0</ele><time>2026-04-24T15:42:12.615Z</time></trkpt><trkpt lat="37.0646058" lon="14.6616364"><ele>381.0</ele><time>2026-04-24T15:42:13.617Z</time></trkpt><trkpt lat="37.0646587" lon="14.6616815"><ele>381.0</ele><time>2026-04-24T15:42:14.616Z</time></trkpt><trkpt lat="37.064758" lon="14.6617206"><ele>381.0</ele><time>2026-04-24T15:42:16.616Z</time></trkpt><trkpt lat="37.0648393" lon="14.6617328"><ele>381.0</ele><time>2026-04-24T15:42:18.616Z</time></trkpt><trkpt lat="37.064898" lon="14.6616681"><ele>381.0</ele><time>2026-04-24T15:42:20.615Z</time></trkpt><trkpt lat="37.0649317" lon="14.6615632"><ele>381.0</ele><time>2026-04-24T15:42:22.616Z</time></trkpt><trkpt lat="37.0649943" lon="14.6615046"><ele>381.0</ele><time>2026-04-24T15:42:24.616Z</time></trkpt><trkpt lat="37.0650792" lon="14.6615219"><ele>378.20000000000005</ele><time>2026-04-24T15:42:26.616Z</time></trkpt><trkpt lat="37.0651165" lon="14.6614424"><ele>375.40000000000003</ele><time>2026-04-24T15:42:28.616Z</time></trkpt><trkpt lat="37.0651023" lon="14.6613229"><ele>372.6</ele><time>2026-04-24T15:42:30.617Z</time></trkpt><trkpt lat="37.0651928" lon="14.661338"><ele>369.8</ele><time>2026-04-24T15:42:34.617Z</time></trkpt><trkpt lat="37.065292" lon="14.6613431"><ele>367.0</ele><time>2026-04-24T15:42:36.616Z</time></trkpt><trkpt lat="37.0653809" lon="14.6613122"><ele>367.0</ele><time>2026-04-24T15:42:38.617Z</time></trkpt><trkpt lat="37.0654314" lon="14.6612626"><ele>367.0</ele><time>2026-04-24T15:42:40.616Z</time></trkpt><trkpt lat="37.0654943" lon="14.6612541"><ele>367.0</ele><time>2026-04-24T15:42:42.615Z</time></trkpt><trkpt lat="37.0655803" lon="14.6612306"><ele>367.0</ele><time>2026-04-24T15:42:44.616Z</time></trkpt><trkpt lat="37.0656431" lon="14.6611779"><ele>367.0</ele><time>2026-04-24T15:42:47.616Z</time></trkpt><trkpt lat="37.0656979" lon="14.6610919"><ele>367.0</ele><time>2026-04-24T15:42:49.616Z</time></trkpt><trkpt lat="37.0657716" lon="14.6610156"><ele>370.5</ele><time>2026-04-24T15:42:51.616Z</time></trkpt><trkpt lat="37.0658472" lon="14.6609593"><ele>374.0</ele><time>2026-04-24T15:42:53.616Z</time></trkpt><trkpt lat="37.0659215" lon="14.6609038"><ele>377.5</ele><time>2026-04-24T15:42:55.617Z</time></trkpt><trkpt lat="37.0660137" lon="14.6608536"><ele>381.0</ele><time>2026-04-24T15:42:57.617Z</time></trkpt><trkpt lat="37.0661071" lon="14.6608227"><ele>384.50000000000006</ele><time>2026-04-24T15:42:59.616Z</time></trkpt><trkpt lat="37.0661746" lon="14.6608297"><ele>388.0</ele><time>2026-04-24T15:43:00.616Z</time></trkpt><trkpt lat="37.066252" lon="14.6608607"><ele>388.00000000000006</ele><time>2026-04-24T15:43:01.616Z</time></trkpt><trkpt lat="37.0663308" lon="14.6608994"><ele>388.0</ele><time>2026-04-24T15:43:02.616Z</time></trkpt><trkpt lat="37.0664062" lon="14.6609416"><ele>388.0</ele><time>2026-04-24T15:43:03.616Z</time></trkpt><trkpt lat="37.0664666" lon="14.6609792"><ele>388.0</ele><time>2026-04-24T15:43:04.616Z</time></trkpt><trkpt lat="37.0665654" lon="14.6610624"><ele>388.00000000000006</ele><time>2026-04-24T15:43:06.616Z</time></trkpt><trkpt lat="37.0666519" lon="14.6611002"><ele>388.0</ele><time>2026-04-24T15:43:08.616Z</time></trkpt><trkpt lat="37.066744" lon="14.6611671"><ele>390.2</ele><time>2026-04-24T15:43:10.616Z</time></trkpt><trkpt lat="37.0667866" lon="14.6612269"><ele>392.4</ele><time>2026-04-24T15:43:11.616Z</time></trkpt><trkpt lat="37.06687" lon="14.6613524"><ele>394.59999999999997</ele><time>2026-04-24T15:43:13.617Z</time></trkpt><trkpt lat="37.0669267" lon="14.6614261"><ele>396.79999999999995</ele><time>2026-04-24T15:43:14.616Z</time></trkpt><trkpt lat="37.0669872" lon="14.6614991"><ele>399.0</ele><time>2026-04-24T15:43:15.617Z</time></trkpt><trkpt lat="37.0670554" lon="14.661583"><ele>399.0</ele><time>2026-04-24T15:43:16.615Z</time></trkpt><trkpt lat="37.067138" lon="14.6616594"><ele>399.0</ele><time>2026-04-24T15:43:17.616Z</time></trkpt><trkpt lat="37.0672166" lon="14.66175"><ele>399.0</ele><time>2026-04-24T15:43:18.616Z</time></trkpt><trkpt lat="37.0672906" lon="14.6618463"><ele>399.0</ele><time>2026-04-24T15:43:19.616Z</time></trkpt><trkpt lat="37.0673651" lon="14.6619367"><ele>399.0</ele><time>2026-04-24T15:43:20.615Z</time></trkpt><trkpt lat="37.0674385" lon="14.6620316"><ele>401.5</ele><time>2026-04-24T15:43:21.617Z</time></trkpt><trkpt lat="37.0675113" lon="14.6621351"><ele>404.0</ele><time>2026-04-24T15:43:22.616Z</time></trkpt><trkpt lat="37.0675886" lon="14.6622413"><ele>406.5</ele><time>2026-04-24T15:43:23.616Z</time></trkpt><trkpt lat="37.0676632" lon="14.6623502"><ele>409.0</ele><time>2026-04-24T15:43:24.616Z</time></trkpt><trkpt lat="37.0677396" lon="14.6624661"><ele>409.0</ele><time>2026-04-24T15:43:25.616Z</time></trkpt><trkpt lat="37.0678099" lon="14.6625814"><ele>409.0</ele><time>2026-04-24T15:43:26.616Z</time></trkpt><trkpt lat="37.0678758" lon="14.6626987"><ele>409.0</ele><time>2026-04-24T15:43:27.616Z</time></trkpt><trkpt lat="37.0679478" lon="14.6628122"><ele>409.0</ele><time>2026-04-24T15:43:28.616Z</time></trkpt><trkpt lat="37.0680221" lon="14.6629364"><ele>409.0</ele><time>2026-04-24T15:43:29.617Z</time></trkpt><trkpt lat="37.0680905" lon="14.6630589"><ele>409.0</ele><time>2026-04-24T15:43:30.616Z</time></trkpt><trkpt lat="37.0681587" lon="14.6631775"><ele>409.0</ele><time>2026-04-24T15:43:31.617Z</time></trkpt><trkpt lat="37.0682241" lon="14.6632996"><ele>409.0</ele><time>2026-04-24T15:43:32.616Z</time></trkpt><trkpt lat="37.0682928" lon="14.6634222"><ele>409.79999999999995</ele><time>2026-04-24T15:43:33.616Z</time></trkpt><trkpt lat="37.0683604" lon="14.6635386"><ele>410.59999999999997</ele><time>2026-04-24T15:43:34.618Z</time></trkpt><trkpt lat="37.068428" lon="14.6636398"><ele>411.4</ele><time>2026-04-24T15:43:35.616Z</time></trkpt><trkpt lat="37.0684894" lon="14.6637435"><ele>412.2</ele><time>2026-04-24T15:43:36.616Z</time></trkpt><trkpt lat="37.0685523" lon="14.6638209"><ele>413.0</ele><time>2026-04-24T15:43:37.616Z</time></trkpt><trkpt lat="37.0686341" lon="14.6638978"><ele>414.2</ele><time>2026-04-24T15:43:38.615Z</time></trkpt><trkpt lat="37.068731" lon="14.6639737"><ele>415.4</ele><time>2026-04-24T15:43:39.617Z</time></trkpt><trkpt lat="37.0688255" lon="14.6640453"><ele>416.59999999999997</ele><time>2026-04-24T15:43:40.616Z</time></trkpt><trkpt lat="37.0689193" lon="14.6640931"><ele>417.79999999999995</ele><time>2026-04-24T15:43:41.617Z</time></trkpt><trkpt lat="37.0690089" lon="14.6641449"><ele>419.0</ele><time>2026-04-24T15:43:42.617Z</time></trkpt><trkpt lat="37.0690947" lon="14.664213"><ele>420.0</ele><time>2026-04-24T15:43:43.617Z</time></trkpt><trkpt lat="37.0691804" lon="14.6642755"><ele>421.0</ele><time>2026-04-24T15:43:44.616Z</time></trkpt><trkpt lat="37.0692633" lon="14.664353"><ele>422.0</ele><time>2026-04-24T15:43:45.616Z</time></trkpt><trkpt lat="37.0693438" lon="14.664429"><ele>423.0</ele><time>2026-04-24T15:43:46.616Z</time></trkpt><trkpt lat="37.06943" lon="14.6645002"><ele>424.0</ele><time>2026-04-24T15:43:47.616Z</time></trkpt><trkpt lat="37.0695189" lon="14.6645758"><ele>424.0</ele><time>2026-04-24T15:43:48.616Z</time></trkpt><trkpt lat="37.0696074" lon="14.6646516"><ele>424.0</ele><time>2026-04-24T15:43:49.616Z</time></trkpt><trkpt lat="37.0696981" lon="14.664731"><ele>424.0</ele><time>2026-04-24T15:43:50.616Z</time></trkpt><trkpt lat="37.0697811" lon="14.664817"><ele>424.0</ele><time>2026-04-24T15:43:51.616Z</time></trkpt><trkpt lat="37.0698649" lon="14.6649154"><ele>424.0</ele><time>2026-04-24T15:43:52.617Z</time></trkpt><trkpt lat="37.0699429" lon="14.6650117"><ele>424.79999999999995</ele><time>2026-04-24T15:43:53.616Z</time></trkpt><trkpt lat="37.0700197" lon="14.6650965"><ele>425.59999999999997</ele><time>2026-04-24T15:43:54.616Z</time></trkpt><trkpt lat="37.0701007" lon="14.6651741"><ele>426.4</ele><time>2026-04-24T15:43:55.617Z</time></trkpt><trkpt lat="37.0701906" lon="14.6652418"><ele>427.2</ele><time>2026-04-24T15:43:56.616Z</time></trkpt><trkpt lat="37.0702811" lon="14.6653191"><ele>428.0</ele><time>2026-04-24T15:43:57.615Z</time></trkpt><trkpt lat="37.0703617" lon="14.6653989"><ele>428.0</ele><time>2026-04-24T15:43:58.616Z</time></trkpt><trkpt lat="37.0704377" lon="14.66549"><ele>427.99999999999994</ele><time>2026-04-24T15:43:59.616Z</time></trkpt><trkpt lat="37.0705088" lon="14.6655931"><ele>427.99999999999994</ele><time>2026-04-24T15:44:00.617Z</time></trkpt><trkpt lat="37.0705803" lon="14.665708"><ele>428.0</ele><time>2026-04-24T15:44:01.615Z</time></trkpt><trkpt lat="37.0706448" lon="14.6658114"><ele>428.0</ele><time>2026-04-24T15:44:02.617Z</time></trkpt><trkpt lat="37.0707177" lon="14.6659132"><ele>429.2</ele><time>2026-04-24T15:44:03.616Z</time></trkpt><trkpt lat="37.0707889" lon="14.666012"><ele>430.4</ele><time>2026-04-24T15:44:04.615Z</time></trkpt><trkpt lat="37.070858" lon="14.6660908"><ele>431.59999999999997</ele><time>2026-04-24T15:44:05.616Z</time></trkpt><trkpt lat="37.0709336" lon="14.6661713"><ele>432.79999999999995</ele><time>2026-04-24T15:44:06.616Z</time></trkpt><trkpt lat="37.0710134" lon="14.6662502"><ele>434.0</ele><time>2026-04-24T15:44:07.615Z</time></trkpt><trkpt lat="37.0710895" lon="14.6663402"><ele>435.8333333333333</ele><time>2026-04-24T15:44:08.616Z</time></trkpt><trkpt lat="37.0711575" lon="14.6664356"><ele>437.66666666666663</ele><time>2026-04-24T15:44:09.616Z</time></trkpt><trkpt lat="37.0712112" lon="14.6665229"><ele>439.5</ele><time>2026-04-24T15:44:10.617Z</time></trkpt><trkpt lat="37.0712468" lon="14.6665966"><ele>441.33333333333337</ele><time>2026-04-24T15:44:11.616Z</time></trkpt><trkpt lat="37.0712785" lon="14.666673"><ele>443.1666666666667</ele><time>2026-04-24T15:44:12.616Z</time></trkpt><trkpt lat="37.0712962" lon="14.6667645"><ele>445.0</ele><time>2026-04-24T15:44:13.617Z</time></trkpt><trkpt lat="37.0713126" lon="14.6668618"><ele>445.83333333333337</ele><time>2026-04-24T15:44:14.616Z</time></trkpt><trkpt lat="37.0713357" lon="14.6669461"><ele>446.6666666666667</ele><time>2026-04-24T15:44:15.617Z</time></trkpt><trkpt lat="37.0713727" lon="14.6670311"><ele>447.5</ele><time>2026-04-24T15:44:16.617Z</time></trkpt><trkpt lat="37.0714067" lon="14.667117"><ele>448.33333333333337</ele><time>2026-04-24T15:44:17.617Z</time></trkpt><trkpt lat="37.0714379" lon="14.6672103"><ele>449.1666666666667</ele><time>2026-04-24T15:44:18.616Z</time></trkpt><trkpt lat="37.071471" lon="14.6673019"><ele>450.0</ele><time>2026-04-24T15:44:19.616Z</time></trkpt><trkpt lat="37.071505" lon="14.667409"><ele>450.0</ele><time>2026-04-24T15:44:20.616Z</time></trkpt><trkpt lat="37.0715395" lon="14.6675176"><ele>450.0</ele><time>2026-04-24T15:44:21.617Z</time></trkpt><trkpt lat="37.0715716" lon="14.667633"><ele>450.0</ele><time>2026-04-24T15:44:22.617Z</time></trkpt><trkpt lat="37.0715988" lon="14.6677504"><ele>450.0</ele><time>2026-04-24T15:44:23.617Z</time></trkpt><trkpt lat="37.0716291" lon="14.6678633"><ele>450.0</ele><time>2026-04-24T15:44:24.615Z</time></trkpt><trkpt lat="37.0716572" lon="14.667986"><ele>450.2</ele><time>2026-04-24T15:44:25.616Z</time></trkpt><trkpt lat="37.071686" lon="14.6681086"><ele>450.4</ele><time>2026-04-24T15:44:26.616Z</time></trkpt><trkpt lat="37.0717171" lon="14.6682176"><ele>450.6</ele><time>2026-04-24T15:44:27.617Z</time></trkpt><trkpt lat="37.0717406" lon="14.6683093"><ele>450.8</ele><time>2026-04-24T15:44:28.617Z</time></trkpt><trkpt lat="37.0718317" lon="14.6683834"><ele>451.0</ele><time>2026-04-24T15:44:30.617Z</time></trkpt><trkpt lat="37.07192" lon="14.6682997"><ele>451.00000000000006</ele><time>2026-04-24T15:44:32.616Z</time></trkpt><trkpt lat="37.0719698" lon="14.6682333"><ele>451.0</ele><time>2026-04-24T15:44:33.616Z</time></trkpt><trkpt lat="37.0720224" lon="14.6681634"><ele>451.0</ele><time>2026-04-24T15:44:34.617Z</time></trkpt><trkpt lat="37.0720622" lon="14.6680578"><ele>451.0</ele><time>2026-04-24T15:44:36.617Z</time></trkpt><trkpt lat="37.0720759" lon="14.6679383"><ele>451.00000000000006</ele><time>2026-04-24T15:44:38.616Z</time></trkpt><trkpt lat="37.0721513" lon="14.6678526"><ele>451.0</ele><time>2026-04-24T15:44:40.616Z</time></trkpt><trkpt lat="37.0722536" lon="14.6678336"><ele>451.0</ele><time>2026-04-24T15:44:42.616Z</time></trkpt><trkpt lat="37.0723722" lon="14.6678692"><ele>451.0</ele><time>2026-04-24T15:44:44.616Z</time></trkpt><trkpt lat="37.0724737" lon="14.6679236"><ele>451.0</ele><time>2026-04-24T15:44:46.615Z</time></trkpt><trkpt lat="37.0725626" lon="14.6680057"><ele>451.0</ele><time>2026-04-24T15:44:48.617Z</time></trkpt><trkpt lat="37.0726417" lon="14.6681196"><ele>451.00000000000006</ele><time>2026-04-24T15:44:50.616Z</time></trkpt><trkpt lat="37.0727089" lon="14.6681844"><ele>451.0</ele><time>2026-04-24T15:44:52.616Z</time></trkpt><trkpt lat="37.0727891" lon="14.6681819"><ele>451.0</ele><time>2026-04-24T15:44:54.616Z</time></trkpt><trkpt lat="37.0728803" lon="14.6681875"><ele>451.0</ele><time>2026-04-24T15:44:56.617Z</time></trkpt><trkpt lat="37.0729483" lon="14.6682592"><ele>451.00000000000006</ele><time>2026-04-24T15:44:58.617Z</time></trkpt><trkpt lat="37.0730075" lon="14.6683482"><ele>451.0</ele><time>2026-04-24T15:45:00.616Z</time></trkpt><trkpt lat="37.0730841" lon="14.6683931"><ele>451.00000000000006</ele><time>2026-04-24T15:45:02.615Z</time></trkpt><trkpt lat="37.0731947" lon="14.6683966"><ele>451.0</ele><time>2026-04-24T15:45:04.617Z</time></trkpt><trkpt lat="37.0732542" lon="14.668366"><ele>451.0</ele><time>2026-04-24T15:45:05.616Z</time></trkpt><trkpt lat="37.0733189" lon="14.6683707"><ele>451.0</ele><time>2026-04-24T15:45:06.617Z</time></trkpt><trkpt lat="37.0734221" lon="14.6684116"><ele>451.00000000000006</ele><time>2026-04-24T15:45:08.616Z</time></trkpt><trkpt lat="37.0735051" lon="14.6684335"><ele>451.0</ele><time>2026-04-24T15:45:10.615Z</time></trkpt><trkpt lat="37.0735956" lon="14.6683954"><ele>451.6</ele><time>2026-04-24T15:45:12.616Z</time></trkpt><trkpt lat="37.0736647" lon="14.6683864"><ele>452.20000000000005</ele><time>2026-04-24T15:45:13.617Z</time></trkpt><trkpt lat="37.0737792" lon="14.6684158"><ele>452.79999999999995</ele><time>2026-04-24T15:45:15.616Z</time></trkpt><trkpt lat="37.0738878" lon="14.6684197"><ele>453.4</ele><time>2026-04-24T15:45:17.617Z</time></trkpt><trkpt lat="37.0739933" lon="14.6684447"><ele>454.0</ele><time>2026-04-24T15:45:19.617Z</time></trkpt><trkpt lat="37.0740576" lon="14.668465"><ele>452.79999999999995</ele><time>2026-04-24T15:45:20.615Z</time></trkpt><trkpt lat="37.0741286" lon="14.6684944"><ele>451.59999999999997</ele><time>2026-04-24T15:45:21.615Z</time></trkpt><trkpt lat="37.0741931" lon="14.6685316"><ele>450.4</ele><time>2026-04-24T15:45:22.617Z</time></trkpt><trkpt lat="37.0742879" lon="14.668602"><ele>449.2</ele><time>2026-04-24T15:45:24.617Z</time></trkpt><trkpt lat="37.0743696" lon="14.6686485"><ele>448.0</ele><time>2026-04-24T15:45:26.616Z</time></trkpt><trkpt lat="37.0744732" lon="14.6687089"><ele>448.0</ele><time>2026-04-24T15:45:28.618Z</time></trkpt><trkpt lat="37.074577" lon="14.6687802"><ele>447.99999999999994</ele><time>2026-04-24T15:45:30.617Z</time></trkpt><trkpt lat="37.0746608" lon="14.6687647"><ele>447.99999999999994</ele><time>2026-04-24T15:45:32.616Z</time></trkpt><trkpt lat="37.0747127" lon="14.668698"><ele>448.0</ele><time>2026-04-24T15:45:35.616Z</time></trkpt><trkpt lat="37.0747887" lon="14.6685914"><ele>448.0</ele><time>2026-04-24T15:45:37.615Z</time></trkpt><trkpt lat="37.0748675" lon="14.6684912"><ele>447.79999999999995</ele><time>2026-04-24T15:45:39.618Z</time></trkpt><trkpt lat="37.0749545" lon="14.668455"><ele>447.59999999999997</ele><time>2026-04-24T15:45:41.615Z</time></trkpt><trkpt lat="37.0750267" lon="14.6685238"><ele>447.40000000000003</ele><time>2026-04-24T15:45:43.617Z</time></trkpt><trkpt lat="37.0750997" lon="14.6686182"><ele>447.20000000000005</ele><time>2026-04-24T15:45:45.615Z</time></trkpt><trkpt lat="37.0751605" lon="14.6687328"><ele>447.0</ele><time>2026-04-24T15:45:47.616Z</time></trkpt><trkpt lat="37.0751996" lon="14.6688645"><ele>447.0</ele><time>2026-04-24T15:45:49.617Z</time></trkpt><trkpt lat="37.0752516" lon="14.6689627"><ele>447.0</ele><time>2026-04-24T15:45:51.617Z</time></trkpt><trkpt lat="37.0753151" lon="14.6690796"><ele>447.0</ele><time>2026-04-24T15:45:53.617Z</time></trkpt><trkpt lat="37.0753471" lon="14.6691603"><ele>447.0</ele><time>2026-04-24T15:45:54.617Z</time></trkpt><trkpt lat="37.0753886" lon="14.6692429"><ele>447.0</ele><time>2026-04-24T15:45:55.616Z</time></trkpt><trkpt lat="37.0754217" lon="14.6693143"><ele>447.0</ele><time>2026-04-24T15:45:56.617Z</time></trkpt><trkpt lat="37.0754558" lon="14.6693878"><ele>446.1666666666667</ele><time>2026-04-24T15:45:57.616Z</time></trkpt><trkpt lat="37.0754791" lon="14.669477"><ele>445.33333333333337</ele><time>2026-04-24T15:45:58.617Z</time></trkpt><trkpt lat="37.0755106" lon="14.6695591"><ele>444.5</ele><time>2026-04-24T15:45:59.616Z</time></trkpt><trkpt lat="37.0755885" lon="14.6696638"><ele>443.6666666666667</ele><time>2026-04-24T15:46:01.615Z</time></trkpt><trkpt lat="37.0756442" lon="14.6697068"><ele>442.83333333333337</ele><time>2026-04-24T15:46:02.616Z</time></trkpt><trkpt lat="37.0757234" lon="14.669745"><ele>442.0</ele><time>2026-04-24T15:46:03.616Z</time></trkpt><trkpt lat="37.0757886" lon="14.6698053"><ele>442.00000000000006</ele><time>2026-04-24T15:46:04.616Z</time></trkpt><trkpt lat="37.0758568" lon="14.6698663"><ele>442.0</ele><time>2026-04-24T15:46:05.616Z</time></trkpt><trkpt lat="37.0759273" lon="14.66993"><ele>442.0</ele><time>2026-04-24T15:46:06.616Z</time></trkpt><trkpt lat="37.0759951" lon="14.6700043"><ele>442.0</ele><time>2026-04-24T15:46:07.616Z</time></trkpt><trkpt lat="37.076057" lon="14.6700809"><ele>442.00000000000006</ele><time>2026-04-24T15:46:08.615Z</time></trkpt><trkpt lat="37.0761066" lon="14.6701548"><ele>442.0</ele><time>2026-04-24T15:46:09.617Z</time></trkpt><trkpt lat="37.0761668" lon="14.6702262"><ele>445.50000000000006</ele><time>2026-04-24T15:46:10.616Z</time></trkpt><trkpt lat="37.0762249" lon="14.6702887"><ele>449.0</ele><time>2026-04-24T15:46:11.616Z</time></trkpt><trkpt lat="37.0762787" lon="14.6703527"><ele>452.5</ele><time>2026-04-24T15:46:12.617Z</time></trkpt><trkpt lat="37.0763226" lon="14.6704292"><ele>456.0</ele><time>2026-04-24T15:46:13.616Z</time></trkpt><trkpt lat="37.0763532" lon="14.6705066"><ele>459.50000000000006</ele><time>2026-04-24T15:46:14.616Z</time></trkpt><trkpt lat="37.0764572" lon="14.6705991"><ele>463.0</ele><time>2026-04-24T15:46:16.616Z</time></trkpt><trkpt lat="37.0765194" lon="14.6706596"><ele>463.0</ele><time>2026-04-24T15:46:17.615Z</time></trkpt><trkpt lat="37.0765678" lon="14.6707346"><ele>462.99999999999994</ele><time>2026-04-24T15:46:18.618Z</time></trkpt><trkpt lat="37.0766061" lon="14.670805"><ele>462.99999999999994</ele><time>2026-04-24T15:46:19.616Z</time></trkpt><trkpt lat="37.0766583" lon="14.6709342"><ele>463.0</ele><time>2026-04-24T15:46:21.616Z</time></trkpt><trkpt lat="37.0766616" lon="14.6710531"><ele>463.0</ele><time>2026-04-24T15:46:23.617Z</time></trkpt><trkpt lat="37.0766341" lon="14.6711772"><ele>465.79999999999995</ele><time>2026-04-24T15:46:25.616Z</time></trkpt><trkpt lat="37.0765976" lon="14.6713101"><ele>468.59999999999997</ele><time>2026-04-24T15:46:27.616Z</time></trkpt><trkpt lat="37.0765156" lon="14.6713443"><ele>471.40000000000003</ele><time>2026-04-24T15:46:30.616Z</time></trkpt><trkpt lat="37.0764347" lon="14.6712839"><ele>474.20000000000005</ele><time>2026-04-24T15:46:32.617Z</time></trkpt><trkpt lat="37.0763315" lon="14.6712275"><ele>477.0</ele><time>2026-04-24T15:46:34.616Z</time></trkpt><trkpt lat="37.0762424" lon="14.6712124"><ele>477.0</ele><time>2026-04-24T15:46:36.615Z</time></trkpt><trkpt lat="37.076148" lon="14.6712091"><ele>477.00000000000006</ele><time>2026-04-24T15:46:38.617Z</time></trkpt><trkpt lat="37.0760716" lon="14.671154"><ele>477.00000000000006</ele><time>2026-04-24T15:46:40.616Z</time></trkpt><trkpt lat="37.0759523" lon="14.6711077"><ele>477.0</ele><time>2026-04-24T15:46:42.616Z</time></trkpt><trkpt lat="37.0758832" lon="14.6710841"><ele>477.0</ele><time>2026-04-24T15:46:43.617Z</time></trkpt><trkpt lat="37.0758109" lon="14.671065"><ele>477.0</ele><time>2026-04-24T15:46:45.617Z</time></trkpt><trkpt lat="37.0757645" lon="14.6711197"><ele>476.99999999999994</ele><time>2026-04-24T15:46:47.616Z</time></trkpt><trkpt lat="37.0757683" lon="14.6712044"><ele>477.0</ele><time>2026-04-24T15:46:49.616Z</time></trkpt><trkpt lat="37.0758065" lon="14.6713051"><ele>477.0</ele><time>2026-04-24T15:46:51.616Z</time></trkpt><trkpt lat="37.0758053" lon="14.6714082"><ele>476.99999999999994</ele><time>2026-04-24T15:46:53.616Z</time></trkpt><trkpt lat="37.0758171" lon="14.6715056"><ele>477.0</ele><time>2026-04-24T15:46:55.616Z</time></trkpt><trkpt lat="37.0758273" lon="14.6715896"><ele>477.0</ele><time>2026-04-24T15:46:57.616Z</time></trkpt><trkpt lat="37.075855" lon="14.6716654"><ele>477.0</ele><time>2026-04-24T15:46:59.616Z</time></trkpt><trkpt lat="37.0759075" lon="14.6717241"><ele>477.0</ele><time>2026-04-24T15:47:01.616Z</time></trkpt><trkpt lat="37.0759623" lon="14.6718065"><ele>477.0</ele><time>2026-04-24T15:47:04.616Z</time></trkpt><trkpt lat="37.0760357" lon="14.6718632"><ele>477.0</ele><time>2026-04-24T15:47:06.616Z</time></trkpt><trkpt lat="37.0760914" lon="14.6719345"><ele>477.0</ele><time>2026-04-24T15:47:08.617Z</time></trkpt><trkpt lat="37.0760843" lon="14.6720171"><ele>477.0</ele><time>2026-04-24T15:47:11.616Z</time></trkpt><trkpt lat="37.0760423" lon="14.6720782"><ele>478.8333333333333</ele><time>2026-04-24T15:47:13.616Z</time></trkpt><trkpt lat="37.0760179" lon="14.6721679"><ele>480.66666666666663</ele><time>2026-04-24T15:47:15.616Z</time></trkpt><trkpt lat="37.0760541" lon="14.6722878"><ele>482.5</ele><time>2026-04-24T15:47:18.752Z</time></trkpt><trkpt lat="37.0761428" lon="14.672367"><ele>484.3333333333333</ele><time>2026-04-24T15:47:20.616Z</time></trkpt><trkpt lat="37.0761821" lon="14.6724592"><ele>486.16666666666663</ele><time>2026-04-24T15:47:22.615Z</time></trkpt><trkpt lat="37.0761775" lon="14.6725398"><ele>488.0</ele><time>2026-04-24T15:47:24.616Z</time></trkpt><trkpt lat="37.0761274" lon="14.6726211"><ele>487.99999999999994</ele><time>2026-04-24T15:47:26.616Z</time></trkpt><trkpt lat="37.0760963" lon="14.6726921"><ele>488.0</ele><time>2026-04-24T15:47:28.617Z</time></trkpt><trkpt lat="37.0760567" lon="14.67276"><ele>488.0</ele><time>2026-04-24T15:47:53.615Z</time></trkpt><trkpt lat="37.0760105" lon="14.6728389"><ele>488.0</ele><time>2026-04-24T15:47:55.616Z</time></trkpt><trkpt lat="37.0759813" lon="14.672975"><ele>487.99999999999994</ele><time>2026-04-24T15:47:57.615Z</time></trkpt><trkpt lat="37.0759964" lon="14.6731321"><ele>488.0</ele><time>2026-04-24T15:47:59.616Z</time></trkpt><trkpt lat="37.0760138" lon="14.6732091"><ele>489.59999999999997</ele><time>2026-04-24T15:48:00.617Z</time></trkpt><trkpt lat="37.076046" lon="14.6733618"><ele>491.19999999999993</ele><time>2026-04-24T15:48:02.616Z</time></trkpt><trkpt lat="37.0761104" lon="14.6734909"><ele>492.8</ele><time>2026-04-24T15:48:04.616Z</time></trkpt><trkpt lat="37.0761375" lon="14.6736289"><ele>494.4</ele><time>2026-04-24T15:48:06.616Z</time></trkpt><trkpt lat="37.0761351" lon="14.6737226"><ele>496.0</ele><time>2026-04-24T15:48:07.616Z</time></trkpt><trkpt lat="37.0761314" lon="14.67382"><ele>496.6666666666667</ele><time>2026-04-24T15:48:08.615Z</time></trkpt><trkpt lat="37.0761363" lon="14.6739048"><ele>497.33333333333337</ele><time>2026-04-24T15:48:09.617Z</time></trkpt><trkpt lat="37.0761339" lon="14.673992"><ele>498.0</ele><time>2026-04-24T15:48:10.615Z</time></trkpt><trkpt lat="37.0761336" lon="14.6740847"><ele>498.66666666666663</ele><time>2026-04-24T15:48:11.616Z</time></trkpt><trkpt lat="37.0761374" lon="14.6741646"><ele>499.3333333333333</ele><time>2026-04-24T15:48:12.617Z</time></trkpt><trkpt lat="37.0761402" lon="14.6742448"><ele>500.0</ele><time>2026-04-24T15:48:13.616Z</time></trkpt><trkpt lat="37.0761299" lon="14.6744052"><ele>500.3333333333333</ele><time>2026-04-24T15:48:15.616Z</time></trkpt><trkpt lat="37.0761235" lon="14.6744975"><ele>500.66666666666663</ele><time>2026-04-24T15:48:16.616Z</time></trkpt><trkpt lat="37.0761206" lon="14.6745868"><ele>501.0</ele><time>2026-04-24T15:48:17.617Z</time></trkpt><trkpt lat="37.0761299" lon="14.6746778"><ele>501.33333333333337</ele><time>2026-04-24T15:48:18.617Z</time></trkpt><trkpt lat="37.0761408" lon="14.6747775"><ele>501.6666666666667</ele><time>2026-04-24T15:48:19.617Z</time></trkpt><trkpt lat="37.0761477" lon="14.6748672"><ele>502.0</ele><time>2026-04-24T15:48:20.617Z</time></trkpt><trkpt lat="37.0761564" lon="14.6750195"><ele>502.00000000000006</ele><time>2026-04-24T15:48:22.617Z</time></trkpt><trkpt lat="37.0761831" lon="14.6751569"><ele>502.0</ele><time>2026-04-24T15:48:24.616Z</time></trkpt><trkpt lat="37.0762069" lon="14.6752371"><ele>502.0</ele><time>2026-04-24T15:48:25.616Z</time></trkpt><trkpt lat="37.0762379" lon="14.6753276"><ele>502.0</ele><time>2026-04-24T15:48:26.616Z</time></trkpt><trkpt lat="37.0762609" lon="14.6754188"><ele>502.00000000000006</ele><time>2026-04-24T15:48:27.616Z</time></trkpt><trkpt lat="37.0762912" lon="14.6755126"><ele>502.0</ele><time>2026-04-24T15:48:28.616Z</time></trkpt><trkpt lat="37.0763003" lon="14.675603"><ele>502.50000000000006</ele><time>2026-04-24T15:48:29.617Z</time></trkpt><trkpt lat="37.0763008" lon="14.6756976"><ele>503.0</ele><time>2026-04-24T15:48:30.616Z</time></trkpt><trkpt lat="37.0762966" lon="14.6757866"><ele>503.5</ele><time>2026-04-24T15:48:31.616Z</time></trkpt><trkpt lat="37.0763081" lon="14.6758694"><ele>504.0</ele><time>2026-04-24T15:48:32.617Z</time></trkpt><trkpt lat="37.0763302" lon="14.6759461"><ele>504.50000000000006</ele><time>2026-04-24T15:48:33.616Z</time></trkpt><trkpt lat="37.0763258" lon="14.6761001"><ele>505.0</ele><time>2026-04-24T15:48:35.617Z</time></trkpt><trkpt lat="37.0763047" lon="14.6762668"><ele>505.5</ele><time>2026-04-24T15:48:37.617Z</time></trkpt><trkpt lat="37.0763249" lon="14.6764198"><ele>506.0</ele><time>2026-04-24T15:48:39.616Z</time></trkpt><trkpt lat="37.0763442" lon="14.6765624"><ele>506.5</ele><time>2026-04-24T15:48:41.617Z</time></trkpt><trkpt lat="37.0763547" lon="14.6767162"><ele>507.0</ele><time>2026-04-24T15:48:43.615Z</time></trkpt><trkpt lat="37.076384" lon="14.6768656"><ele>508.20000000000005</ele><time>2026-04-24T15:48:45.617Z</time></trkpt><trkpt lat="37.0764505" lon="14.6769985"><ele>509.40000000000003</ele><time>2026-04-24T15:48:47.616Z</time></trkpt><trkpt lat="37.0764709" lon="14.6770949"><ele>510.59999999999997</ele><time>2026-04-24T15:48:48.616Z</time></trkpt><trkpt lat="37.0764779" lon="14.6771756"><ele>511.79999999999995</ele><time>2026-04-24T15:48:49.615Z</time></trkpt><trkpt lat="37.076468" lon="14.6773315"><ele>513.0</ele><time>2026-04-24T15:48:51.616Z</time></trkpt><trkpt lat="37.0764476" lon="14.6774943"><ele>513.0000000000001</ele><time>2026-04-24T15:48:53.618Z</time></trkpt><trkpt lat="37.0764564" lon="14.6775784"><ele>513.0</ele><time>2026-04-24T15:48:54.616Z</time></trkpt><trkpt lat="37.0764528" lon="14.6776644"><ele>513.0</ele><time>2026-04-24T15:48:55.616Z</time></trkpt><trkpt lat="37.076447" lon="14.6777509"><ele>513.0</ele><time>2026-04-24T15:48:56.616Z</time></trkpt><trkpt lat="37.0764484" lon="14.6778338"><ele>513.0</ele><time>2026-04-24T15:48:57.616Z</time></trkpt><trkpt lat="37.0764633" lon="14.6779121"><ele>513.0000000000001</ele><time>2026-04-24T15:48:58.616Z</time></trkpt><trkpt lat="37.0764715" lon="14.6780033"><ele>513.0</ele><time>2026-04-24T15:48:59.616Z</time></trkpt><trkpt lat="37.0764833" lon="14.6780912"><ele>512.8333333333334</ele><time>2026-04-24T15:49:00.617Z</time></trkpt><trkpt lat="37.0764988" lon="14.6781836"><ele>512.6666666666666</ele><time>2026-04-24T15:49:01.616Z</time></trkpt><trkpt lat="37.0765056" lon="14.6782683"><ele>512.5</ele><time>2026-04-24T15:49:02.615Z</time></trkpt><trkpt lat="37.0765227" lon="14.6784233"><ele>512.3333333333333</ele><time>2026-04-24T15:49:04.616Z</time></trkpt><trkpt lat="37.0765311" lon="14.6785039"><ele>512.1666666666666</ele><time>2026-04-24T15:49:05.616Z</time></trkpt><trkpt lat="37.0765417" lon="14.6785943"><ele>512.0</ele><time>2026-04-24T15:49:06.618Z</time></trkpt><trkpt lat="37.076552" lon="14.6786846"><ele>511.99999999999994</ele><time>2026-04-24T15:49:07.616Z</time></trkpt><trkpt lat="37.0765707" lon="14.6787642"><ele>512.0</ele><time>2026-04-24T15:49:08.617Z</time></trkpt><trkpt lat="37.0765909" lon="14.6788464"><ele>512.0</ele><time>2026-04-24T15:49:09.617Z</time></trkpt><trkpt lat="37.0766063" lon="14.6789468"><ele>512.0</ele><time>2026-04-24T15:49:10.616Z</time></trkpt><trkpt lat="37.0766213" lon="14.6790456"><ele>511.99999999999994</ele><time>2026-04-24T15:49:11.616Z</time></trkpt><trkpt lat="37.0766498" lon="14.6791395"><ele>512.0</ele><time>2026-04-24T15:49:12.616Z</time></trkpt><trkpt lat="37.0766828" lon="14.6792303"><ele>512.3333333333333</ele><time>2026-04-24T15:49:13.616Z</time></trkpt><trkpt lat="37.0767165" lon="14.6793159"><ele>512.6666666666666</ele><time>2026-04-24T15:49:14.617Z</time></trkpt><trkpt lat="37.0767407" lon="14.6794144"><ele>513.0</ele><time>2026-04-24T15:49:15.617Z</time></trkpt><trkpt lat="37.0767619" lon="14.6795178"><ele>513.3333333333334</ele><time>2026-04-24T15:49:16.616Z</time></trkpt><trkpt lat="37.0767887" lon="14.6796185"><ele>513.6666666666667</ele><time>2026-04-24T15:49:17.616Z</time></trkpt><trkpt lat="37.0767964" lon="14.6797339"><ele>514.0</ele><time>2026-04-24T15:49:18.616Z</time></trkpt><trkpt lat="37.0768077" lon="14.6798521"><ele>514.0</ele><time>2026-04-24T15:49:19.616Z</time></trkpt><trkpt lat="37.076809" lon="14.6800785"><ele>514.0</ele><time>2026-04-24T15:49:21.616Z</time></trkpt><trkpt lat="37.076809" lon="14.680169"><ele>514.0</ele><time>2026-04-24T15:49:22.616Z</time></trkpt><trkpt lat="37.0768128" lon="14.6802773"><ele>514.0</ele><time>2026-04-24T15:49:23.615Z</time></trkpt><trkpt lat="37.0768082" lon="14.6803892"><ele>514.0</ele><time>2026-04-24T15:49:24.618Z</time></trkpt><trkpt lat="37.0767961" lon="14.6805095"><ele>512.4</ele><time>2026-04-24T15:49:25.615Z</time></trkpt><trkpt lat="37.076786" lon="14.6806246"><ele>510.79999999999995</ele><time>2026-04-24T15:49:26.616Z</time></trkpt><trkpt lat="37.0767756" lon="14.6807462"><ele>509.20000000000005</ele><time>2026-04-24T15:49:27.616Z</time></trkpt><trkpt lat="37.0767778" lon="14.6808631"><ele>507.6</ele><time>2026-04-24T15:49:28.616Z</time></trkpt><trkpt lat="37.0767705" lon="14.6809705"><ele>506.0</ele><time>2026-04-24T15:49:29.615Z</time></trkpt><trkpt lat="37.0767627" lon="14.6810707"><ele>504.99999999999994</ele><time>2026-04-24T15:49:30.617Z</time></trkpt><trkpt lat="37.0767644" lon="14.6811652"><ele>504.0</ele><time>2026-04-24T15:49:31.616Z</time></trkpt><trkpt lat="37.0767818" lon="14.6812461"><ele>503.0</ele><time>2026-04-24T15:49:32.617Z</time></trkpt><trkpt lat="37.0767885" lon="14.6813357"><ele>502.0</ele><time>2026-04-24T15:49:33.616Z</time></trkpt><trkpt lat="37.0767969" lon="14.681417"><ele>500.99999999999994</ele><time>2026-04-24T15:49:34.616Z</time></trkpt><trkpt lat="37.0767975" lon="14.6815554"><ele>500.0</ele><time>2026-04-24T15:49:36.616Z</time></trkpt><trkpt lat="37.0768041" lon="14.6816423"><ele>499.99999999999994</ele><time>2026-04-24T15:49:38.616Z</time></trkpt><trkpt lat="37.0768177" lon="14.6817261"><ele>500.0</ele><time>2026-04-24T15:49:40.616Z</time></trkpt><trkpt lat="37.0767843" lon="14.6818168"><ele>500.0</ele><time>2026-04-24T15:49:42.616Z</time></trkpt><trkpt lat="37.0767095" lon="14.6819232"><ele>500.0</ele><time>2026-04-24T15:49:44.616Z</time></trkpt><trkpt lat="37.0766661" lon="14.6819921"><ele>499.99999999999994</ele><time>2026-04-24T15:49:45.616Z</time></trkpt><trkpt lat="37.0766241" lon="14.6820556"><ele>500.0</ele><time>2026-04-24T15:49:46.616Z</time></trkpt><trkpt lat="37.0765749" lon="14.6821294"><ele>498.2</ele><time>2026-04-24T15:49:47.616Z</time></trkpt><trkpt lat="37.0765252" lon="14.6822069"><ele>496.4</ele><time>2026-04-24T15:49:48.616Z</time></trkpt><trkpt lat="37.0764736" lon="14.6822941"><ele>494.6</ele><time>2026-04-24T15:49:49.616Z</time></trkpt><trkpt lat="37.0764299" lon="14.6823671"><ele>492.8</ele><time>2026-04-24T15:49:50.617Z</time></trkpt><trkpt lat="37.0763184" lon="14.6824556"><ele>491.0</ele><time>2026-04-24T15:49:52.616Z</time></trkpt><trkpt lat="37.0762393" lon="14.6824882"><ele>491.0</ele><time>2026-04-24T15:49:53.616Z</time></trkpt><trkpt lat="37.0761456" lon="14.6825211"><ele>491.0</ele><time>2026-04-24T15:49:54.617Z</time></trkpt><trkpt lat="37.0760384" lon="14.6825714"><ele>491.0</ele><time>2026-04-24T15:49:55.616Z</time></trkpt><trkpt lat="37.07593" lon="14.6826183"><ele>491.0</ele><time>2026-04-24T15:49:56.616Z</time></trkpt><trkpt lat="37.0758061" lon="14.6826646"><ele>487.75</ele><time>2026-04-24T15:49:57.617Z</time></trkpt><trkpt lat="37.0756796" lon="14.6827197"><ele>484.5</ele><time>2026-04-24T15:49:58.617Z</time></trkpt><trkpt lat="37.0755584" lon="14.6827758"><ele>481.25</ele><time>2026-04-24T15:49:59.616Z</time></trkpt><trkpt lat="37.0754405" lon="14.6828204"><ele>478.0</ele><time>2026-04-24T15:50:00.617Z</time></trkpt><trkpt lat="37.0753171" lon="14.6828682"><ele>477.0</ele><time>2026-04-24T15:50:01.616Z</time></trkpt><trkpt lat="37.0751986" lon="14.6829133"><ele>476.0</ele><time>2026-04-24T15:50:02.616Z</time></trkpt><trkpt lat="37.0750732" lon="14.6829531"><ele>475.0</ele><time>2026-04-24T15:50:03.615Z</time></trkpt><trkpt lat="37.0749445" lon="14.6830009"><ele>474.0</ele><time>2026-04-24T15:50:04.616Z</time></trkpt><trkpt lat="37.074827" lon="14.6830488"><ele>471.5</ele><time>2026-04-24T15:50:05.617Z</time></trkpt><trkpt lat="37.0747046" lon="14.6830946"><ele>469.0</ele><time>2026-04-24T15:50:06.616Z</time></trkpt><trkpt lat="37.0745837" lon="14.683145"><ele>466.5</ele><time>2026-04-24T15:50:07.616Z</time></trkpt><trkpt lat="37.0744759" lon="14.6831851"><ele>464.0</ele><time>2026-04-24T15:50:08.616Z</time></trkpt><trkpt lat="37.0743823" lon="14.6832187"><ele>463.99999999999994</ele><time>2026-04-24T15:50:09.616Z</time></trkpt><trkpt lat="37.0743124" lon="14.68324"><ele>464.0</ele><time>2026-04-24T15:50:10.617Z</time></trkpt><trkpt lat="37.0742193" lon="14.6832838"><ele>464.0</ele><time>2026-04-24T15:50:12.615Z</time></trkpt><trkpt lat="37.0742" lon="14.6833677"><ele>464.0</ele><time>2026-04-24T15:51:04.617Z</time></trkpt><trkpt lat="37.0742664" lon="14.6834793"><ele>463.99999999999994</ele><time>2026-04-24T15:51:06.616Z</time></trkpt><trkpt lat="37.0743196" lon="14.6835677"><ele>464.0</ele><time>2026-04-24T15:51:07.616Z</time></trkpt><trkpt lat="37.0743862" lon="14.6836697"><ele>464.0</ele><time>2026-04-24T15:51:08.616Z</time></trkpt><trkpt lat="37.0744733" lon="14.6837755"><ele>464.0</ele><time>2026-04-24T15:51:09.616Z</time></trkpt><trkpt lat="37.0745588" lon="14.6839037"><ele>464.0</ele><time>2026-04-24T15:51:10.617Z</time></trkpt><trkpt lat="37.0746455" lon="14.6840401"><ele>464.0</ele><time>2026-04-24T15:51:11.616Z</time></trkpt><trkpt lat="37.0747347" lon="14.6841863"><ele>464.0</ele><time>2026-04-24T15:51:12.616Z</time></trkpt><trkpt lat="37.0748134" lon="14.6843376"><ele>464.0</ele><time>2026-04-24T15:51:13.616Z</time></trkpt><trkpt lat="37.0748842" lon="14.6844652"><ele>464.0</ele><time>2026-04-24T15:51:14.616Z</time></trkpt><trkpt lat="37.0749515" lon="14.6845807"><ele>464.0</ele><time>2026-04-24T15:51:15.616Z</time></trkpt><trkpt lat="37.0749949" lon="14.6846993"><ele>464.4</ele><time>2026-04-24T15:51:16.616Z</time></trkpt><trkpt lat="37.075016" lon="14.6848159"><ele>464.79999999999995</ele><time>2026-04-24T15:51:17.615Z</time></trkpt><trkpt lat="37.075007" lon="14.6849239"><ele>465.20000000000005</ele><time>2026-04-24T15:51:18.616Z</time></trkpt><trkpt lat="37.0749652" lon="14.6850306"><ele>465.6</ele><time>2026-04-24T15:51:19.617Z</time></trkpt><trkpt lat="37.0748945" lon="14.6851378"><ele>466.0</ele><time>2026-04-24T15:51:20.615Z</time></trkpt><trkpt lat="37.0748092" lon="14.6852565"><ele>467.75</ele><time>2026-04-24T15:51:21.617Z</time></trkpt><trkpt lat="37.0747199" lon="14.6853806"><ele>469.5</ele><time>2026-04-24T15:51:22.615Z</time></trkpt><trkpt lat="37.0746216" lon="14.6855155"><ele>471.25</ele><time>2026-04-24T15:51:23.617Z</time></trkpt><trkpt lat="37.07452" lon="14.685651"><ele>473.0</ele><time>2026-04-24T15:51:24.617Z</time></trkpt><trkpt lat="37.0744065" lon="14.6857877"><ele>473.0</ele><time>2026-04-24T15:51:25.618Z</time></trkpt><trkpt lat="37.0742871" lon="14.6859062"><ele>473.0</ele><time>2026-04-24T15:51:26.616Z</time></trkpt><trkpt lat="37.0741663" lon="14.6860089"><ele>473.0</ele><time>2026-04-24T15:51:27.617Z</time></trkpt><trkpt lat="37.0740324" lon="14.6860818"><ele>473.0</ele><time>2026-04-24T15:51:28.616Z</time></trkpt><trkpt lat="37.0739128" lon="14.6861506"><ele>474.4</ele><time>2026-04-24T15:51:29.616Z</time></trkpt><trkpt lat="37.0738103" lon="14.6862116"><ele>475.79999999999995</ele><time>2026-04-24T15:51:30.615Z</time></trkpt><trkpt lat="37.0737312" lon="14.6862639"><ele>477.2</ele><time>2026-04-24T15:51:31.616Z</time></trkpt><trkpt lat="37.0736567" lon="14.686294"><ele>478.6</ele><time>2026-04-24T15:51:32.616Z</time></trkpt><trkpt lat="37.0735802" lon="14.6863183"><ele>480.0</ele><time>2026-04-24T15:51:33.615Z</time></trkpt><trkpt lat="37.0734891" lon="14.6863328"><ele>480.0</ele><time>2026-04-24T15:51:34.616Z</time></trkpt><trkpt lat="37.0734074" lon="14.6863566"><ele>480.0</ele><time>2026-04-24T15:51:35.615Z</time></trkpt><trkpt lat="37.0733353" lon="14.6863852"><ele>480.0</ele><time>2026-04-24T15:51:36.618Z</time></trkpt><trkpt lat="37.0732592" lon="14.686407"><ele>480.0</ele><time>2026-04-24T15:51:37.616Z</time></trkpt><trkpt lat="37.0731847" lon="14.686428"><ele>480.0</ele><time>2026-04-24T15:51:38.616Z</time></trkpt><trkpt lat="37.0731125" lon="14.6864384"><ele>480.0</ele><time>2026-04-24T15:51:39.617Z</time></trkpt><trkpt lat="37.073039" lon="14.6864455"><ele>478.5</ele><time>2026-04-24T15:51:40.616Z</time></trkpt><trkpt lat="37.0729642" lon="14.6864551"><ele>477.0</ele><time>2026-04-24T15:51:41.616Z</time></trkpt><trkpt lat="37.0728854" lon="14.6864751"><ele>475.5</ele><time>2026-04-24T15:51:42.617Z</time></trkpt><trkpt lat="37.072805" lon="14.6864862"><ele>474.0</ele><time>2026-04-24T15:51:43.616Z</time></trkpt><trkpt lat="37.0727252" lon="14.6865109"><ele>472.5</ele><time>2026-04-24T15:51:44.617Z</time></trkpt><trkpt lat="37.0726421" lon="14.6865219"><ele>471.0</ele><time>2026-04-24T15:51:45.616Z</time></trkpt><trkpt lat="37.0725551" lon="14.6865314"><ele>471.0</ele><time>2026-04-24T15:51:46.616Z</time></trkpt><trkpt lat="37.0724735" lon="14.6865443"><ele>471.0</ele><time>2026-04-24T15:51:47.616Z</time></trkpt><trkpt lat="37.0723442" lon="14.6865867"><ele>471.0</ele><time>2026-04-24T15:51:49.616Z</time></trkpt><trkpt lat="37.0722798" lon="14.686608"><ele>471.0</ele><time>2026-04-24T15:51:50.616Z</time></trkpt><trkpt lat="37.0722156" lon="14.6866231"><ele>471.0</ele><time>2026-04-24T15:51:51.616Z</time></trkpt><trkpt lat="37.0721538" lon="14.6866467"><ele>471.0</ele><time>2026-04-24T15:51:52.616Z</time></trkpt><trkpt lat="37.0720886" lon="14.6866848"><ele>469.8333333333333</ele><time>2026-04-24T15:51:53.616Z</time></trkpt><trkpt lat="37.0720218" lon="14.6867149"><ele>468.66666666666663</ele><time>2026-04-24T15:51:54.616Z</time></trkpt><trkpt lat="37.0719553" lon="14.6867361"><ele>467.5</ele><time>2026-04-24T15:51:55.616Z</time></trkpt><trkpt lat="37.0718927" lon="14.6867691"><ele>466.3333333333333</ele><time>2026-04-24T15:51:56.616Z</time></trkpt><trkpt lat="37.0717672" lon="14.6867959"><ele>465.16666666666663</ele><time>2026-04-24T15:51:58.616Z</time></trkpt><trkpt lat="37.0716937" lon="14.6867988"><ele>464.0</ele><time>2026-04-24T15:51:59.617Z</time></trkpt><trkpt lat="37.0716295" lon="14.686796"><ele>463.49999999999994</ele><time>2026-04-24T15:52:00.616Z</time></trkpt><trkpt lat="37.0715155" lon="14.6867942"><ele>463.0</ele><time>2026-04-24T15:52:02.616Z</time></trkpt><trkpt lat="37.0714491" lon="14.686796"><ele>462.5</ele><time>2026-04-24T15:52:03.616Z</time></trkpt><trkpt lat="37.0713794" lon="14.6868002"><ele>462.0</ele><time>2026-04-24T15:52:04.617Z</time></trkpt><trkpt lat="37.0713107" lon="14.6867976"><ele>461.49999999999994</ele><time>2026-04-24T15:52:05.615Z</time></trkpt><trkpt lat="37.0712448" lon="14.6868109"><ele>461.0</ele><time>2026-04-24T15:52:06.616Z</time></trkpt><trkpt lat="37.0711153" lon="14.6868312"><ele>460.99999999999994</ele><time>2026-04-24T15:52:08.617Z</time></trkpt><trkpt lat="37.0709967" lon="14.6868225"><ele>461.0</ele><time>2026-04-24T15:52:10.616Z</time></trkpt><trkpt lat="37.0709319" lon="14.6868097"><ele>461.0</ele><time>2026-04-24T15:52:11.615Z</time></trkpt><trkpt lat="37.070867" lon="14.6867985"><ele>461.0</ele><time>2026-04-24T15:52:12.616Z</time></trkpt><trkpt lat="37.0707956" lon="14.6867939"><ele>460.99999999999994</ele><time>2026-04-24T15:52:13.617Z</time></trkpt><trkpt lat="37.0707196" lon="14.6867815"><ele>461.0</ele><time>2026-04-24T15:52:14.616Z</time></trkpt><trkpt lat="37.0706459" lon="14.6867662"><ele>460.3333333333333</ele><time>2026-04-24T15:52:15.617Z</time></trkpt><trkpt lat="37.0705826" lon="14.6867392"><ele>459.66666666666663</ele><time>2026-04-24T15:52:16.616Z</time></trkpt><trkpt lat="37.0705076" lon="14.6867243"><ele>459.0</ele><time>2026-04-24T15:52:17.616Z</time></trkpt><trkpt lat="37.0703672" lon="14.6866945"><ele>458.33333333333337</ele><time>2026-04-24T15:52:19.616Z</time></trkpt><trkpt lat="37.0702974" lon="14.6866978"><ele>457.6666666666667</ele><time>2026-04-24T15:52:20.616Z</time></trkpt><trkpt lat="37.0702224" lon="14.6866932"><ele>457.0</ele><time>2026-04-24T15:52:21.616Z</time></trkpt><trkpt lat="37.0701497" lon="14.6866825"><ele>457.00000000000006</ele><time>2026-04-24T15:52:22.616Z</time></trkpt><trkpt lat="37.0700767" lon="14.6867022"><ele>457.0</ele><time>2026-04-24T15:52:23.617Z</time></trkpt><trkpt lat="37.0700038" lon="14.6867203"><ele>457.0</ele><time>2026-04-24T15:52:24.617Z</time></trkpt><trkpt lat="37.0699296" lon="14.6867631"><ele>457.0</ele><time>2026-04-24T15:52:25.616Z</time></trkpt><trkpt lat="37.0698539" lon="14.6867989"><ele>457.00000000000006</ele><time>2026-04-24T15:52:26.615Z</time></trkpt><trkpt lat="37.0697793" lon="14.6868118"><ele>457.0</ele><time>2026-04-24T15:52:27.617Z</time></trkpt><trkpt lat="37.0697009" lon="14.686841"><ele>456.33333333333337</ele><time>2026-04-24T15:52:28.616Z</time></trkpt><trkpt lat="37.0696247" lon="14.6868613"><ele>455.6666666666667</ele><time>2026-04-24T15:52:29.616Z</time></trkpt><trkpt lat="37.0695488" lon="14.6868754"><ele>455.0</ele><time>2026-04-24T15:52:30.617Z</time></trkpt><trkpt lat="37.0694712" lon="14.6868907"><ele>454.33333333333337</ele><time>2026-04-24T15:52:31.616Z</time></trkpt><trkpt lat="37.0693905" lon="14.6869142"><ele>453.6666666666667</ele><time>2026-04-24T15:52:32.616Z</time></trkpt><trkpt lat="37.0693051" lon="14.6869116"><ele>453.0</ele><time>2026-04-24T15:52:33.617Z</time></trkpt><trkpt lat="37.0692144" lon="14.6869044"><ele>453.0</ele><time>2026-04-24T15:52:34.616Z</time></trkpt><trkpt lat="37.0691146" lon="14.6869036"><ele>452.99999999999994</ele><time>2026-04-24T15:52:35.616Z</time></trkpt><trkpt lat="37.0690036" lon="14.6869038"><ele>452.99999999999994</ele><time>2026-04-24T15:52:36.617Z</time></trkpt><trkpt lat="37.0689055" lon="14.6869119"><ele>453.0</ele><time>2026-04-24T15:52:37.617Z</time></trkpt><trkpt lat="37.0688045" lon="14.6869275"><ele>453.0</ele><time>2026-04-24T15:52:38.616Z</time></trkpt><trkpt lat="37.0687104" lon="14.6869477"><ele>453.4</ele><time>2026-04-24T15:52:39.616Z</time></trkpt><trkpt lat="37.0686121" lon="14.686951"><ele>453.79999999999995</ele><time>2026-04-24T15:52:40.616Z</time></trkpt><trkpt lat="37.0685074" lon="14.6869582"><ele>454.2</ele><time>2026-04-24T15:52:41.617Z</time></trkpt><trkpt lat="37.0684153" lon="14.6869795"><ele>454.6</ele><time>2026-04-24T15:52:42.616Z</time></trkpt><trkpt lat="37.0683282" lon="14.6870111"><ele>455.0</ele><time>2026-04-24T15:52:43.616Z</time></trkpt><trkpt lat="37.0682528" lon="14.6870587"><ele>454.3333333333333</ele><time>2026-04-24T15:52:44.616Z</time></trkpt><trkpt lat="37.0681858" lon="14.6870963"><ele>453.66666666666663</ele><time>2026-04-24T15:52:45.617Z</time></trkpt><trkpt lat="37.0681226" lon="14.687114"><ele>453.0</ele><time>2026-04-24T15:52:46.616Z</time></trkpt><trkpt lat="37.0680495" lon="14.6871084"><ele>452.33333333333337</ele><time>2026-04-24T15:52:47.615Z</time></trkpt><trkpt lat="37.0679724" lon="14.6871087"><ele>451.6666666666667</ele><time>2026-04-24T15:52:48.616Z</time></trkpt><trkpt lat="37.0678931" lon="14.6871283"><ele>451.0</ele><time>2026-04-24T15:52:49.617Z</time></trkpt><trkpt lat="37.0678133" lon="14.6871472"><ele>451.00000000000006</ele><time>2026-04-24T15:52:50.616Z</time></trkpt><trkpt lat="37.0677229" lon="14.6871546"><ele>451.0</ele><time>2026-04-24T15:52:51.616Z</time></trkpt><trkpt lat="37.0676346" lon="14.6871448"><ele>451.0</ele><time>2026-04-24T15:52:52.617Z</time></trkpt><trkpt lat="37.0675496" lon="14.6871376"><ele>451.0</ele><time>2026-04-24T15:52:53.617Z</time></trkpt><trkpt lat="37.0674678" lon="14.6871412"><ele>451.00000000000006</ele><time>2026-04-24T15:52:54.617Z</time></trkpt><trkpt lat="37.0673878" lon="14.6871538"><ele>451.0</ele><time>2026-04-24T15:52:55.615Z</time></trkpt><trkpt lat="37.0673103" lon="14.6871889"><ele>450.50000000000006</ele><time>2026-04-24T15:52:56.616Z</time></trkpt><trkpt lat="37.067232" lon="14.6872086"><ele>450.0</ele><time>2026-04-24T15:52:57.616Z</time></trkpt><trkpt lat="37.0671465" lon="14.6872202"><ele>449.5</ele><time>2026-04-24T15:52:58.615Z</time></trkpt><trkpt lat="37.0670534" lon="14.6872371"><ele>449.0</ele><time>2026-04-24T15:52:59.616Z</time></trkpt><trkpt lat="37.0669621" lon="14.6872496"><ele>448.50000000000006</ele><time>2026-04-24T15:53:00.617Z</time></trkpt><trkpt lat="37.0668784" lon="14.6872532"><ele>448.0</ele><time>2026-04-24T15:53:01.617Z</time></trkpt><trkpt lat="37.0667987" lon="14.6872908"><ele>448.0</ele><time>2026-04-24T15:53:02.615Z</time></trkpt><trkpt lat="37.0667191" lon="14.6872985"><ele>447.99999999999994</ele><time>2026-04-24T15:53:03.616Z</time></trkpt><trkpt lat="37.0666287" lon="14.6873173"><ele>447.99999999999994</ele><time>2026-04-24T15:53:04.616Z</time></trkpt><trkpt lat="37.0665309" lon="14.6873507"><ele>448.0</ele><time>2026-04-24T15:53:05.616Z</time></trkpt><trkpt lat="37.0664361" lon="14.6873865"><ele>448.0</ele><time>2026-04-24T15:53:06.616Z</time></trkpt><trkpt lat="37.0663247" lon="14.6874258"><ele>446.75</ele><time>2026-04-24T15:53:07.616Z</time></trkpt><trkpt lat="37.0662022" lon="14.6874667"><ele>445.5</ele><time>2026-04-24T15:53:08.616Z</time></trkpt><trkpt lat="37.0660879" lon="14.6875195"><ele>444.25</ele><time>2026-04-24T15:53:09.615Z</time></trkpt><trkpt lat="37.0659736" lon="14.6875773"><ele>443.0</ele><time>2026-04-24T15:53:10.618Z</time></trkpt><trkpt lat="37.0658695" lon="14.6876124"><ele>442.0</ele><time>2026-04-24T15:53:11.616Z</time></trkpt><trkpt lat="37.0657753" lon="14.6876208"><ele>440.99999999999994</ele><time>2026-04-24T15:53:12.618Z</time></trkpt><trkpt lat="37.0656874" lon="14.6876208"><ele>439.99999999999994</ele><time>2026-04-24T15:53:13.617Z</time></trkpt><trkpt lat="37.0655916" lon="14.6875433"><ele>439.0</ele><time>2026-04-24T15:53:14.616Z</time></trkpt><trkpt lat="37.065485" lon="14.6874793"><ele>438.0</ele><time>2026-04-24T15:53:15.616Z</time></trkpt><trkpt lat="37.065366" lon="14.6874158"><ele>438.0</ele><time>2026-04-24T15:53:16.616Z</time></trkpt><trkpt lat="37.0652607" lon="14.6873581"><ele>438.0</ele><time>2026-04-24T15:53:17.615Z</time></trkpt><trkpt lat="37.0651512" lon="14.6872856"><ele>438.0</ele><time>2026-04-24T15:53:18.617Z</time></trkpt><trkpt lat="37.0650464" lon="14.6872057"><ele>438.0</ele><time>2026-04-24T15:53:19.616Z</time></trkpt><trkpt lat="37.0649311" lon="14.6871392"><ele>436.75</ele><time>2026-04-24T15:53:20.616Z</time></trkpt><trkpt lat="37.0648157" lon="14.6870835"><ele>435.5</ele><time>2026-04-24T15:53:21.616Z</time></trkpt><trkpt lat="37.0646986" lon="14.6870306"><ele>434.25</ele><time>2026-04-24T15:53:22.615Z</time></trkpt><trkpt lat="37.064582" lon="14.6869885"><ele>433.0</ele><time>2026-04-24T15:53:23.617Z</time></trkpt><trkpt lat="37.0644854" lon="14.686954"><ele>431.5</ele><time>2026-04-24T15:53:24.615Z</time></trkpt><trkpt lat="37.0643782" lon="14.6868922"><ele>430.0</ele><time>2026-04-24T15:53:25.616Z</time></trkpt><trkpt lat="37.0642781" lon="14.6868382"><ele>428.5</ele><time>2026-04-24T15:53:26.616Z</time></trkpt><trkpt lat="37.064171" lon="14.6867751"><ele>427.0</ele><time>2026-04-24T15:53:27.616Z</time></trkpt><trkpt lat="37.0640645" lon="14.6867105"><ele>427.0</ele><time>2026-04-24T15:53:28.617Z</time></trkpt><trkpt lat="37.0639446" lon="14.6866394"><ele>427.0</ele><time>2026-04-24T15:53:29.616Z</time></trkpt><trkpt lat="37.0638211" lon="14.686572"><ele>427.0</ele><time>2026-04-24T15:53:30.616Z</time></trkpt><trkpt lat="37.0637114" lon="14.686508"><ele>427.0</ele><time>2026-04-24T15:53:31.616Z</time></trkpt><trkpt lat="37.0636094" lon="14.6864356"><ele>427.0</ele><time>2026-04-24T15:53:32.616Z</time></trkpt><trkpt lat="37.0635136" lon="14.6863609"><ele>427.00000000000006</ele><time>2026-04-24T15:53:33.616Z</time></trkpt><trkpt lat="37.0634189" lon="14.6863011"><ele>427.00000000000006</ele><time>2026-04-24T15:53:34.616Z</time></trkpt><trkpt lat="37.0633352" lon="14.6862695"><ele>427.0</ele><time>2026-04-24T15:53:35.617Z</time></trkpt><trkpt lat="37.0632669" lon="14.6862416"><ele>427.0</ele><time>2026-04-24T15:53:36.617Z</time></trkpt><trkpt lat="37.0631681" lon="14.6862153"><ele>426.20000000000005</ele><time>2026-04-24T15:53:38.617Z</time></trkpt><trkpt lat="37.0630984" lon="14.6862306"><ele>425.40000000000003</ele><time>2026-04-24T15:53:39.617Z</time></trkpt><trkpt lat="37.063007" lon="14.6862546"><ele>424.6</ele><time>2026-04-24T15:53:40.616Z</time></trkpt><trkpt lat="37.0628897" lon="14.686284"><ele>423.79999999999995</ele><time>2026-04-24T15:53:41.616Z</time></trkpt><trkpt lat="37.0627542" lon="14.6863142"><ele>423.0</ele><time>2026-04-24T15:53:42.616Z</time></trkpt><trkpt lat="37.0626113" lon="14.6863488"><ele>423.0</ele><time>2026-04-24T15:53:43.617Z</time></trkpt><trkpt lat="37.0624526" lon="14.6863804"><ele>423.0</ele><time>2026-04-24T15:53:44.617Z</time></trkpt><trkpt lat="37.062293" lon="14.6864084"><ele>423.0</ele><time>2026-04-24T15:53:45.616Z</time></trkpt><trkpt lat="37.062123" lon="14.6864315"><ele>421.33333333333337</ele><time>2026-04-24T15:53:46.616Z</time></trkpt><trkpt lat="37.0619519" lon="14.6864515"><ele>419.6666666666667</ele><time>2026-04-24T15:53:47.616Z</time></trkpt><trkpt lat="37.0617935" lon="14.686489"><ele>418.0</ele><time>2026-04-24T15:53:48.617Z</time></trkpt><trkpt lat="37.0616284" lon="14.6865136"><ele>417.33333333333337</ele><time>2026-04-24T15:53:49.616Z</time></trkpt><trkpt lat="37.061462" lon="14.6865251"><ele>416.66666666666663</ele><time>2026-04-24T15:53:50.617Z</time></trkpt><trkpt lat="37.0612999" lon="14.6865221"><ele>416.0</ele><time>2026-04-24T15:53:51.616Z</time></trkpt><trkpt lat="37.0611359" lon="14.6865039"><ele>416.0</ele><time>2026-04-24T15:53:52.617Z</time></trkpt><trkpt lat="37.0609665" lon="14.6864744"><ele>416.0</ele><time>2026-04-24T15:53:53.617Z</time></trkpt><trkpt lat="37.0607874" lon="14.6864399"><ele>416.0</ele><time>2026-04-24T15:53:54.616Z</time></trkpt><trkpt lat="37.0606102" lon="14.6863978"><ele>415.0</ele><time>2026-04-24T15:53:55.617Z</time></trkpt><trkpt lat="37.0604393" lon="14.6863525"><ele>414.0</ele><time>2026-04-24T15:53:56.616Z</time></trkpt><trkpt lat="37.060263" lon="14.6863079"><ele>413.0</ele><time>2026-04-24T15:53:57.616Z</time></trkpt><trkpt lat="37.060091" lon="14.6862504"><ele>412.66666666666663</ele><time>2026-04-24T15:53:58.615Z</time></trkpt><trkpt lat="37.059917" lon="14.6861843"><ele>412.33333333333337</ele><time>2026-04-24T15:53:59.616Z</time></trkpt><trkpt lat="37.059747" lon="14.686114"><ele>412.0</ele><time>2026-04-24T15:54:00.616Z</time></trkpt><trkpt lat="37.0595855" lon="14.6860395"><ele>411.33333333333337</ele><time>2026-04-24T15:54:01.615Z</time></trkpt><trkpt lat="37.0594313" lon="14.6859807"><ele>410.66666666666663</ele><time>2026-04-24T15:54:02.616Z</time></trkpt><trkpt lat="37.0592721" lon="14.6859393"><ele>410.0</ele><time>2026-04-24T15:54:03.616Z</time></trkpt><trkpt lat="37.059113" lon="14.6859019"><ele>410.0</ele><time>2026-04-24T15:54:04.616Z</time></trkpt><trkpt lat="37.0589704" lon="14.6858692"><ele>410.0</ele><time>2026-04-24T15:54:05.617Z</time></trkpt><trkpt lat="37.0588564" lon="14.6858553"><ele>410.0</ele><time>2026-04-24T15:54:06.616Z</time></trkpt><trkpt lat="37.0587452" lon="14.6858643"><ele>410.0</ele><time>2026-04-24T15:54:07.615Z</time></trkpt><trkpt lat="37.0586274" lon="14.6858878"><ele>410.0</ele><time>2026-04-24T15:54:08.616Z</time></trkpt><trkpt lat="37.0585131" lon="14.6859012"><ele>410.0</ele><time>2026-04-24T15:54:09.616Z</time></trkpt><trkpt lat="37.0583711" lon="14.6859008"><ele>410.0</ele><time>2026-04-24T15:54:10.616Z</time></trkpt><trkpt lat="37.0582244" lon="14.685899"><ele>410.0</ele><time>2026-04-24T15:54:11.617Z</time></trkpt><trkpt lat="37.0580637" lon="14.6859266"><ele>410.0</ele><time>2026-04-24T15:54:12.616Z</time></trkpt><trkpt lat="37.0579128" lon="14.6859496"><ele>410.0</ele><time>2026-04-24T15:54:13.616Z</time></trkpt><trkpt lat="37.0577643" lon="14.6859948"><ele>410.0</ele><time>2026-04-24T15:54:14.617Z</time></trkpt><trkpt lat="37.0576268" lon="14.6860383"><ele>410.0</ele><time>2026-04-24T15:54:15.616Z</time></trkpt><trkpt lat="37.057489" lon="14.6860918"><ele>410.66666666666663</ele><time>2026-04-24T15:54:16.617Z</time></trkpt><trkpt lat="37.0573454" lon="14.686151"><ele>411.33333333333337</ele><time>2026-04-24T15:54:17.616Z</time></trkpt><trkpt lat="37.0571967" lon="14.686206"><ele>412.0</ele><time>2026-04-24T15:54:18.617Z</time></trkpt><trkpt lat="37.0570383" lon="14.6862555"><ele>412.0</ele><time>2026-04-24T15:54:19.617Z</time></trkpt><trkpt lat="37.0568649" lon="14.6863095"><ele>412.0</ele><time>2026-04-24T15:54:20.616Z</time></trkpt><trkpt lat="37.0566894" lon="14.6863532"><ele>412.0</ele><time>2026-04-24T15:54:21.615Z</time></trkpt><trkpt lat="37.0565117" lon="14.6863906"><ele>411.0</ele><time>2026-04-24T15:54:22.616Z</time></trkpt><trkpt lat="37.0563318" lon="14.6864193"><ele>410.0</ele><time>2026-04-24T15:54:23.616Z</time></trkpt><trkpt lat="37.0561508" lon="14.6864434"><ele>409.0</ele><time>2026-04-24T15:54:24.616Z</time></trkpt><trkpt lat="37.055969" lon="14.6864703"><ele>409.0</ele><time>2026-04-24T15:54:25.616Z</time></trkpt><trkpt lat="37.0557937" lon="14.6864901"><ele>409.0</ele><time>2026-04-24T15:54:26.615Z</time></trkpt><trkpt lat="37.0556146" lon="14.686506"><ele>409.0</ele><time>2026-04-24T15:54:27.616Z</time></trkpt><trkpt lat="37.0554342" lon="14.6865124"><ele>408.33333333333337</ele><time>2026-04-24T15:54:28.616Z</time></trkpt><trkpt lat="37.0552512" lon="14.6865025"><ele>407.66666666666663</ele><time>2026-04-24T15:54:29.616Z</time></trkpt><trkpt lat="37.0550676" lon="14.686486"><ele>407.0</ele><time>2026-04-24T15:54:30.616Z</time></trkpt><trkpt lat="37.0548905" lon="14.6864579"><ele>407.0</ele><time>2026-04-24T15:54:31.615Z</time></trkpt><trkpt lat="37.0547107" lon="14.686434"><ele>407.0</ele><time>2026-04-24T15:54:32.617Z</time></trkpt><trkpt lat="37.0545309" lon="14.6864139"><ele>407.0</ele><time>2026-04-24T15:54:33.616Z</time></trkpt><trkpt lat="37.0543526" lon="14.6863899"><ele>407.0</ele><time>2026-04-24T15:54:34.616Z</time></trkpt><trkpt lat="37.0541847" lon="14.6863519"><ele>407.0</ele><time>2026-04-24T15:54:35.617Z</time></trkpt><trkpt lat="37.0540074" lon="14.6863096"><ele>407.0</ele><time>2026-04-24T15:54:36.617Z</time></trkpt><trkpt lat="37.0538287" lon="14.6862665"><ele>406.66666666666663</ele><time>2026-04-24T15:54:37.616Z</time></trkpt><trkpt lat="37.0536571" lon="14.6862222"><ele>406.33333333333337</ele><time>2026-04-24T15:54:38.616Z</time></trkpt><trkpt lat="37.0534779" lon="14.6861942"><ele>406.0</ele><time>2026-04-24T15:54:39.616Z</time></trkpt><trkpt lat="37.0532969" lon="14.6861629"><ele>405.6666666666667</ele><time>2026-04-24T15:54:40.616Z</time></trkpt><trkpt lat="37.0531159" lon="14.6861285"><ele>405.33333333333337</ele><time>2026-04-24T15:54:41.616Z</time></trkpt><trkpt lat="37.0529339" lon="14.6861096"><ele>405.0</ele><time>2026-04-24T15:54:42.617Z</time></trkpt><trkpt lat="37.0527535" lon="14.6860879"><ele>403.33333333333337</ele><time>2026-04-24T15:54:43.617Z</time></trkpt><trkpt lat="37.0525777" lon="14.686064"><ele>401.6666666666667</ele><time>2026-04-24T15:54:44.616Z</time></trkpt><trkpt lat="37.0524003" lon="14.686043"><ele>400.0</ele><time>2026-04-24T15:54:45.615Z</time></trkpt><trkpt lat="37.0522265" lon="14.6860145"><ele>399.0</ele><time>2026-04-24T15:54:46.615Z</time></trkpt><trkpt lat="37.0520518" lon="14.6859843"><ele>398.0</ele><time>2026-04-24T15:54:47.616Z</time></trkpt><trkpt lat="37.0518795" lon="14.6859501"><ele>397.0</ele><time>2026-04-24T15:54:48.617Z</time></trkpt><trkpt lat="37.0517051" lon="14.6859209"><ele>396.0</ele><time>2026-04-24T15:54:49.615Z</time></trkpt><trkpt lat="37.0515319" lon="14.6858869"><ele>395.0</ele><time>2026-04-24T15:54:50.616Z</time></trkpt><trkpt lat="37.0513686" lon="14.6858543"><ele>394.0</ele><time>2026-04-24T15:54:51.617Z</time></trkpt><trkpt lat="37.0512301" lon="14.6858305"><ele>394.0</ele><time>2026-04-24T15:54:52.616Z</time></trkpt><trkpt lat="37.0510901" lon="14.6858256"><ele>394.0</ele><time>2026-04-24T15:54:53.617Z</time></trkpt><trkpt lat="37.0509562" lon="14.685836"><ele>394.0</ele><time>2026-04-24T15:54:54.616Z</time></trkpt><trkpt lat="37.0508205" lon="14.6858663"><ele>394.0</ele><time>2026-04-24T15:54:55.616Z</time></trkpt><trkpt lat="37.0506834" lon="14.6859177"><ele>393.25</ele><time>2026-04-24T15:54:56.616Z</time></trkpt><trkpt lat="37.0505519" lon="14.6859635"><ele>392.5</ele><time>2026-04-24T15:54:57.617Z</time></trkpt><trkpt lat="37.0504264" lon="14.6859966"><ele>391.75</ele><time>2026-04-24T15:54:58.616Z</time></trkpt><trkpt lat="37.0503011" lon="14.6860089"><ele>391.0</ele><time>2026-04-24T15:54:59.617Z</time></trkpt><trkpt lat="37.0501677" lon="14.6859712"><ele>391.0</ele><time>2026-04-24T15:55:00.616Z</time></trkpt><trkpt lat="37.050022" lon="14.6859261"><ele>391.0</ele><time>2026-04-24T15:55:01.616Z</time></trkpt><trkpt lat="37.0498776" lon="14.6858959"><ele>391.0</ele><time>2026-04-24T15:55:02.616Z</time></trkpt><trkpt lat="37.0497426" lon="14.6858936"><ele>391.0</ele><time>2026-04-24T15:55:03.616Z</time></trkpt><trkpt lat="37.0496009" lon="14.6859256"><ele>391.33333333333337</ele><time>2026-04-24T15:55:04.616Z</time></trkpt><trkpt lat="37.0494519" lon="14.6859802"><ele>391.66666666666663</ele><time>2026-04-24T15:55:05.616Z</time></trkpt><trkpt lat="37.0492958" lon="14.6860461"><ele>392.0</ele><time>2026-04-24T15:55:06.616Z</time></trkpt><trkpt lat="37.0491357" lon="14.6861144"><ele>392.66666666666663</ele><time>2026-04-24T15:55:07.616Z</time></trkpt><trkpt lat="37.0489755" lon="14.6861894"><ele>393.33333333333337</ele><time>2026-04-24T15:55:08.615Z</time></trkpt><trkpt lat="37.0488075" lon="14.6862686"><ele>394.0</ele><time>2026-04-24T15:55:09.616Z</time></trkpt><trkpt lat="37.0486431" lon="14.6863371"><ele>394.0</ele><time>2026-04-24T15:55:10.616Z</time></trkpt><trkpt lat="37.0484825" lon="14.68641"><ele>394.0</ele><time>2026-04-24T15:55:11.616Z</time></trkpt><trkpt lat="37.0483281" lon="14.6864984"><ele>394.0</ele><time>2026-04-24T15:55:12.617Z</time></trkpt><trkpt lat="37.0481736" lon="14.6865914"><ele>394.33333333333337</ele><time>2026-04-24T15:55:13.615Z</time></trkpt><trkpt lat="37.0480253" lon="14.6866938"><ele>394.66666666666663</ele><time>2026-04-24T15:55:14.616Z</time></trkpt><trkpt lat="37.0478724" lon="14.6868014"><ele>395.0</ele><time>2026-04-24T15:55:15.617Z</time></trkpt><trkpt lat="37.0477176" lon="14.6869023"><ele>395.3333333333333</ele><time>2026-04-24T15:55:16.615Z</time></trkpt><trkpt lat="37.0475668" lon="14.6869953"><ele>395.66666666666663</ele><time>2026-04-24T15:55:17.616Z</time></trkpt><trkpt lat="37.0474084" lon="14.6870783"><ele>396.0</ele><time>2026-04-24T15:55:18.616Z</time></trkpt><trkpt lat="37.0472375" lon="14.6871526"><ele>397.66666666666663</ele><time>2026-04-24T15:55:19.616Z</time></trkpt><trkpt lat="37.047062" lon="14.687209"><ele>399.3333333333333</ele><time>2026-04-24T15:55:20.617Z</time></trkpt><trkpt lat="37.0468936" lon="14.6872702"><ele>401.0</ele><time>2026-04-24T15:55:21.616Z</time></trkpt><trkpt lat="37.0467248" lon="14.6873436"><ele>403.3333333333333</ele><time>2026-04-24T15:55:22.616Z</time></trkpt><trkpt lat="37.046559" lon="14.6874254"><ele>405.66666666666663</ele><time>2026-04-24T15:55:23.616Z</time></trkpt><trkpt lat="37.0464019" lon="14.6875199"><ele>408.0</ele><time>2026-04-24T15:55:24.617Z</time></trkpt><trkpt lat="37.0462503" lon="14.6876222"><ele>408.0</ele><time>2026-04-24T15:55:25.616Z</time></trkpt><trkpt lat="37.0461033" lon="14.687736"><ele>408.0</ele><time>2026-04-24T15:55:26.615Z</time></trkpt><trkpt lat="37.045966" lon="14.6878312"><ele>408.0</ele><time>2026-04-24T15:55:27.616Z</time></trkpt><trkpt lat="37.0458345" lon="14.687898"><ele>411.25</ele><time>2026-04-24T15:55:28.616Z</time></trkpt><trkpt lat="37.0456997" lon="14.6879247"><ele>414.5</ele><time>2026-04-24T15:55:29.618Z</time></trkpt><trkpt lat="37.0455621" lon="14.6879367"><ele>417.75</ele><time>2026-04-24T15:55:30.615Z</time></trkpt><trkpt lat="37.0454184" lon="14.6879327"><ele>421.0</ele><time>2026-04-24T15:55:31.616Z</time></trkpt><trkpt lat="37.0452773" lon="14.6879103"><ele>421.0</ele><time>2026-04-24T15:55:32.616Z</time></trkpt><trkpt lat="37.0451351" lon="14.6878872"><ele>421.0</ele><time>2026-04-24T15:55:33.616Z</time></trkpt><trkpt lat="37.04499" lon="14.6878588"><ele>421.0</ele><time>2026-04-24T15:55:34.616Z</time></trkpt><trkpt lat="37.0448547" lon="14.6878563"><ele>421.0</ele><time>2026-04-24T15:55:35.615Z</time></trkpt><trkpt lat="37.0447455" lon="14.6878665"><ele>420.83333333333337</ele><time>2026-04-24T15:55:36.617Z</time></trkpt><trkpt lat="37.044665" lon="14.6878682"><ele>420.6666666666667</ele><time>2026-04-24T15:55:37.615Z</time></trkpt><trkpt lat="37.0445758" lon="14.68784"><ele>420.5</ele><time>2026-04-24T15:55:39.617Z</time></trkpt><trkpt lat="37.0445129" lon="14.6877169"><ele>420.33333333333337</ele><time>2026-04-24T15:55:41.616Z</time></trkpt><trkpt lat="37.0444423" lon="14.6876628"><ele>420.1666666666667</ele><time>2026-04-24T15:55:43.617Z</time></trkpt><trkpt lat="37.0444011" lon="14.6877288"><ele>420.0</ele><time>2026-04-24T15:55:45.617Z</time></trkpt><trkpt lat="37.0443895" lon="14.6878941"><ele>421.1666666666667</ele><time>2026-04-24T15:55:47.616Z</time></trkpt><trkpt lat="37.0443754" lon="14.6879874"><ele>422.33333333333337</ele><time>2026-04-24T15:55:48.617Z</time></trkpt><trkpt lat="37.0443252" lon="14.6880823"><ele>423.5</ele><time>2026-04-24T15:55:49.618Z</time></trkpt><trkpt lat="37.0442718" lon="14.6881811"><ele>424.6666666666667</ele><time>2026-04-24T15:55:50.616Z</time></trkpt><trkpt lat="37.0442039" lon="14.6882674"><ele>425.83333333333337</ele><time>2026-04-24T15:55:51.616Z</time></trkpt><trkpt lat="37.0441466" lon="14.6883219"><ele>427.0</ele><time>2026-04-24T15:55:52.616Z</time></trkpt><trkpt lat="37.0440967" lon="14.6883832"><ele>427.1666666666667</ele><time>2026-04-24T15:55:54.616Z</time></trkpt><trkpt lat="37.0441788" lon="14.6883923"><ele>427.33333333333337</ele><time>2026-04-24T15:55:57.616Z</time></trkpt><trkpt lat="37.0442419" lon="14.6884483"><ele>427.5</ele><time>2026-04-24T15:56:00.617Z</time></trkpt><trkpt lat="37.0442765" lon="14.6885255"><ele>427.66666666666663</ele><time>2026-04-24T15:56:02.616Z</time></trkpt><trkpt lat="37.0443165" lon="14.6886286"><ele>427.8333333333333</ele><time>2026-04-24T15:56:05.616Z</time></trkpt><trkpt lat="37.0443415" lon="14.6887598"><ele>428.0</ele><time>2026-04-24T15:56:15.616Z</time></trkpt><trkpt lat="37.0443781" lon="14.6889261"><ele>429.79999999999995</ele><time>2026-04-24T15:56:17.616Z</time></trkpt><trkpt lat="37.0444058" lon="14.6890641"><ele>431.59999999999997</ele><time>2026-04-24T15:56:19.616Z</time></trkpt><trkpt lat="37.044418" lon="14.6891849"><ele>433.40000000000003</ele><time>2026-04-24T15:56:21.615Z</time></trkpt><trkpt lat="37.0444425" lon="14.6893243"><ele>435.20000000000005</ele><time>2026-04-24T15:56:23.616Z</time></trkpt><trkpt lat="37.0444556" lon="14.6894196"><ele>437.0</ele><time>2026-04-24T15:56:25.616Z</time></trkpt><trkpt lat="37.0444591" lon="14.6895078"><ele>438.3333333333333</ele><time>2026-04-24T15:56:27.616Z</time></trkpt><trkpt lat="37.0444862" lon="14.6896024"><ele>439.66666666666663</ele><time>2026-04-24T15:56:29.616Z</time></trkpt><trkpt lat="37.0444975" lon="14.6897168"><ele>441.0</ele><time>2026-04-24T15:56:31.616Z</time></trkpt><trkpt lat="37.044508" lon="14.689821"><ele>442.33333333333337</ele><time>2026-04-24T15:56:33.616Z</time></trkpt><trkpt lat="37.0445502" lon="14.6898977"><ele>443.6666666666667</ele><time>2026-04-24T15:56:35.617Z</time></trkpt><trkpt lat="37.0445519" lon="14.6900127"><ele>445.0</ele><time>2026-04-24T15:56:37.615Z</time></trkpt><trkpt lat="37.0445516" lon="14.6901275"><ele>445.00000000000006</ele><time>2026-04-24T15:56:39.617Z</time></trkpt><trkpt lat="37.0445845" lon="14.6902166"><ele>445.0</ele><time>2026-04-24T15:56:41.616Z</time></trkpt><trkpt lat="37.0446053" lon="14.6903156"><ele>445.0</ele><time>2026-04-24T15:56:44.616Z</time></trkpt><trkpt lat="37.0446096" lon="14.6904057"><ele>445.0</ele><time>2026-04-24T15:56:46.618Z</time></trkpt><trkpt lat="37.0446177" lon="14.6905262"><ele>445.00000000000006</ele><time>2026-04-24T15:56:49.616Z</time></trkpt><trkpt lat="37.0446283" lon="14.6906104"><ele>445.0</ele><time>2026-04-24T15:56:51.616Z</time></trkpt><trkpt lat="37.0446467" lon="14.6907125"><ele>446.6666666666667</ele><time>2026-04-24T15:56:54.616Z</time></trkpt><trkpt lat="37.0446625" lon="14.6908297"><ele>448.33333333333337</ele><time>2026-04-24T15:56:57.616Z</time></trkpt><trkpt lat="37.044674" lon="14.6909179"><ele>450.0</ele><time>2026-04-24T15:56:59.616Z</time></trkpt><trkpt lat="37.0446896" lon="14.6910159"><ele>451.66666666666663</ele><time>2026-04-24T15:57:02.616Z</time></trkpt><trkpt lat="37.0447057" lon="14.6911237"><ele>453.3333333333333</ele><time>2026-04-24T15:57:05.616Z</time></trkpt><trkpt lat="37.0447197" lon="14.6912168"><ele>455.0</ele><time>2026-04-24T15:57:07.617Z</time></trkpt><trkpt lat="37.0447289" lon="14.6912992"><ele>456.99999999999994</ele><time>2026-04-24T15:57:09.616Z</time></trkpt><trkpt lat="37.0447441" lon="14.6914094"><ele>459.0</ele><time>2026-04-24T15:57:11.616Z</time></trkpt><trkpt lat="37.0447608" lon="14.691493"><ele>461.0</ele><time>2026-04-24T15:57:13.616Z</time></trkpt><trkpt lat="37.0447807" lon="14.6915983"><ele>463.0</ele><time>2026-04-24T15:57:16.616Z</time></trkpt><trkpt lat="37.0448034" lon="14.6916775"><ele>464.99999999999994</ele><time>2026-04-24T15:57:23.616Z</time></trkpt><trkpt lat="37.0448269" lon="14.6918177"><ele>467.0</ele><time>2026-04-24T15:57:26.616Z</time></trkpt><trkpt lat="37.0448334" lon="14.6919636"><ele>467.99999999999994</ele><time>2026-04-24T15:57:28.616Z</time></trkpt><trkpt lat="37.044813" lon="14.6920413"><ele>469.0</ele><time>2026-04-24T15:57:31.617Z</time></trkpt><trkpt lat="37.0448236" lon="14.6921484"><ele>470.0</ele><time>2026-04-24T15:57:35.615Z</time></trkpt><trkpt lat="37.044883" lon="14.692233"><ele>471.0</ele><time>2026-04-24T15:57:37.616Z</time></trkpt><trkpt lat="37.0449248" lon="14.6922987"><ele>471.99999999999994</ele><time>2026-04-24T15:57:38.617Z</time></trkpt><trkpt lat="37.044955" lon="14.6923716"><ele>473.0</ele><time>2026-04-24T15:57:39.616Z</time></trkpt><trkpt lat="37.0450027" lon="14.6925047"><ele>473.59999999999997</ele><time>2026-04-24T15:57:41.616Z</time></trkpt><trkpt lat="37.0450258" lon="14.6925916"><ele>474.19999999999993</ele><time>2026-04-24T15:57:42.617Z</time></trkpt><trkpt lat="37.0450448" lon="14.6926901"><ele>474.8</ele><time>2026-04-24T15:57:43.616Z</time></trkpt><trkpt lat="37.0450568" lon="14.6928096"><ele>475.4</ele><time>2026-04-24T15:57:44.616Z</time></trkpt><trkpt lat="37.0450693" lon="14.6929483"><ele>476.0</ele><time>2026-04-24T15:57:45.615Z</time></trkpt><trkpt lat="37.0450822" lon="14.6930891"><ele>478.25</ele><time>2026-04-24T15:57:46.616Z</time></trkpt><trkpt lat="37.0450968" lon="14.6932445"><ele>480.5</ele><time>2026-04-24T15:57:47.616Z</time></trkpt><trkpt lat="37.0451152" lon="14.693405"><ele>482.75</ele><time>2026-04-24T15:57:48.615Z</time></trkpt><trkpt lat="37.0451253" lon="14.6935741"><ele>485.0</ele><time>2026-04-24T15:57:49.616Z</time></trkpt><trkpt lat="37.0451245" lon="14.6937454"><ele>487.3333333333333</ele><time>2026-04-24T15:57:50.618Z</time></trkpt><trkpt lat="37.0451198" lon="14.6939275"><ele>489.66666666666663</ele><time>2026-04-24T15:57:51.615Z</time></trkpt><trkpt lat="37.0451084" lon="14.6941171"><ele>492.0</ele><time>2026-04-24T15:57:52.616Z</time></trkpt><trkpt lat="37.0450906" lon="14.6943088"><ele>492.66666666666663</ele><time>2026-04-24T15:57:53.617Z</time></trkpt><trkpt lat="37.0450813" lon="14.6945104"><ele>493.3333333333333</ele><time>2026-04-24T15:57:54.616Z</time></trkpt><trkpt lat="37.0450822" lon="14.6947183"><ele>494.0</ele><time>2026-04-24T15:57:55.615Z</time></trkpt><trkpt lat="37.0450931" lon="14.6949354"><ele>494.0</ele><time>2026-04-24T15:57:56.617Z</time></trkpt><trkpt lat="37.0451177" lon="14.695143"><ele>494.0</ele><time>2026-04-24T15:57:57.616Z</time></trkpt><trkpt lat="37.0451618" lon="14.6953414"><ele>494.0</ele><time>2026-04-24T15:57:58.617Z</time></trkpt><trkpt lat="37.0451963" lon="14.6955518"><ele>494.3333333333333</ele><time>2026-04-24T15:57:59.618Z</time></trkpt><trkpt lat="37.0452307" lon="14.6957609"><ele>494.66666666666663</ele><time>2026-04-24T15:58:00.616Z</time></trkpt><trkpt lat="37.0452646" lon="14.6959624"><ele>495.0</ele><time>2026-04-24T15:58:01.617Z</time></trkpt><trkpt lat="37.0452809" lon="14.6961694"><ele>495.0</ele><time>2026-04-24T15:58:02.616Z</time></trkpt><trkpt lat="37.0452839" lon="14.6963807"><ele>495.0</ele><time>2026-04-24T15:58:03.616Z</time></trkpt><trkpt lat="37.0452722" lon="14.6965869"><ele>495.0</ele><time>2026-04-24T15:58:04.618Z</time></trkpt><trkpt lat="37.0452456" lon="14.6968002"><ele>496.66666666666663</ele><time>2026-04-24T15:58:05.616Z</time></trkpt><trkpt lat="37.0452212" lon="14.6970103"><ele>498.3333333333333</ele><time>2026-04-24T15:58:06.615Z</time></trkpt><trkpt lat="37.0451958" lon="14.6972209"><ele>500.0</ele><time>2026-04-24T15:58:07.616Z</time></trkpt><trkpt lat="37.045167" lon="14.6974308"><ele>500.0</ele><time>2026-04-24T15:58:08.616Z</time></trkpt><trkpt lat="37.0451309" lon="14.6976475"><ele>500.0</ele><time>2026-04-24T15:58:09.615Z</time></trkpt><trkpt lat="37.0450948" lon="14.6978633"><ele>500.0</ele><time>2026-04-24T15:58:10.616Z</time></trkpt><trkpt lat="37.0450581" lon="14.698077"><ele>501.3333333333333</ele><time>2026-04-24T15:58:11.617Z</time></trkpt><trkpt lat="37.0450095" lon="14.6982965"><ele>502.66666666666663</ele><time>2026-04-24T15:58:12.615Z</time></trkpt><trkpt lat="37.0449573" lon="14.698508"><ele>504.0</ele><time>2026-04-24T15:58:13.616Z</time></trkpt><trkpt lat="37.0449128" lon="14.6987093"><ele>505.66666666666663</ele><time>2026-04-24T15:58:14.616Z</time></trkpt><trkpt lat="37.0448714" lon="14.6989116"><ele>507.3333333333333</ele><time>2026-04-24T15:58:15.615Z</time></trkpt><trkpt lat="37.0448494" lon="14.6991127"><ele>509.0</ele><time>2026-04-24T15:58:16.617Z</time></trkpt><trkpt lat="37.0448611" lon="14.6993151"><ele>509.66666666666663</ele><time>2026-04-24T15:58:17.616Z</time></trkpt><trkpt lat="37.0448825" lon="14.6995081"><ele>510.33333333333337</ele><time>2026-04-24T15:58:18.616Z</time></trkpt><trkpt lat="37.04498" lon="14.6996391"><ele>511.0</ele><time>2026-04-24T15:58:19.617Z</time></trkpt><trkpt lat="37.0450927" lon="14.6997659"><ele>512.3333333333334</ele><time>2026-04-24T15:58:20.617Z</time></trkpt><trkpt lat="37.0452098" lon="14.6998833"><ele>513.6666666666666</ele><time>2026-04-24T15:58:21.616Z</time></trkpt><trkpt lat="37.0453467" lon="14.7000084"><ele>515.0</ele><time>2026-04-24T15:58:22.616Z</time></trkpt><trkpt lat="37.0454872" lon="14.700137"><ele>515.3333333333333</ele><time>2026-04-24T15:58:23.617Z</time></trkpt><trkpt lat="37.0455993" lon="14.7002918"><ele>515.6666666666666</ele><time>2026-04-24T15:58:24.616Z</time></trkpt><trkpt lat="37.0456881" lon="14.7004669"><ele>516.0</ele><time>2026-04-24T15:58:25.616Z</time></trkpt><trkpt lat="37.0457632" lon="14.7006566"><ele>517.6666666666666</ele><time>2026-04-24T15:58:26.617Z</time></trkpt><trkpt lat="37.0458211" lon="14.7008676"><ele>519.3333333333333</ele><time>2026-04-24T15:58:27.616Z</time></trkpt><trkpt lat="37.0458535" lon="14.70107"><ele>521.0</ele><time>2026-04-24T15:58:28.617Z</time></trkpt><trkpt lat="37.0458633" lon="14.7012642"><ele>522.0</ele><time>2026-04-24T15:58:29.615Z</time></trkpt><trkpt lat="37.0458394" lon="14.7014642"><ele>523.0</ele><time>2026-04-24T15:58:30.616Z</time></trkpt><trkpt lat="37.0458227" lon="14.7016597"><ele>524.0</ele><time>2026-04-24T15:58:31.616Z</time></trkpt><trkpt lat="37.0458223" lon="14.7018605"><ele>526.6666666666666</ele><time>2026-04-24T15:58:32.616Z</time></trkpt><trkpt lat="37.0458392" lon="14.702056"><ele>529.3333333333334</ele><time>2026-04-24T15:58:33.617Z</time></trkpt><trkpt lat="37.0458826" lon="14.7022517"><ele>532.0</ele><time>2026-04-24T15:58:34.616Z</time></trkpt><trkpt lat="37.0459537" lon="14.7024317"><ele>532.0</ele><time>2026-04-24T15:58:35.615Z</time></trkpt><trkpt lat="37.0460439" lon="14.7025987"><ele>532.0</ele><time>2026-04-24T15:58:36.616Z</time></trkpt><trkpt lat="37.0461657" lon="14.7027281"><ele>532.0</ele><time>2026-04-24T15:58:37.615Z</time></trkpt><trkpt lat="37.0463089" lon="14.7028313"><ele>532.3333333333334</ele><time>2026-04-24T15:58:38.616Z</time></trkpt><trkpt lat="37.046461" lon="14.7029258"><ele>532.6666666666666</ele><time>2026-04-24T15:58:39.615Z</time></trkpt><trkpt lat="37.0466253" lon="14.7030101"><ele>533.0</ele><time>2026-04-24T15:58:40.616Z</time></trkpt><trkpt lat="37.0467995" lon="14.7030817"><ele>533.0</ele><time>2026-04-24T15:58:41.617Z</time></trkpt><trkpt lat="37.0469697" lon="14.7031552"><ele>533.0</ele><time>2026-04-24T15:58:42.615Z</time></trkpt><trkpt lat="37.0471417" lon="14.703229"><ele>533.0</ele><time>2026-04-24T15:58:43.616Z</time></trkpt><trkpt lat="37.0473118" lon="14.7033042"><ele>532.0</ele><time>2026-04-24T15:58:44.616Z</time></trkpt><trkpt lat="37.0474763" lon="14.7033774"><ele>531.0</ele><time>2026-04-24T15:58:45.616Z</time></trkpt><trkpt lat="37.0476416" lon="14.703453"><ele>530.0</ele><time>2026-04-24T15:58:46.616Z</time></trkpt><trkpt lat="37.0478001" lon="14.703515"><ele>530.0</ele><time>2026-04-24T15:58:47.616Z</time></trkpt><trkpt lat="37.0479479" lon="14.7035724"><ele>530.0</ele><time>2026-04-24T15:58:48.616Z</time></trkpt><trkpt lat="37.0480977" lon="14.7036231"><ele>530.0</ele><time>2026-04-24T15:58:49.617Z</time></trkpt><trkpt lat="37.0482386" lon="14.7036401"><ele>529.5</ele><time>2026-04-24T15:58:50.616Z</time></trkpt><trkpt lat="37.0483597" lon="14.7036359"><ele>529.0</ele><time>2026-04-24T15:58:51.617Z</time></trkpt><trkpt lat="37.0484557" lon="14.7036373"><ele>528.5</ele><time>2026-04-24T15:58:52.616Z</time></trkpt><trkpt lat="37.0485464" lon="14.7037092"><ele>528.0</ele><time>2026-04-24T15:58:54.616Z</time></trkpt><trkpt lat="37.0485094" lon="14.7038598"><ele>528.0</ele><time>2026-04-24T15:58:56.617Z</time></trkpt><trkpt lat="37.048458" lon="14.7039695"><ele>528.0</ele><time>2026-04-24T15:58:57.616Z</time></trkpt><trkpt lat="37.0484024" lon="14.7041023"><ele>528.0</ele><time>2026-04-24T15:58:58.617Z</time></trkpt><trkpt lat="37.0483392" lon="14.7042501"><ele>528.0</ele><time>2026-04-24T15:58:59.617Z</time></trkpt><trkpt lat="37.0482637" lon="14.7044065"><ele>532.0</ele><time>2026-04-24T15:59:00.615Z</time></trkpt><trkpt lat="37.0481782" lon="14.7045682"><ele>536.0</ele><time>2026-04-24T15:59:01.616Z</time></trkpt><trkpt lat="37.0480803" lon="14.7047292"><ele>540.0</ele><time>2026-04-24T15:59:02.616Z</time></trkpt><trkpt lat="37.0479752" lon="14.7048923"><ele>540.0</ele><time>2026-04-24T15:59:03.615Z</time></trkpt><trkpt lat="37.0478755" lon="14.7050549"><ele>540.0</ele><time>2026-04-24T15:59:04.616Z</time></trkpt><trkpt lat="37.0477823" lon="14.705219"><ele>540.0</ele><time>2026-04-24T15:59:05.616Z</time></trkpt><trkpt lat="37.0476896" lon="14.7053753"><ele>538.0</ele><time>2026-04-24T15:59:06.617Z</time></trkpt><trkpt lat="37.0475937" lon="14.705533"><ele>536.0</ele><time>2026-04-24T15:59:07.617Z</time></trkpt><trkpt lat="37.0475016" lon="14.7056833"><ele>534.0</ele><time>2026-04-24T15:59:08.615Z</time></trkpt><trkpt lat="37.0474079" lon="14.7058295"><ele>534.75</ele><time>2026-04-24T15:59:09.616Z</time></trkpt><trkpt lat="37.0473181" lon="14.7059641"><ele>535.5</ele><time>2026-04-24T15:59:10.617Z</time></trkpt><trkpt lat="37.0472345" lon="14.706083"><ele>536.25</ele><time>2026-04-24T15:59:11.617Z</time></trkpt><trkpt lat="37.0471481" lon="14.7061617"><ele>537.0</ele><time>2026-04-24T15:59:12.616Z</time></trkpt><trkpt lat="37.0470556" lon="14.7061881"><ele>537.0</ele><time>2026-04-24T15:59:13.616Z</time></trkpt><trkpt lat="37.0469562" lon="14.7061835"><ele>537.0</ele><time>2026-04-24T15:59:14.616Z</time></trkpt><trkpt lat="37.0468375" lon="14.7061802"><ele>537.0</ele><time>2026-04-24T15:59:15.616Z</time></trkpt><trkpt lat="37.0467121" lon="14.7061732"><ele>537.0</ele><time>2026-04-24T15:59:16.616Z</time></trkpt><trkpt lat="37.0465826" lon="14.7061779"><ele>540.5</ele><time>2026-04-24T15:59:17.616Z</time></trkpt><trkpt lat="37.0464593" lon="14.7062069"><ele>544.0</ele><time>2026-04-24T15:59:18.616Z</time></trkpt><trkpt lat="37.0463367" lon="14.7062672"><ele>547.5</ele><time>2026-04-24T15:59:19.616Z</time></trkpt><trkpt lat="37.0462069" lon="14.7063311"><ele>551.0</ele><time>2026-04-24T15:59:20.615Z</time></trkpt><trkpt lat="37.0460793" lon="14.706396"><ele>551.0</ele><time>2026-04-24T15:59:21.618Z</time></trkpt><trkpt lat="37.0459496" lon="14.7064589"><ele>551.0</ele><time>2026-04-24T15:59:22.615Z</time></trkpt><trkpt lat="37.0458281" lon="14.7065295"><ele>551.0</ele><time>2026-04-24T15:59:23.617Z</time></trkpt><trkpt lat="37.0457209" lon="14.7066105"><ele>551.0</ele><time>2026-04-24T15:59:24.616Z</time></trkpt><trkpt lat="37.0456259" lon="14.7067231"><ele>553.25</ele><time>2026-04-24T15:59:25.615Z</time></trkpt><trkpt lat="37.045544" lon="14.7068552"><ele>555.5</ele><time>2026-04-24T15:59:26.615Z</time></trkpt><trkpt lat="37.0454687" lon="14.7070043"><ele>557.75</ele><time>2026-04-24T15:59:27.616Z</time></trkpt><trkpt lat="37.0453953" lon="14.7071645"><ele>560.0</ele><time>2026-04-24T15:59:28.616Z</time></trkpt><trkpt lat="37.0453159" lon="14.7073195"><ele>561.25</ele><time>2026-04-24T15:59:29.616Z</time></trkpt><trkpt lat="37.0452383" lon="14.7074708"><ele>562.5</ele><time>2026-04-24T15:59:30.616Z</time></trkpt><trkpt lat="37.0451567" lon="14.7076008"><ele>563.75</ele><time>2026-04-24T15:59:31.617Z</time></trkpt><trkpt lat="37.0450719" lon="14.7077063"><ele>565.0</ele><time>2026-04-24T15:59:32.617Z</time></trkpt><trkpt lat="37.0449953" lon="14.7077695"><ele>566.3333333333334</ele><time>2026-04-24T15:59:33.616Z</time></trkpt><trkpt lat="37.0449251" lon="14.707812"><ele>567.6666666666667</ele><time>2026-04-24T15:59:34.616Z</time></trkpt><trkpt lat="37.0448604" lon="14.7078391"><ele>569.0</ele><time>2026-04-24T15:59:35.616Z</time></trkpt><trkpt lat="37.0447736" lon="14.7078573"><ele>570.3333333333334</ele><time>2026-04-24T15:59:37.616Z</time></trkpt><trkpt lat="37.0447075" lon="14.7078585"><ele>571.6666666666666</ele><time>2026-04-24T16:00:38.616Z</time></trkpt><trkpt lat="37.0446103" lon="14.7078867"><ele>573.0</ele><time>2026-04-24T16:01:16.616Z</time></trkpt><trkpt lat="37.0445365" lon="14.7078945"><ele>573.0</ele><time>2026-04-24T16:01:18.616Z</time></trkpt><trkpt lat="37.0444528" lon="14.7079188"><ele>573.0</ele><time>2026-04-24T16:01:40.616Z</time></trkpt><trkpt lat="37.0443497" lon="14.7079245"><ele>573.0</ele><time>2026-04-24T16:01:42.617Z</time></trkpt><trkpt lat="37.0442461" lon="14.7079286"><ele>573.0</ele><time>2026-04-24T16:01:44.615Z</time></trkpt><trkpt lat="37.0441824" lon="14.7079291"><ele>573.0</ele><time>2026-04-24T16:01:45.615Z</time></trkpt><trkpt lat="37.0440714" lon="14.7079455"><ele>571.8333333333334</ele><time>2026-04-24T16:01:47.616Z</time></trkpt><trkpt lat="37.0439892" lon="14.7079418"><ele>570.6666666666666</ele><time>2026-04-24T16:01:49.616Z</time></trkpt><trkpt lat="37.0439041" lon="14.7079301"><ele>569.5</ele><time>2026-04-24T16:01:51.615Z</time></trkpt><trkpt lat="37.0438246" lon="14.7079231"><ele>568.3333333333333</ele><time>2026-04-24T16:01:53.616Z</time></trkpt><trkpt lat="37.0437345" lon="14.7079178"><ele>567.1666666666666</ele><time>2026-04-24T16:01:56.616Z</time></trkpt><trkpt lat="37.043666" lon="14.7079109"><ele>566.0</ele><time>2026-04-24T16:01:58.618Z</time></trkpt><trkpt lat="37.0435758" lon="14.7079007"><ele>566.0</ele><time>2026-04-24T16:02:01.616Z</time></trkpt><trkpt lat="37.0435024" lon="14.7079185"><ele>566.0</ele><time>2026-04-24T16:02:03.617Z</time></trkpt><trkpt lat="37.0434485" lon="14.7079898"><ele>566.0</ele><time>2026-04-24T16:02:06.615Z</time></trkpt><trkpt lat="37.0433943" lon="14.7081121"><ele>566.0</ele><time>2026-04-24T16:02:09.615Z</time></trkpt><trkpt lat="37.0433415" lon="14.7082511"><ele>566.0</ele><time>2026-04-24T16:02:11.616Z</time></trkpt><trkpt lat="37.0432683" lon="14.7083337"><ele>570.6666666666666</ele><time>2026-04-24T16:02:13.617Z</time></trkpt><trkpt lat="37.0431989" lon="14.7082944"><ele>575.3333333333333</ele><time>2026-04-24T16:02:16.616Z</time></trkpt><trkpt lat="37.0431715" lon="14.7082076"><ele>580.0</ele><time>2026-04-24T16:02:18.615Z</time></trkpt><trkpt lat="37.0431257" lon="14.7081114"><ele>584.6666666666666</ele><time>2026-04-24T16:02:20.616Z</time></trkpt><trkpt lat="37.0431087" lon="14.7080336"><ele>589.3333333333334</ele><time>2026-04-24T16:02:21.616Z</time></trkpt><trkpt lat="37.0430692" lon="14.7079175"><ele>594.0</ele><time>2026-04-24T16:02:23.616Z</time></trkpt><trkpt lat="37.0430367" lon="14.7078451"><ele>590.2</ele><time>2026-04-24T16:02:25.617Z</time></trkpt><trkpt lat="37.0430007" lon="14.707734"><ele>586.4</ele><time>2026-04-24T16:02:27.617Z</time></trkpt><trkpt lat="37.0429733" lon="14.7076236"><ele>582.6</ele><time>2026-04-24T16:02:29.616Z</time></trkpt><trkpt lat="37.0429499" lon="14.707492"><ele>578.8</ele><time>2026-04-24T16:02:31.616Z</time></trkpt><trkpt lat="37.042932" lon="14.7073688"><ele>575.0</ele><time>2026-04-24T16:02:33.616Z</time></trkpt><trkpt lat="37.0429156" lon="14.7072711"><ele>575.0</ele><time>2026-04-24T16:02:35.617Z</time></trkpt><trkpt lat="37.0429015" lon="14.7071748"><ele>575.0</ele><time>2026-04-24T16:02:37.618Z</time></trkpt><trkpt lat="37.0428967" lon="14.7070621"><ele>575.0</ele><time>2026-04-24T16:02:39.617Z</time></trkpt><trkpt lat="37.0429025" lon="14.7069671"><ele>575.0</ele><time>2026-04-24T16:02:41.615Z</time></trkpt><trkpt lat="37.0428803" lon="14.7068906"><ele>575.0</ele><time>2026-04-24T16:02:43.616Z</time></trkpt><trkpt lat="37.0428323" lon="14.7068053"><ele>575.0</ele><time>2026-04-24T16:02:46.617Z</time></trkpt><trkpt lat="37.0427906" lon="14.7066924"><ele>571.6</ele><time>2026-04-24T16:03:22.616Z</time></trkpt><trkpt lat="37.0427258" lon="14.7065469"><ele>568.2</ele><time>2026-04-24T16:03:24.617Z</time></trkpt><trkpt lat="37.0426949" lon="14.7064719"><ele>564.8</ele><time>2026-04-24T16:03:25.617Z</time></trkpt><trkpt lat="37.0426553" lon="14.7063637"><ele>561.4</ele><time>2026-04-24T16:03:27.616Z</time></trkpt><trkpt lat="37.0426373" lon="14.706263"><ele>558.0</ele><time>2026-04-24T16:03:29.617Z</time></trkpt><trkpt lat="37.0426312" lon="14.7061619"><ele>556.9999999999999</ele><time>2026-04-24T16:03:31.617Z</time></trkpt><trkpt lat="37.0426301" lon="14.7060704"><ele>556.0</ele><time>2026-04-24T16:03:33.616Z</time></trkpt><trkpt lat="37.0426026" lon="14.7059725"><ele>555.0</ele><time>2026-04-24T16:03:36.616Z</time></trkpt><trkpt lat="37.0425329" lon="14.7059753"><ele>554.0</ele><time>2026-04-24T16:03:56.615Z</time></trkpt><trkpt lat="37.0424692" lon="14.7059724"><ele>553.0</ele><time>2026-04-24T16:04:00.616Z</time></trkpt><trkpt lat="37.0424058" lon="14.7059634"><ele>551.9999999999999</ele><time>2026-04-24T16:04:02.616Z</time></trkpt><trkpt lat="37.0423151" lon="14.70598"><ele>551.0</ele><time>2026-04-24T16:04:05.617Z</time></trkpt><trkpt lat="37.0422369" lon="14.7059347"><ele>548.6666666666666</ele><time>2026-04-24T16:04:08.616Z</time></trkpt><trkpt lat="37.042152" lon="14.7059265"><ele>546.3333333333333</ele><time>2026-04-24T16:04:11.616Z</time></trkpt><trkpt lat="37.0420767" lon="14.7058967"><ele>544.0</ele><time>2026-04-24T16:04:14.616Z</time></trkpt><trkpt lat="37.0419909" lon="14.7058839"><ele>541.6666666666666</ele><time>2026-04-24T16:04:18.616Z</time></trkpt><trkpt lat="37.0419126" lon="14.7058659"><ele>539.3333333333334</ele><time>2026-04-24T16:04:22.617Z</time></trkpt><trkpt lat="37.0418478" lon="14.705853"><ele>537.0</ele><time>2026-04-24T16:05:16.616Z</time></trkpt><trkpt lat="37.041785" lon="14.7058368"><ele>537.0</ele><time>2026-04-24T16:05:19.616Z</time></trkpt><trkpt lat="37.041713" lon="14.7058053"><ele>537.0</ele><time>2026-04-24T16:05:23.616Z</time></trkpt><trkpt lat="37.041647" lon="14.705803"><ele>537.0</ele><time>2026-04-24T16:05:32.616Z</time></trkpt><trkpt lat="37.0415546" lon="14.7057819"><ele>537.0</ele><time>2026-04-24T16:05:35.616Z</time></trkpt><trkpt lat="37.0414863" lon="14.705765"><ele>537.0</ele><time>2026-04-24T16:05:38.619Z</time></trkpt><trkpt lat="37.0414161" lon="14.705736"><ele>537.0</ele><time>2026-04-24T16:05:40.616Z</time></trkpt><trkpt lat="37.0413375" lon="14.7057305"><ele>538.1666666666666</ele><time>2026-04-24T16:05:43.616Z</time></trkpt><trkpt lat="37.0412753" lon="14.7057672"><ele>539.3333333333334</ele><time>2026-04-24T16:05:45.617Z</time></trkpt><trkpt lat="37.0412209" lon="14.7058709"><ele>540.5</ele><time>2026-04-24T16:05:47.616Z</time></trkpt><trkpt lat="37.0411904" lon="14.7059446"><ele>541.6666666666667</ele><time>2026-04-24T16:05:50.616Z</time></trkpt><trkpt lat="37.0411529" lon="14.7060307"><ele>542.8333333333334</ele><time>2026-04-24T16:05:53.617Z</time></trkpt><trkpt lat="37.0411223" lon="14.706127"><ele>544.0</ele><time>2026-04-24T16:05:55.616Z</time></trkpt><trkpt lat="37.0411228" lon="14.7062133"><ele>543.9999999999999</ele><time>2026-04-24T16:05:58.616Z</time></trkpt><trkpt lat="37.0411233" lon="14.7061302"><ele>544.0</ele><time>2026-04-24T16:06:42.618Z</time></trkpt><trkpt lat="37.0411375" lon="14.7060403"><ele>544.0</ele><time>2026-04-24T16:06:44.615Z</time></trkpt><trkpt lat="37.0411398" lon="14.7059592"><ele>544.0</ele><time>2026-04-24T16:06:47.616Z</time></trkpt><trkpt lat="37.0411063" lon="14.705891"><ele>544.0</ele><time>2026-04-24T16:06:56.616Z</time></trkpt><trkpt lat="37.0411743" lon="14.7058376"><ele>543.9999999999999</ele><time>2026-04-24T16:07:09.617Z</time></trkpt><trkpt lat="37.0412267" lon="14.7057776"><ele>544.0</ele><time>2026-04-24T16:07:11.617Z</time></trkpt><trkpt lat="37.041188" lon="14.7056962"><ele>544.0</ele><time>2026-04-24T16:07:13.615Z</time></trkpt><trkpt lat="37.0411426" lon="14.7055833"><ele>544.0</ele><time>2026-04-24T16:07:15.616Z</time></trkpt><trkpt lat="37.0411367" lon="14.7054447"><ele>544.0</ele><time>2026-04-24T16:07:17.615Z</time></trkpt><trkpt lat="37.0411665" lon="14.7052828"><ele>544.0</ele><time>2026-04-24T16:07:19.616Z</time></trkpt><trkpt lat="37.041179" lon="14.7051873"><ele>544.0</ele><time>2026-04-24T16:07:20.616Z</time></trkpt><trkpt lat="37.0411965" lon="14.7050808"><ele>546.1666666666667</ele><time>2026-04-24T16:07:21.616Z</time></trkpt><trkpt lat="37.0412191" lon="14.7049825"><ele>548.3333333333334</ele><time>2026-04-24T16:07:22.615Z</time></trkpt><trkpt lat="37.0412352" lon="14.7048763"><ele>550.5</ele><time>2026-04-24T16:07:23.616Z</time></trkpt><trkpt lat="37.0412508" lon="14.7047658"><ele>552.6666666666666</ele><time>2026-04-24T16:07:24.616Z</time></trkpt><trkpt lat="37.0412606" lon="14.7046779"><ele>554.8333333333333</ele><time>2026-04-24T16:07:25.615Z</time></trkpt><trkpt lat="37.0412635" lon="14.7045909"><ele>557.0</ele><time>2026-04-24T16:07:26.616Z</time></trkpt><trkpt lat="37.0412629" lon="14.7044987"><ele>557.6666666666666</ele><time>2026-04-24T16:07:27.616Z</time></trkpt><trkpt lat="37.0412479" lon="14.7044038"><ele>558.3333333333333</ele><time>2026-04-24T16:07:28.616Z</time></trkpt><trkpt lat="37.041244" lon="14.7043042"><ele>559.0</ele><time>2026-04-24T16:07:29.615Z</time></trkpt><trkpt lat="37.0412202" lon="14.7042058"><ele>559.6666666666666</ele><time>2026-04-24T16:07:30.617Z</time></trkpt><trkpt lat="37.0412099" lon="14.7041073"><ele>560.3333333333334</ele><time>2026-04-24T16:07:31.618Z</time></trkpt><trkpt lat="37.041204" lon="14.70401"><ele>561.0</ele><time>2026-04-24T16:07:32.616Z</time></trkpt><trkpt lat="37.0411972" lon="14.7039055"><ele>561.0</ele><time>2026-04-24T16:07:33.616Z</time></trkpt><trkpt lat="37.0411936" lon="14.7037971"><ele>561.0</ele><time>2026-04-24T16:07:34.616Z</time></trkpt><trkpt lat="37.0411814" lon="14.7037004"><ele>561.0</ele><time>2026-04-24T16:07:35.616Z</time></trkpt><trkpt lat="37.0411597" lon="14.7035853"><ele>561.0</ele><time>2026-04-24T16:07:36.617Z</time></trkpt><trkpt lat="37.0411428" lon="14.7034849"><ele>561.0</ele><time>2026-04-24T16:07:37.616Z</time></trkpt><trkpt lat="37.0411408" lon="14.7033686"><ele>561.0</ele><time>2026-04-24T16:07:39.616Z</time></trkpt><trkpt lat="37.0410993" lon="14.7032815"><ele>562.0</ele><time>2026-04-24T16:08:03.616Z</time></trkpt><trkpt lat="37.0410301" lon="14.7032127"><ele>563.0</ele><time>2026-04-24T16:08:05.616Z</time></trkpt><trkpt lat="37.0409696" lon="14.7031761"><ele>564.0</ele><time>2026-04-24T16:08:06.616Z</time></trkpt><trkpt lat="37.040908" lon="14.7031349"><ele>565.0</ele><time>2026-04-24T16:08:07.617Z</time></trkpt><trkpt lat="37.0408457" lon="14.7031024"><ele>566.0</ele><time>2026-04-24T16:08:08.616Z</time></trkpt><trkpt lat="37.0407829" lon="14.7030844"><ele>567.0</ele><time>2026-04-24T16:08:09.616Z</time></trkpt><trkpt lat="37.0406746" lon="14.7030454"><ele>567.0</ele><time>2026-04-24T16:08:11.617Z</time></trkpt><trkpt lat="37.0406121" lon="14.7030329"><ele>567.0</ele><time>2026-04-24T16:08:14.616Z</time></trkpt><trkpt lat="37.0406318" lon="14.7031118"><ele>567.0</ele><time>2026-04-24T16:08:20.616Z</time></trkpt><trkpt lat="37.04068" lon="14.7031924"><ele>567.0</ele><time>2026-04-24T16:08:22.617Z</time></trkpt><trkpt lat="37.0407509" lon="14.703252"><ele>567.0</ele><time>2026-04-24T16:08:24.615Z</time></trkpt><trkpt lat="37.0408225" lon="14.7032979"><ele>567.0</ele><time>2026-04-24T16:08:26.617Z</time></trkpt><trkpt lat="37.0408959" lon="14.7033586"><ele>566.0</ele><time>2026-04-24T16:08:28.616Z</time></trkpt><trkpt lat="37.0409424" lon="14.7034314"><ele>565.0</ele><time>2026-04-24T16:08:30.617Z</time></trkpt><trkpt lat="37.0409783" lon="14.7035099"><ele>564.0</ele><time>2026-04-24T16:08:32.616Z</time></trkpt><trkpt lat="37.0409818" lon="14.7036041"><ele>563.0</ele><time>2026-04-24T16:08:47.616Z</time></trkpt><trkpt lat="37.0409587" lon="14.7037095"><ele>562.0</ele><time>2026-04-24T16:08:49.617Z</time></trkpt><trkpt lat="37.0409394" lon="14.7038641"><ele>561.0</ele><time>2026-04-24T16:08:51.616Z</time></trkpt><trkpt lat="37.040925" lon="14.7039505"><ele>561.0</ele><time>2026-04-24T16:08:52.617Z</time></trkpt><trkpt lat="37.0409069" lon="14.7040349"><ele>561.0</ele><time>2026-04-24T16:08:53.615Z</time></trkpt><trkpt lat="37.0408876" lon="14.7041377"><ele>561.0</ele><time>2026-04-24T16:08:54.617Z</time></trkpt><trkpt lat="37.0408738" lon="14.70422"><ele>561.0</ele><time>2026-04-24T16:08:55.616Z</time></trkpt><trkpt lat="37.0408426" lon="14.7043114"><ele>561.0</ele><time>2026-04-24T16:08:56.616Z</time></trkpt><trkpt lat="37.0408161" lon="14.7044013"><ele>561.0</ele><time>2026-04-24T16:08:57.616Z</time></trkpt><trkpt lat="37.0407888" lon="14.7044861"><ele>566.6</ele><time>2026-04-24T16:08:58.615Z</time></trkpt><trkpt lat="37.0407339" lon="14.7046387"><ele>572.2</ele><time>2026-04-24T16:09:00.616Z</time></trkpt><trkpt lat="37.0406682" lon="14.7047755"><ele>577.8</ele><time>2026-04-24T16:09:02.616Z</time></trkpt><trkpt lat="37.040643" lon="14.7048485"><ele>583.4</ele><time>2026-04-24T16:09:03.616Z</time></trkpt><trkpt lat="37.0405813" lon="14.7049428"><ele>589.0</ele><time>2026-04-24T16:09:05.616Z</time></trkpt><trkpt lat="37.0404935" lon="14.7050155"><ele>589.0</ele><time>2026-04-24T16:09:07.615Z</time></trkpt><trkpt lat="37.0404423" lon="14.7050648"><ele>589.0</ele><time>2026-04-24T16:09:08.616Z</time></trkpt><trkpt lat="37.0403267" lon="14.7051404"><ele>589.0</ele><time>2026-04-24T16:09:10.616Z</time></trkpt><trkpt lat="37.0402329" lon="14.7052119"><ele>589.0</ele><time>2026-04-24T16:09:12.616Z</time></trkpt><trkpt lat="37.0401661" lon="14.7052561"><ele>589.0</ele><time>2026-04-24T16:09:14.616Z</time></trkpt><trkpt lat="37.0400898" lon="14.7053232"><ele>589.0</ele><time>2026-04-24T16:10:42.616Z</time></trkpt><trkpt lat="37.0400309" lon="14.7053678"><ele>589.0</ele><time>2026-04-24T16:10:44.616Z</time></trkpt><trkpt lat="37.0399791" lon="14.7054151"><ele>589.0</ele><time>2026-04-24T16:10:51.617Z</time></trkpt><trkpt lat="37.0399652" lon="14.7053224"><ele>589.0</ele><time>2026-04-24T16:10:55.617Z</time></trkpt><trkpt lat="37.0400003" lon="14.7052183"><ele>589.0</ele><time>2026-04-24T16:10:59.615Z</time></trkpt><trkpt lat="37.0400329" lon="14.7051478"><ele>589.0</ele><time>2026-04-24T16:11:02.617Z</time></trkpt><trkpt lat="37.0400688" lon="14.7050783"><ele>589.0</ele><time>2026-04-24T16:11:11.616Z</time></trkpt><trkpt lat="37.0401085" lon="14.7050149"><ele>589.0</ele><time>2026-04-24T16:11:20.615Z</time></trkpt><trkpt lat="37.0401556" lon="14.7049575"><ele>589.0</ele><time>2026-04-24T16:11:30.616Z</time></trkpt><trkpt lat="37.0402207" lon="14.7049163"><ele>589.0</ele><time>2026-04-24T16:11:41.616Z</time></trkpt><trkpt lat="37.0402949" lon="14.7048878"><ele>589.0</ele><time>2026-04-24T16:11:53.616Z</time></trkpt><trkpt lat="37.0403323" lon="14.7048181"><ele>589.0</ele><time>2026-04-24T16:12:15.616Z</time></trkpt><trkpt lat="37.0403565" lon="14.704745"><ele>589.0</ele><time>2026-04-24T16:12:18.616Z</time></trkpt><trkpt lat="37.0403545" lon="14.7046641"><ele>589.0</ele><time>2026-04-24T16:12:25.616Z</time></trkpt><trkpt lat="37.0403462" lon="14.7045726"><ele>589.0</ele><time>2026-04-24T16:12:30.616Z</time></trkpt><trkpt lat="37.040383" lon="14.7044996"><ele>589.0</ele><time>2026-04-24T16:12:44.615Z</time></trkpt><trkpt lat="37.0404403" lon="14.7044599"><ele>589.0</ele><time>2026-04-24T16:12:47.617Z</time></trkpt><trkpt lat="37.0404984" lon="14.7044254"><ele>589.0</ele><time>2026-04-24T16:12:56.616Z</time></trkpt><trkpt lat="37.0405054" lon="14.7043342"><ele>589.0</ele><time>2026-04-24T16:13:03.616Z</time></trkpt><trkpt lat="37.0405242" lon="14.7042566"><ele>589.0</ele><time>2026-04-24T16:13:10.616Z</time></trkpt><trkpt lat="37.040521" lon="14.7041623"><ele>589.0</ele><time>2026-04-24T16:13:26.616Z</time></trkpt><trkpt lat="37.0405222" lon="14.7040805"><ele>588.5714285714286</ele><time>2026-04-24T16:13:41.616Z</time></trkpt><trkpt lat="37.0405517" lon="14.7040067"><ele>588.1428571428571</ele><time>2026-04-24T16:13:50.616Z</time></trkpt><trkpt lat="37.0405871" lon="14.7039344"><ele>587.7142857142857</ele><time>2026-04-24T16:14:13.616Z</time></trkpt><trkpt lat="37.0406408" lon="14.7038771"><ele>587.2857142857142</ele><time>2026-04-24T16:14:23.617Z</time></trkpt><trkpt lat="37.0406972" lon="14.7038362"><ele>586.8571428571429</ele><time>2026-04-24T16:14:27.617Z</time></trkpt><trkpt lat="37.0407462" lon="14.7037735"><ele>586.4285714285713</ele><time>2026-04-24T16:14:43.616Z</time></trkpt><trkpt lat="37.04073" lon="14.7036786"><ele>586.0</ele><time>2026-04-24T16:14:52.615Z</time></trkpt><trkpt lat="37.0406982" lon="14.7035864"><ele>583.2857142857142</ele><time>2026-04-24T16:14:55.617Z</time></trkpt><trkpt lat="37.0406522" lon="14.7034966"><ele>580.5714285714286</ele><time>2026-04-24T16:14:58.617Z</time></trkpt><trkpt lat="37.0406628" lon="14.7034099"><ele>577.8571428571429</ele><time>2026-04-24T16:15:03.616Z</time></trkpt><trkpt lat="37.0406852" lon="14.703336"><ele>575.1428571428571</ele><time>2026-04-24T16:15:06.617Z</time></trkpt><trkpt lat="37.0406531" lon="14.7032433"><ele>572.4285714285714</ele><time>2026-04-24T16:15:09.616Z</time></trkpt><trkpt lat="37.0406375" lon="14.7031541"><ele>569.7142857142857</ele><time>2026-04-24T16:15:13.616Z</time></trkpt><trkpt lat="37.040704" lon="14.7031692"><ele>567.0</ele><time>2026-04-24T16:15:18.616Z</time></trkpt><trkpt lat="37.0407779" lon="14.7032552"><ele>565.8000000000001</ele><time>2026-04-24T16:15:20.615Z</time></trkpt><trkpt lat="37.0408309" lon="14.7032997"><ele>564.6</ele><time>2026-04-24T16:15:21.616Z</time></trkpt><trkpt lat="37.0409217" lon="14.7033772"><ele>563.4000000000001</ele><time>2026-04-24T16:15:23.616Z</time></trkpt><trkpt lat="37.0409853" lon="14.7034864"><ele>562.2</ele><time>2026-04-24T16:15:25.616Z</time></trkpt><trkpt lat="37.0410051" lon="14.703619"><ele>561.0</ele><time>2026-04-24T16:15:27.616Z</time></trkpt><trkpt lat="37.0409863" lon="14.703701"><ele>561.0</ele><time>2026-04-24T16:15:28.616Z</time></trkpt><trkpt lat="37.040967" lon="14.7037877"><ele>561.0</ele><time>2026-04-24T16:15:29.616Z</time></trkpt><trkpt lat="37.040954" lon="14.7038703"><ele>561.0</ele><time>2026-04-24T16:15:30.616Z</time></trkpt><trkpt lat="37.0409428" lon="14.7039581"><ele>561.0</ele><time>2026-04-24T16:15:31.616Z</time></trkpt><trkpt lat="37.0409216" lon="14.7040578"><ele>561.0</ele><time>2026-04-24T16:15:32.616Z</time></trkpt><trkpt lat="37.0408966" lon="14.7041603"><ele>561.0</ele><time>2026-04-24T16:15:33.615Z</time></trkpt><trkpt lat="37.0408746" lon="14.7042616"><ele>561.0</ele><time>2026-04-24T16:15:34.616Z</time></trkpt><trkpt lat="37.0408501" lon="14.7043689"><ele>561.0</ele><time>2026-04-24T16:15:35.616Z</time></trkpt><trkpt lat="37.0408216" lon="14.7044652"><ele>561.0</ele><time>2026-04-24T16:15:36.615Z</time></trkpt><trkpt lat="37.0407833" lon="14.7045547"><ele>561.0</ele><time>2026-04-24T16:15:37.615Z</time></trkpt><trkpt lat="37.0407521" lon="14.7046343"><ele>561.0</ele><time>2026-04-24T16:15:38.615Z</time></trkpt><trkpt lat="37.0407025" lon="14.7047154"><ele>561.0</ele><time>2026-04-24T16:15:39.616Z</time></trkpt><trkpt lat="37.0406642" lon="14.7047949"><ele>565.6666666666666</ele><time>2026-04-24T16:15:40.615Z</time></trkpt><trkpt lat="37.0406353" lon="14.7048667"><ele>570.3333333333334</ele><time>2026-04-24T16:15:41.615Z</time></trkpt><trkpt lat="37.0405772" lon="14.7049565"><ele>575.0</ele><time>2026-04-24T16:15:43.617Z</time></trkpt><trkpt lat="37.0404882" lon="14.7050345"><ele>579.6666666666667</ele><time>2026-04-24T16:15:45.617Z</time></trkpt><trkpt lat="37.0404361" lon="14.7050801"><ele>584.3333333333334</ele><time>2026-04-24T16:15:46.617Z</time></trkpt><trkpt lat="37.0403805" lon="14.7051175"><ele>589.0</ele><time>2026-04-24T16:15:47.617Z</time></trkpt><trkpt lat="37.0402902" lon="14.7051902"><ele>589.0</ele><time>2026-04-24T16:15:49.615Z</time></trkpt><trkpt lat="37.040192" lon="14.7052668"><ele>589.0</ele><time>2026-04-24T16:15:51.616Z</time></trkpt><trkpt lat="37.0401719" lon="14.7051854"><ele>589.0</ele><time>2026-04-24T16:16:10.616Z</time></trkpt><trkpt lat="37.0401783" lon="14.7050881"><ele>589.0</ele><time>2026-04-24T16:16:13.615Z</time></trkpt><trkpt lat="37.0402197" lon="14.7050068"><ele>589.0</ele><time>2026-04-24T16:16:18.616Z</time></trkpt><trkpt lat="37.0402699" lon="14.7049414"><ele>589.0</ele><time>2026-04-24T16:16:26.616Z</time></trkpt><trkpt lat="37.0403105" lon="14.7048525"><ele>589.0</ele><time>2026-04-24T16:16:34.616Z</time></trkpt><trkpt lat="37.0403401" lon="14.7047752"><ele>589.0</ele><time>2026-04-24T16:16:37.616Z</time></trkpt><trkpt lat="37.0403599" lon="14.7046976"><ele>589.0</ele><time>2026-04-24T16:16:39.615Z</time></trkpt><trkpt lat="37.0403439" lon="14.7046158"><ele>589.0</ele><time>2026-04-24T16:16:43.616Z</time></trkpt><trkpt lat="37.0403682" lon="14.7045304"><ele>589.0</ele><time>2026-04-24T16:16:51.615Z</time></trkpt><trkpt lat="37.0404271" lon="14.704477"><ele>589.0</ele><time>2026-04-24T16:16:54.615Z</time></trkpt><trkpt lat="37.0404937" lon="14.704436"><ele>589.0</ele><time>2026-04-24T16:16:58.616Z</time></trkpt><trkpt lat="37.040539" lon="14.7043634"><ele>588.5714285714286</ele><time>2026-04-24T16:17:03.615Z</time></trkpt><trkpt lat="37.0405185" lon="14.7042884"><ele>588.1428571428571</ele><time>2026-04-24T16:17:07.616Z</time></trkpt><trkpt lat="37.0405328" lon="14.7042057"><ele>587.7142857142857</ele><time>2026-04-24T16:17:28.616Z</time></trkpt><trkpt lat="37.040516" lon="14.7041204"><ele>587.2857142857142</ele><time>2026-04-24T16:18:30.616Z</time></trkpt><trkpt lat="37.0405339" lon="14.7040441"><ele>586.8571428571429</ele><time>2026-04-24T16:18:50.615Z</time></trkpt><trkpt lat="37.0405127" lon="14.7041207"><ele>586.4285714285713</ele><time>2026-04-24T16:19:01.616Z</time></trkpt><trkpt lat="37.0405393" lon="14.7040473"><ele>586.0</ele><time>2026-04-24T16:20:07.616Z</time></trkpt><trkpt lat="37.0405664" lon="14.703969"><ele>585.9999999999999</ele><time>2026-04-24T16:20:38.615Z</time></trkpt><trkpt lat="37.0405308" lon="14.7040362"><ele>586.0</ele><time>2026-04-24T16:20:48.616Z</time></trkpt><trkpt lat="37.0405771" lon="14.7039524"><ele>586.0</ele><time>2026-04-24T16:21:42.616Z</time></trkpt><trkpt lat="37.0406325" lon="14.7038949"><ele>586.0</ele><time>2026-04-24T16:21:48.616Z</time></trkpt><trkpt lat="37.0406876" lon="14.7038415"><ele>586.0</ele><time>2026-04-24T16:21:57.629Z</time></trkpt><trkpt lat="37.0407214" lon="14.7037646"><ele>585.9999999999999</ele><time>2026-04-24T16:22:04.616Z</time></trkpt><trkpt lat="37.0407195" lon="14.7036761"><ele>586.0</ele><time>2026-04-24T16:22:50.616Z</time></trkpt><trkpt lat="37.0406771" lon="14.7035647"><ele>583.2857142857142</ele><time>2026-04-24T16:22:53.616Z</time></trkpt><trkpt lat="37.0406428" lon="14.7034819"><ele>580.5714285714286</ele><time>2026-04-24T16:22:55.616Z</time></trkpt><trkpt lat="37.0406176" lon="14.7034017"><ele>577.8571428571429</ele><time>2026-04-24T16:23:02.616Z</time></trkpt><trkpt lat="37.0405549" lon="14.7033845"><ele>575.1428571428571</ele><time>2026-04-24T16:23:05.616Z</time></trkpt><trkpt lat="37.0405053" lon="14.7032949"><ele>572.4285714285714</ele><time>2026-04-24T16:23:08.616Z</time></trkpt><trkpt lat="37.0404988" lon="14.7031976"><ele>569.7142857142857</ele><time>2026-04-24T16:23:29.616Z</time></trkpt><trkpt lat="37.040493" lon="14.7031149"><ele>567.0</ele><time>2026-04-24T16:23:33.616Z</time></trkpt><trkpt lat="37.0405569" lon="14.703096"><ele>567.0</ele><time>2026-04-24T16:23:40.615Z</time></trkpt><trkpt lat="37.0406361" lon="14.7031154"><ele>567.0</ele><time>2026-04-24T16:23:44.616Z</time></trkpt><trkpt lat="37.0406044" lon="14.7030072"><ele>567.0</ele><time>2026-04-24T16:23:47.616Z</time></trkpt><trkpt lat="37.0405242" lon="14.702963"><ele>567.0</ele><time>2026-04-24T16:23:50.616Z</time></trkpt><trkpt lat="37.0404463" lon="14.7029068"><ele>567.0</ele><time>2026-04-24T16:23:53.616Z</time></trkpt><trkpt lat="37.0403989" lon="14.7028493"><ele>567.0</ele><time>2026-04-24T16:23:55.614Z</time></trkpt><trkpt lat="37.0403475" lon="14.7027722"><ele>561.75</ele><time>2026-04-24T16:23:57.616Z</time></trkpt><trkpt lat="37.0402813" lon="14.7026513"><ele>556.5</ele><time>2026-04-24T16:23:59.616Z</time></trkpt><trkpt lat="37.0402166" lon="14.7025516"><ele>551.25</ele><time>2026-04-24T16:24:01.615Z</time></trkpt><trkpt lat="37.0401398" lon="14.7024321"><ele>546.0</ele><time>2026-04-24T16:24:03.615Z</time></trkpt><trkpt lat="37.0400498" lon="14.7023165"><ele>546.8</ele><time>2026-04-24T16:24:05.615Z</time></trkpt><trkpt lat="37.0399575" lon="14.7022513"><ele>547.6</ele><time>2026-04-24T16:24:07.616Z</time></trkpt><trkpt lat="37.0398579" lon="14.7022133"><ele>548.4</ele><time>2026-04-24T16:24:09.615Z</time></trkpt><trkpt lat="37.0397569" lon="14.7022058"><ele>549.2</ele><time>2026-04-24T16:24:11.616Z</time></trkpt><trkpt lat="37.039652" lon="14.7022528"><ele>550.0</ele><time>2026-04-24T16:24:13.615Z</time></trkpt><trkpt lat="37.0395527" lon="14.7023084"><ele>550.0</ele><time>2026-04-24T16:24:15.616Z</time></trkpt><trkpt lat="37.0394568" lon="14.7023401"><ele>550.0</ele><time>2026-04-24T16:24:17.615Z</time></trkpt><trkpt lat="37.0393776" lon="14.7023069"><ele>550.0</ele><time>2026-04-24T16:24:19.615Z</time></trkpt><trkpt lat="37.0393294" lon="14.7022199"><ele>550.0</ele><time>2026-04-24T16:24:21.615Z</time></trkpt><trkpt lat="37.0392817" lon="14.7021182"><ele>550.0</ele><time>2026-04-24T16:24:23.616Z</time></trkpt><trkpt lat="37.0392562" lon="14.7019799"><ele>551.2</ele><time>2026-04-24T16:24:25.616Z</time></trkpt><trkpt lat="37.0392327" lon="14.7018661"><ele>552.4</ele><time>2026-04-24T16:24:27.617Z</time></trkpt><trkpt lat="37.0391698" lon="14.7018298"><ele>553.6</ele><time>2026-04-24T16:24:29.616Z</time></trkpt><trkpt lat="37.039084" lon="14.7018132"><ele>554.8</ele><time>2026-04-24T16:24:31.615Z</time></trkpt><trkpt lat="37.0389663" lon="14.7018052"><ele>556.0</ele><time>2026-04-24T16:24:33.616Z</time></trkpt><trkpt lat="37.0388521" lon="14.7017644"><ele>556.0</ele><time>2026-04-24T16:24:35.616Z</time></trkpt><trkpt lat="37.0387502" lon="14.701711"><ele>556.0</ele><time>2026-04-24T16:24:37.616Z</time></trkpt><trkpt lat="37.0386484" lon="14.7016579"><ele>556.0</ele><time>2026-04-24T16:24:39.616Z</time></trkpt><trkpt lat="37.0385489" lon="14.7016253"><ele>556.0</ele><time>2026-04-24T16:24:41.616Z</time></trkpt><trkpt lat="37.0384304" lon="14.701599"><ele>556.0</ele><time>2026-04-24T16:24:43.615Z</time></trkpt><trkpt lat="37.0383664" lon="14.7015958"><ele>558.3333333333334</ele><time>2026-04-24T16:24:44.615Z</time></trkpt><trkpt lat="37.0382909" lon="14.7015916"><ele>560.6666666666667</ele><time>2026-04-24T16:24:45.616Z</time></trkpt><trkpt lat="37.038219" lon="14.7015978"><ele>563.0</ele><time>2026-04-24T16:24:46.616Z</time></trkpt><trkpt lat="37.0381488" lon="14.7015902"><ele>565.3333333333334</ele><time>2026-04-24T16:24:47.615Z</time></trkpt><trkpt lat="37.0380765" lon="14.7015767"><ele>567.6666666666666</ele><time>2026-04-24T16:24:48.617Z</time></trkpt><trkpt lat="37.0380062" lon="14.7015706"><ele>570.0</ele><time>2026-04-24T16:24:49.616Z</time></trkpt><trkpt lat="37.0378853" lon="14.7015396"><ele>570.0</ele><time>2026-04-24T16:24:51.615Z</time></trkpt><trkpt lat="37.0378276" lon="14.7014592"><ele>570.0</ele><time>2026-04-24T16:24:53.616Z</time></trkpt><trkpt lat="37.0377629" lon="14.701396"><ele>570.0</ele><time>2026-04-24T16:24:55.616Z</time></trkpt><trkpt lat="37.0376601" lon="14.7013754"><ele>570.0</ele><time>2026-04-24T16:24:59.614Z</time></trkpt><trkpt lat="37.0375726" lon="14.7013736"><ele>570.0</ele><time>2026-04-24T16:25:01.615Z</time></trkpt><trkpt lat="37.0374577" lon="14.7013939"><ele>570.8</ele><time>2026-04-24T16:25:03.615Z</time></trkpt><trkpt lat="37.037357" lon="14.7014205"><ele>571.6</ele><time>2026-04-24T16:25:05.615Z</time></trkpt><trkpt lat="37.0372567" lon="14.7014244"><ele>572.4</ele><time>2026-04-24T16:25:07.615Z</time></trkpt><trkpt lat="37.0371496" lon="14.701432"><ele>573.2</ele><time>2026-04-24T16:25:09.617Z</time></trkpt><trkpt lat="37.0370489" lon="14.7014876"><ele>574.0</ele><time>2026-04-24T16:25:11.616Z</time></trkpt><trkpt lat="37.0369974" lon="14.7015336"><ele>574.0</ele><time>2026-04-24T16:25:12.614Z</time></trkpt><trkpt lat="37.0369088" lon="14.7016451"><ele>574.0</ele><time>2026-04-24T16:25:14.616Z</time></trkpt><trkpt lat="37.036856" lon="14.7017032"><ele>574.0</ele><time>2026-04-24T16:25:15.616Z</time></trkpt><trkpt lat="37.0367915" lon="14.7018285"><ele>574.0</ele><time>2026-04-24T16:25:17.618Z</time></trkpt><trkpt lat="37.0367687" lon="14.7019672"><ele>574.0</ele><time>2026-04-24T16:25:19.616Z</time></trkpt><trkpt lat="37.0367608" lon="14.7021183"><ele>575.6666666666667</ele><time>2026-04-24T16:25:21.616Z</time></trkpt><trkpt lat="37.0367983" lon="14.7022622"><ele>577.3333333333334</ele><time>2026-04-24T16:25:23.615Z</time></trkpt><trkpt lat="37.0368191" lon="14.7023447"><ele>579.0</ele><time>2026-04-24T16:25:24.616Z</time></trkpt><trkpt lat="37.036841" lon="14.7024255"><ele>580.6666666666666</ele><time>2026-04-24T16:25:25.615Z</time></trkpt><trkpt lat="37.0368616" lon="14.7025065"><ele>582.3333333333333</ele><time>2026-04-24T16:25:26.616Z</time></trkpt><trkpt lat="37.0368825" lon="14.7025917"><ele>584.0</ele><time>2026-04-24T16:25:27.616Z</time></trkpt><trkpt lat="37.0368944" lon="14.7026798"><ele>586.8333333333333</ele><time>2026-04-24T16:25:28.617Z</time></trkpt><trkpt lat="37.0369019" lon="14.7027696"><ele>589.6666666666666</ele><time>2026-04-24T16:25:29.616Z</time></trkpt><trkpt lat="37.0368989" lon="14.70287"><ele>592.5</ele><time>2026-04-24T16:25:30.615Z</time></trkpt><trkpt lat="37.0368973" lon="14.7029779"><ele>595.3333333333334</ele><time>2026-04-24T16:25:31.615Z</time></trkpt><trkpt lat="37.036895" lon="14.7030827"><ele>598.1666666666667</ele><time>2026-04-24T16:25:32.615Z</time></trkpt><trkpt lat="37.0368795" lon="14.7031883"><ele>601.0</ele><time>2026-04-24T16:25:33.615Z</time></trkpt><trkpt lat="37.0368711" lon="14.7032973"><ele>601.0</ele><time>2026-04-24T16:25:34.616Z</time></trkpt><trkpt lat="37.0368535" lon="14.7034135"><ele>601.0</ele><time>2026-04-24T16:25:35.616Z</time></trkpt><trkpt lat="37.0368431" lon="14.7035202"><ele>601.0</ele><time>2026-04-24T16:25:36.616Z</time></trkpt><trkpt lat="37.0368308" lon="14.7036096"><ele>601.0</ele><time>2026-04-24T16:25:37.616Z</time></trkpt><trkpt lat="37.036818" lon="14.7037074"><ele>601.0</ele><time>2026-04-24T16:25:38.615Z</time></trkpt><trkpt lat="37.0368018" lon="14.7037997"><ele>601.0</ele><time>2026-04-24T16:25:39.615Z</time></trkpt><trkpt lat="37.0367917" lon="14.7038888"><ele>603.5</ele><time>2026-04-24T16:25:40.617Z</time></trkpt><trkpt lat="37.0367861" lon="14.7039928"><ele>606.0</ele><time>2026-04-24T16:25:41.617Z</time></trkpt><trkpt lat="37.0367814" lon="14.7040911"><ele>608.5</ele><time>2026-04-24T16:25:42.616Z</time></trkpt><trkpt lat="37.0367638" lon="14.7041834"><ele>611.0</ele><time>2026-04-24T16:25:43.616Z</time></trkpt><trkpt lat="37.0367415" lon="14.7042738"><ele>613.5</ele><time>2026-04-24T16:25:44.615Z</time></trkpt><trkpt lat="37.0367314" lon="14.7043711"><ele>616.0</ele><time>2026-04-24T16:25:45.615Z</time></trkpt><trkpt lat="37.0367394" lon="14.7044773"><ele>619.2857142857143</ele><time>2026-04-24T16:25:46.616Z</time></trkpt><trkpt lat="37.0367492" lon="14.7045624"><ele>622.5714285714286</ele><time>2026-04-24T16:25:47.616Z</time></trkpt><trkpt lat="37.0367601" lon="14.7046645"><ele>625.8571428571429</ele><time>2026-04-24T16:25:48.614Z</time></trkpt><trkpt lat="37.0367803" lon="14.7047403"><ele>629.1428571428571</ele><time>2026-04-24T16:25:49.615Z</time></trkpt><trkpt lat="37.0368104" lon="14.704838"><ele>632.4285714285714</ele><time>2026-04-24T16:25:50.616Z</time></trkpt><trkpt lat="37.0368442" lon="14.7049171"><ele>635.7142857142858</ele><time>2026-04-24T16:25:51.616Z</time></trkpt><trkpt lat="37.0368864" lon="14.7049966"><ele>639.0</ele><time>2026-04-24T16:25:52.615Z</time></trkpt><trkpt lat="37.0369305" lon="14.7050715"><ele>639.0000000000001</ele><time>2026-04-24T16:25:53.616Z</time></trkpt><trkpt lat="37.0369764" lon="14.7051365"><ele>639.0</ele><time>2026-04-24T16:25:54.615Z</time></trkpt><trkpt lat="37.0370192" lon="14.7052064"><ele>639.0</ele><time>2026-04-24T16:25:55.616Z</time></trkpt><trkpt lat="37.0370605" lon="14.7052726"><ele>639.0</ele><time>2026-04-24T16:25:56.615Z</time></trkpt><trkpt lat="37.037101" lon="14.705333"><ele>639.0</ele><time>2026-04-24T16:25:57.616Z</time></trkpt><trkpt lat="37.0371552" lon="14.7054008"><ele>639.0000000000001</ele><time>2026-04-24T16:25:58.614Z</time></trkpt><trkpt lat="37.0371895" lon="14.7054699"><ele>639.0</ele><time>2026-04-24T16:25:59.615Z</time></trkpt><trkpt lat="37.037268" lon="14.705607"><ele>641.1666666666666</ele><time>2026-04-24T16:26:01.615Z</time></trkpt><trkpt lat="37.0373041" lon="14.7056722"><ele>643.3333333333334</ele><time>2026-04-24T16:26:02.615Z</time></trkpt><trkpt lat="37.0373737" lon="14.7057958"><ele>645.5</ele><time>2026-04-24T16:26:04.615Z</time></trkpt><trkpt lat="37.0374188" lon="14.7058668"><ele>647.6666666666667</ele><time>2026-04-24T16:26:05.616Z</time></trkpt><trkpt lat="37.0374608" lon="14.7059407"><ele>649.8333333333334</ele><time>2026-04-24T16:26:06.616Z</time></trkpt><trkpt lat="37.0374898" lon="14.7060109"><ele>652.0</ele><time>2026-04-24T16:26:07.616Z</time></trkpt><trkpt lat="37.0375228" lon="14.706096"><ele>654.0</ele><time>2026-04-24T16:26:08.616Z</time></trkpt><trkpt lat="37.0375362" lon="14.7061807"><ele>656.0</ele><time>2026-04-24T16:26:09.616Z</time></trkpt><trkpt lat="37.0375432" lon="14.7062767"><ele>658.0</ele><time>2026-04-24T16:26:11.617Z</time></trkpt><trkpt lat="37.0375712" lon="14.706361"><ele>660.0</ele><time>2026-04-24T16:26:14.615Z</time></trkpt><trkpt lat="37.0375995" lon="14.7064641"><ele>662.0</ele><time>2026-04-24T16:28:35.616Z</time></trkpt><trkpt lat="37.0375944" lon="14.7065481"><ele>664.0</ele><time>2026-04-24T16:28:36.616Z</time></trkpt><trkpt lat="37.0375793" lon="14.7066447"><ele>664.0</ele><time>2026-04-24T16:28:37.616Z</time></trkpt><trkpt lat="37.0375563" lon="14.7067572"><ele>664.0</ele><time>2026-04-24T16:28:38.615Z</time></trkpt><trkpt lat="37.0375078" lon="14.7068743"><ele>664.0</ele><time>2026-04-24T16:28:39.617Z</time></trkpt><trkpt lat="37.0374636" lon="14.7069966"><ele>664.0</ele><time>2026-04-24T16:28:40.614Z</time></trkpt><trkpt lat="37.03741" lon="14.7071278"><ele>664.0</ele><time>2026-04-24T16:28:41.615Z</time></trkpt><trkpt lat="37.0373516" lon="14.7072686"><ele>666.75</ele><time>2026-04-24T16:28:42.616Z</time></trkpt><trkpt lat="37.0372842" lon="14.7074128"><ele>669.5</ele><time>2026-04-24T16:28:43.615Z</time></trkpt><trkpt lat="37.0372116" lon="14.7075649"><ele>672.25</ele><time>2026-04-24T16:28:44.616Z</time></trkpt><trkpt lat="37.0371358" lon="14.7077177"><ele>675.0</ele><time>2026-04-24T16:28:45.615Z</time></trkpt><trkpt lat="37.0370594" lon="14.7078777"><ele>675.0</ele><time>2026-04-24T16:28:46.617Z</time></trkpt><trkpt lat="37.0369956" lon="14.7080415"><ele>675.0</ele><time>2026-04-24T16:28:47.616Z</time></trkpt><trkpt lat="37.0369349" lon="14.708217"><ele>675.0</ele><time>2026-04-24T16:28:48.615Z</time></trkpt><trkpt lat="37.0368722" lon="14.7083876"><ele>675.0</ele><time>2026-04-24T16:28:49.616Z</time></trkpt><trkpt lat="37.0367988" lon="14.7085511"><ele>673.75</ele><time>2026-04-24T16:28:50.617Z</time></trkpt><trkpt lat="37.0367163" lon="14.708697"><ele>672.5</ele><time>2026-04-24T16:28:51.615Z</time></trkpt><trkpt lat="37.0366302" lon="14.7088322"><ele>671.25</ele><time>2026-04-24T16:28:52.615Z</time></trkpt><trkpt lat="37.0365634" lon="14.7089749"><ele>670.0</ele><time>2026-04-24T16:28:53.614Z</time></trkpt><trkpt lat="37.0365207" lon="14.7091235"><ele>670.0</ele><time>2026-04-24T16:28:54.615Z</time></trkpt><trkpt lat="37.0364958" lon="14.7092872"><ele>670.0</ele><time>2026-04-24T16:28:55.615Z</time></trkpt><trkpt lat="37.0364797" lon="14.7094566"><ele>670.0</ele><time>2026-04-24T16:28:56.616Z</time></trkpt><trkpt lat="37.0364772" lon="14.7096261"><ele>670.0</ele><time>2026-04-24T16:28:57.615Z</time></trkpt><trkpt lat="37.0364788" lon="14.7098037"><ele>669.25</ele><time>2026-04-24T16:28:58.616Z</time></trkpt><trkpt lat="37.0364908" lon="14.7099843"><ele>668.5</ele><time>2026-04-24T16:28:59.615Z</time></trkpt><trkpt lat="37.0365031" lon="14.7101586"><ele>667.75</ele><time>2026-04-24T16:29:00.616Z</time></trkpt><trkpt lat="37.0365295" lon="14.7103165"><ele>667.0</ele><time>2026-04-24T16:29:01.616Z</time></trkpt><trkpt lat="37.0365699" lon="14.7104528"><ele>668.6</ele><time>2026-04-24T16:29:02.616Z</time></trkpt><trkpt lat="37.036603" lon="14.7105841"><ele>670.2</ele><time>2026-04-24T16:29:03.616Z</time></trkpt><trkpt lat="37.0366245" lon="14.710692"><ele>671.8</ele><time>2026-04-24T16:29:04.616Z</time></trkpt><trkpt lat="37.0366565" lon="14.7107746"><ele>673.4</ele><time>2026-04-24T16:29:05.616Z</time></trkpt><trkpt lat="37.036715" lon="14.7108533"><ele>675.0</ele><time>2026-04-24T16:29:06.615Z</time></trkpt><trkpt lat="37.0367979" lon="14.7109184"><ele>677.2</ele><time>2026-04-24T16:29:07.616Z</time></trkpt><trkpt lat="37.0368972" lon="14.7109934"><ele>679.4</ele><time>2026-04-24T16:29:08.615Z</time></trkpt><trkpt lat="37.0369976" lon="14.7110673"><ele>681.5999999999999</ele><time>2026-04-24T16:29:09.616Z</time></trkpt><trkpt lat="37.0370861" lon="14.7111364"><ele>683.8</ele><time>2026-04-24T16:29:10.616Z</time></trkpt><trkpt lat="37.0371463" lon="14.7112057"><ele>686.0</ele><time>2026-04-24T16:29:11.616Z</time></trkpt><trkpt lat="37.0371569" lon="14.7113418"><ele>689.3333333333333</ele><time>2026-04-24T16:29:13.616Z</time></trkpt><trkpt lat="37.0371113" lon="14.7113971"><ele>692.6666666666666</ele><time>2026-04-24T16:29:14.615Z</time></trkpt><trkpt lat="37.0370328" lon="14.7114599"><ele>696.0</ele><time>2026-04-24T16:29:15.615Z</time></trkpt><trkpt lat="37.0369465" lon="14.7115118"><ele>699.3333333333334</ele><time>2026-04-24T16:29:16.615Z</time></trkpt><trkpt lat="37.0368687" lon="14.7115754"><ele>702.6666666666667</ele><time>2026-04-24T16:29:17.616Z</time></trkpt><trkpt lat="37.0368324" lon="14.7116538"><ele>706.0</ele><time>2026-04-24T16:29:18.615Z</time></trkpt><trkpt lat="37.03681" lon="14.7117355"><ele>706.0</ele><time>2026-04-24T16:29:19.614Z</time></trkpt><trkpt lat="37.036793" lon="14.711822"><ele>706.0</ele><time>2026-04-24T16:29:20.614Z</time></trkpt><trkpt lat="37.0367656" lon="14.7118958"><ele>706.0</ele><time>2026-04-24T16:29:21.615Z</time></trkpt><trkpt lat="37.0367406" lon="14.7119943"><ele>706.0</ele><time>2026-04-24T16:29:23.615Z</time></trkpt><trkpt lat="37.0367834" lon="14.712099"><ele>706.0</ele><time>2026-04-24T16:29:25.616Z</time></trkpt><trkpt lat="37.0368304" lon="14.7121741"><ele>706.0</ele><time>2026-04-24T16:29:26.616Z</time></trkpt><trkpt lat="37.0368627" lon="14.7122611"><ele>710.0</ele><time>2026-04-24T16:29:27.615Z</time></trkpt><trkpt lat="37.0368664" lon="14.7123572"><ele>714.0</ele><time>2026-04-24T16:29:28.615Z</time></trkpt><trkpt lat="37.0368567" lon="14.7124738"><ele>718.0</ele><time>2026-04-24T16:29:29.615Z</time></trkpt><trkpt lat="37.0368223" lon="14.7125846"><ele>722.0</ele><time>2026-04-24T16:29:30.616Z</time></trkpt><trkpt lat="37.0367894" lon="14.7127003"><ele>726.0</ele><time>2026-04-24T16:29:31.616Z</time></trkpt><trkpt lat="37.0367538" lon="14.7128252"><ele>728.8</ele><time>2026-04-24T16:29:32.615Z</time></trkpt><trkpt lat="37.0367157" lon="14.7129415"><ele>731.5999999999999</ele><time>2026-04-24T16:29:33.616Z</time></trkpt><trkpt lat="37.0366695" lon="14.7130659"><ele>734.4</ele><time>2026-04-24T16:29:34.614Z</time></trkpt><trkpt lat="37.0366201" lon="14.7131854"><ele>737.2</ele><time>2026-04-24T16:29:35.615Z</time></trkpt><trkpt lat="37.036573" lon="14.7133077"><ele>740.0</ele><time>2026-04-24T16:29:36.617Z</time></trkpt><trkpt lat="37.0365449" lon="14.7134122"><ele>740.4</ele><time>2026-04-24T16:29:37.615Z</time></trkpt><trkpt lat="37.0365097" lon="14.7135233"><ele>740.8</ele><time>2026-04-24T16:29:38.615Z</time></trkpt><trkpt lat="37.0364808" lon="14.7136419"><ele>741.2</ele><time>2026-04-24T16:29:39.615Z</time></trkpt><trkpt lat="37.0364594" lon="14.7137601"><ele>741.6</ele><time>2026-04-24T16:29:40.615Z</time></trkpt><trkpt lat="37.0364386" lon="14.7138763"><ele>742.0</ele><time>2026-04-24T16:29:41.615Z</time></trkpt><trkpt lat="37.0364257" lon="14.7139964"><ele>746.8</ele><time>2026-04-24T16:29:42.615Z</time></trkpt><trkpt lat="37.0364159" lon="14.7141183"><ele>751.6</ele><time>2026-04-24T16:29:43.615Z</time></trkpt><trkpt lat="37.0364077" lon="14.7142367"><ele>756.4</ele><time>2026-04-24T16:29:44.615Z</time></trkpt><trkpt lat="37.0364026" lon="14.7143578"><ele>761.1999999999999</ele><time>2026-04-24T16:29:45.615Z</time></trkpt><trkpt lat="37.0363892" lon="14.7144802"><ele>766.0</ele><time>2026-04-24T16:29:46.616Z</time></trkpt><trkpt lat="37.0363739" lon="14.7145969"><ele>770.5999999999999</ele><time>2026-04-24T16:29:47.617Z</time></trkpt><trkpt lat="37.0363638" lon="14.7147054"><ele>775.2</ele><time>2026-04-24T16:29:48.614Z</time></trkpt><trkpt lat="37.0363583" lon="14.714821"><ele>779.8</ele><time>2026-04-24T16:29:49.616Z</time></trkpt><trkpt lat="37.0363494" lon="14.7149376"><ele>784.4000000000001</ele><time>2026-04-24T16:29:50.616Z</time></trkpt><trkpt lat="37.036332" lon="14.7150509"><ele>789.0</ele><time>2026-04-24T16:29:51.615Z</time></trkpt><trkpt lat="37.0363121" lon="14.7151685"><ele>791.4000000000001</ele><time>2026-04-24T16:29:52.614Z</time></trkpt><trkpt lat="37.0362951" lon="14.7152826"><ele>793.8</ele><time>2026-04-24T16:29:53.615Z</time></trkpt><trkpt lat="37.0362752" lon="14.7154108"><ele>796.2</ele><time>2026-04-24T16:29:54.616Z</time></trkpt><trkpt lat="37.0362691" lon="14.7155425"><ele>798.5999999999999</ele><time>2026-04-24T16:29:55.615Z</time></trkpt><trkpt lat="37.0362572" lon="14.7156559"><ele>801.0</ele><time>2026-04-24T16:29:56.615Z</time></trkpt><trkpt lat="37.0362415" lon="14.7157716"><ele>801.0</ele><time>2026-04-24T16:29:57.616Z</time></trkpt><trkpt lat="37.0362343" lon="14.7158962"><ele>801.0</ele><time>2026-04-24T16:29:58.615Z</time></trkpt><trkpt lat="37.0362261" lon="14.7160162"><ele>801.0</ele><time>2026-04-24T16:29:59.615Z</time></trkpt><trkpt lat="37.0362191" lon="14.7161261"><ele>801.0</ele><time>2026-04-24T16:30:00.615Z</time></trkpt><trkpt lat="37.036215" lon="14.7162348"><ele>801.0</ele><time>2026-04-24T16:30:01.615Z</time></trkpt><trkpt lat="37.0362101" lon="14.7163473"><ele>802.3333333333334</ele><time>2026-04-24T16:30:02.615Z</time></trkpt><trkpt lat="37.036207" lon="14.7164539"><ele>803.6666666666667</ele><time>2026-04-24T16:30:03.615Z</time></trkpt><trkpt lat="37.036209" lon="14.7165589"><ele>805.0</ele><time>2026-04-24T16:30:04.616Z</time></trkpt><trkpt lat="37.0362185" lon="14.7166709"><ele>806.3333333333334</ele><time>2026-04-24T16:30:05.615Z</time></trkpt><trkpt lat="37.0362218" lon="14.7167837"><ele>807.6666666666667</ele><time>2026-04-24T16:30:06.615Z</time></trkpt><trkpt lat="37.0362276" lon="14.7168857"><ele>809.0</ele><time>2026-04-24T16:30:07.615Z</time></trkpt><trkpt lat="37.0362337" lon="14.7170006"><ele>810.0</ele><time>2026-04-24T16:30:08.616Z</time></trkpt><trkpt lat="37.03624" lon="14.7171259"><ele>811.0</ele><time>2026-04-24T16:30:09.616Z</time></trkpt><trkpt lat="37.0362423" lon="14.7172613"><ele>812.0</ele><time>2026-04-24T16:30:10.617Z</time></trkpt><trkpt lat="37.0362437" lon="14.717396"><ele>813.0</ele><time>2026-04-24T16:30:11.617Z</time></trkpt><trkpt lat="37.0362481" lon="14.7175352"><ele>814.0</ele><time>2026-04-24T16:30:12.615Z</time></trkpt><trkpt lat="37.036261" lon="14.7176736"><ele>814.0</ele><time>2026-04-24T16:30:13.615Z</time></trkpt><trkpt lat="37.0362847" lon="14.7178179"><ele>814.0</ele><time>2026-04-24T16:30:14.616Z</time></trkpt><trkpt lat="37.0363047" lon="14.7179548"><ele>814.0</ele><time>2026-04-24T16:30:15.617Z</time></trkpt><trkpt lat="37.0363267" lon="14.718086"><ele>814.0</ele><time>2026-04-24T16:30:16.616Z</time></trkpt><trkpt lat="37.0363491" lon="14.7182065"><ele>814.0</ele><time>2026-04-24T16:30:17.615Z</time></trkpt><trkpt lat="37.036379" lon="14.7183095"><ele>813.9999999999999</ele><time>2026-04-24T16:30:18.617Z</time></trkpt><trkpt lat="37.0364212" lon="14.7184026"><ele>814.0</ele><time>2026-04-24T16:30:19.616Z</time></trkpt><trkpt lat="37.0364805" lon="14.7184695"><ele>814.0</ele><time>2026-04-24T16:30:20.615Z</time></trkpt><trkpt lat="37.0365534" lon="14.7185279"><ele>814.0</ele><time>2026-04-24T16:30:21.616Z</time></trkpt><trkpt lat="37.0366265" lon="14.7185854"><ele>813.9999999999999</ele><time>2026-04-24T16:30:22.615Z</time></trkpt><trkpt lat="37.0366793" lon="14.7186778"><ele>814.0</ele><time>2026-04-24T16:30:23.616Z</time></trkpt><trkpt lat="37.0367402" lon="14.7187738"><ele>809.75</ele><time>2026-04-24T16:30:24.615Z</time></trkpt><trkpt lat="37.036778" lon="14.7188913"><ele>805.5</ele><time>2026-04-24T16:30:25.617Z</time></trkpt><trkpt lat="37.0368069" lon="14.7190248"><ele>801.25</ele><time>2026-04-24T16:30:26.615Z</time></trkpt><trkpt lat="37.0368313" lon="14.7191786"><ele>797.0</ele><time>2026-04-24T16:30:27.615Z</time></trkpt><trkpt lat="37.0368644" lon="14.7193471"><ele>796.75</ele><time>2026-04-24T16:30:28.616Z</time></trkpt><trkpt lat="37.0368895" lon="14.719524"><ele>796.5</ele><time>2026-04-24T16:30:29.616Z</time></trkpt><trkpt lat="37.0369139" lon="14.7196945"><ele>796.25</ele><time>2026-04-24T16:30:30.615Z</time></trkpt><trkpt lat="37.0369376" lon="14.7198655"><ele>796.0</ele><time>2026-04-24T16:30:31.616Z</time></trkpt><trkpt lat="37.0369522" lon="14.7200296"><ele>796.0</ele><time>2026-04-24T16:30:32.615Z</time></trkpt><trkpt lat="37.0369543" lon="14.7201986"><ele>796.0</ele><time>2026-04-24T16:30:33.615Z</time></trkpt><trkpt lat="37.0369576" lon="14.7203626"><ele>796.0</ele><time>2026-04-24T16:30:34.616Z</time></trkpt><trkpt lat="37.0369592" lon="14.72053"><ele>796.0</ele><time>2026-04-24T16:30:35.616Z</time></trkpt><trkpt lat="37.0369519" lon="14.7207193"><ele>795.0</ele><time>2026-04-24T16:30:36.615Z</time></trkpt><trkpt lat="37.0369363" lon="14.7208967"><ele>794.0</ele><time>2026-04-24T16:30:37.614Z</time></trkpt><trkpt lat="37.0369155" lon="14.7210687"><ele>793.0</ele><time>2026-04-24T16:30:38.616Z</time></trkpt><trkpt lat="37.0368999" lon="14.7212339"><ele>792.0</ele><time>2026-04-24T16:30:39.617Z</time></trkpt><trkpt lat="37.0368912" lon="14.7213652"><ele>791.3333333333334</ele><time>2026-04-24T16:30:40.614Z</time></trkpt><trkpt lat="37.0368818" lon="14.721483"><ele>790.6666666666667</ele><time>2026-04-24T16:30:41.616Z</time></trkpt><trkpt lat="37.0368517" lon="14.7215777"><ele>790.0</ele><time>2026-04-24T16:30:42.616Z</time></trkpt><trkpt lat="37.0368072" lon="14.7216489"><ele>789.3333333333334</ele><time>2026-04-24T16:30:43.616Z</time></trkpt><trkpt lat="37.0367358" lon="14.7216925"><ele>788.6666666666667</ele><time>2026-04-24T16:30:44.615Z</time></trkpt><trkpt lat="37.0366396" lon="14.7217204"><ele>788.0</ele><time>2026-04-24T16:30:45.616Z</time></trkpt><trkpt lat="37.0365294" lon="14.7217316"><ele>790.0</ele><time>2026-04-24T16:30:46.615Z</time></trkpt><trkpt lat="37.0364084" lon="14.7217347"><ele>792.0</ele><time>2026-04-24T16:30:47.615Z</time></trkpt><trkpt lat="37.0362793" lon="14.7217377"><ele>794.0</ele><time>2026-04-24T16:30:48.615Z</time></trkpt><trkpt lat="37.036144" lon="14.7217393"><ele>796.0</ele><time>2026-04-24T16:30:49.616Z</time></trkpt><trkpt lat="37.0360034" lon="14.7217399"><ele>796.0</ele><time>2026-04-24T16:30:50.615Z</time></trkpt><trkpt lat="37.0358599" lon="14.7217444"><ele>796.0</ele><time>2026-04-24T16:30:51.617Z</time></trkpt><trkpt lat="37.0357139" lon="14.7217545"><ele>796.0</ele><time>2026-04-24T16:30:52.615Z</time></trkpt><trkpt lat="37.0355693" lon="14.7217621"><ele>796.0</ele><time>2026-04-24T16:30:53.616Z</time></trkpt><trkpt lat="37.0354244" lon="14.7217733"><ele>799.0</ele><time>2026-04-24T16:30:54.616Z</time></trkpt><trkpt lat="37.0352777" lon="14.7217889"><ele>802.0</ele><time>2026-04-24T16:30:55.615Z</time></trkpt><trkpt lat="37.0351428" lon="14.7218216"><ele>805.0</ele><time>2026-04-24T16:30:56.617Z</time></trkpt><trkpt lat="37.0350117" lon="14.7218868"><ele>808.0</ele><time>2026-04-24T16:30:57.617Z</time></trkpt><trkpt lat="37.0348864" lon="14.7219722"><ele>811.3333333333333</ele><time>2026-04-24T16:30:58.616Z</time></trkpt><trkpt lat="37.0347601" lon="14.7220759"><ele>814.6666666666667</ele><time>2026-04-24T16:30:59.614Z</time></trkpt><trkpt lat="37.0346382" lon="14.7221875"><ele>818.0</ele><time>2026-04-24T16:31:00.616Z</time></trkpt><trkpt lat="37.0345126" lon="14.7222912"><ele>818.0</ele><time>2026-04-24T16:31:01.616Z</time></trkpt><trkpt lat="37.0343792" lon="14.7223873"><ele>818.0</ele><time>2026-04-24T16:31:02.616Z</time></trkpt><trkpt lat="37.0342476" lon="14.7224795"><ele>818.0</ele><time>2026-04-24T16:31:03.616Z</time></trkpt><trkpt lat="37.03412" lon="14.7225677"><ele>819.0</ele><time>2026-04-24T16:31:04.615Z</time></trkpt><trkpt lat="37.0340177" lon="14.7226413"><ele>820.0</ele><time>2026-04-24T16:31:05.615Z</time></trkpt><trkpt lat="37.0339366" lon="14.7227029"><ele>821.0</ele><time>2026-04-24T16:31:06.616Z</time></trkpt><trkpt lat="37.0338569" lon="14.7227611"><ele>822.0</ele><time>2026-04-24T16:31:07.615Z</time></trkpt><trkpt lat="37.0337679" lon="14.7228418"><ele>823.0</ele><time>2026-04-24T16:31:08.615Z</time></trkpt><trkpt lat="37.0336642" lon="14.7229291"><ele>823.0</ele><time>2026-04-24T16:31:09.616Z</time></trkpt><trkpt lat="37.0335513" lon="14.7230271"><ele>823.0</ele><time>2026-04-24T16:31:10.617Z</time></trkpt><trkpt lat="37.0334282" lon="14.7231242"><ele>823.0</ele><time>2026-04-24T16:31:11.615Z</time></trkpt><trkpt lat="37.033295" lon="14.7232169"><ele>823.0</ele><time>2026-04-24T16:31:12.615Z</time></trkpt><trkpt lat="37.0331604" lon="14.7233005"><ele>825.25</ele><time>2026-04-24T16:31:13.616Z</time></trkpt><trkpt lat="37.0330169" lon="14.7233549"><ele>827.5</ele><time>2026-04-24T16:31:14.615Z</time></trkpt><trkpt lat="37.0328667" lon="14.7233793"><ele>829.75</ele><time>2026-04-24T16:31:15.616Z</time></trkpt><trkpt lat="37.0327217" lon="14.7233717"><ele>832.0</ele><time>2026-04-24T16:31:16.616Z</time></trkpt><trkpt lat="37.0325669" lon="14.7233618"><ele>834.5</ele><time>2026-04-24T16:31:17.615Z</time></trkpt><trkpt lat="37.0324144" lon="14.7233493"><ele>837.0</ele><time>2026-04-24T16:31:18.616Z</time></trkpt><trkpt lat="37.0322626" lon="14.7233329"><ele>839.5</ele><time>2026-04-24T16:31:19.616Z</time></trkpt><trkpt lat="37.0321227" lon="14.7233032"><ele>842.0</ele><time>2026-04-24T16:31:20.615Z</time></trkpt><trkpt lat="37.0319907" lon="14.723295"><ele>842.0</ele><time>2026-04-24T16:31:21.615Z</time></trkpt><trkpt lat="37.0318625" lon="14.7233104"><ele>842.0</ele><time>2026-04-24T16:31:22.616Z</time></trkpt><trkpt lat="37.0317524" lon="14.7233608"><ele>842.0</ele><time>2026-04-24T16:31:23.616Z</time></trkpt><trkpt lat="37.0316681" lon="14.7234458"><ele>842.0</ele><time>2026-04-24T16:31:24.615Z</time></trkpt><trkpt lat="37.031608" lon="14.723564"><ele>844.5</ele><time>2026-04-24T16:31:25.616Z</time></trkpt><trkpt lat="37.0315702" lon="14.7237074"><ele>847.0</ele><time>2026-04-24T16:31:26.615Z</time></trkpt><trkpt lat="37.0315332" lon="14.7238648"><ele>849.5</ele><time>2026-04-24T16:31:27.617Z</time></trkpt><trkpt lat="37.0314709" lon="14.7240155"><ele>852.0</ele><time>2026-04-24T16:31:28.615Z</time></trkpt><trkpt lat="37.031394" lon="14.7241492"><ele>852.0</ele><time>2026-04-24T16:31:29.615Z</time></trkpt><trkpt lat="37.0313043" lon="14.7242861"><ele>852.0</ele><time>2026-04-24T16:31:30.615Z</time></trkpt><trkpt lat="37.0312083" lon="14.7244253"><ele>852.0</ele><time>2026-04-24T16:31:31.615Z</time></trkpt><trkpt lat="37.0311052" lon="14.7245776"><ele>852.0</ele><time>2026-04-24T16:31:32.616Z</time></trkpt><trkpt lat="37.0310049" lon="14.7247112"><ele>851.4000000000001</ele><time>2026-04-24T16:31:33.615Z</time></trkpt><trkpt lat="37.0309113" lon="14.7248383"><ele>850.8000000000001</ele><time>2026-04-24T16:31:34.615Z</time></trkpt><trkpt lat="37.030826" lon="14.7249417"><ele>850.2</ele><time>2026-04-24T16:31:35.616Z</time></trkpt><trkpt lat="37.0307436" lon="14.7250091"><ele>849.6</ele><time>2026-04-24T16:31:36.615Z</time></trkpt><trkpt lat="37.0306743" lon="14.7250521"><ele>849.0</ele><time>2026-04-24T16:31:37.616Z</time></trkpt><trkpt lat="37.0306677" lon="14.7249469"><ele>849.0</ele><time>2026-04-24T16:31:40.617Z</time></trkpt><trkpt lat="37.0306943" lon="14.7248684"><ele>849.0</ele><time>2026-04-24T16:31:41.614Z</time></trkpt><trkpt lat="37.0307312" lon="14.7247711"><ele>849.0</ele><time>2026-04-24T16:31:42.615Z</time></trkpt><trkpt lat="37.0307854" lon="14.7246666"><ele>849.0</ele><time>2026-04-24T16:31:43.615Z</time></trkpt><trkpt lat="37.0308381" lon="14.7245632"><ele>849.0</ele><time>2026-04-24T16:31:44.615Z</time></trkpt><trkpt lat="37.030895" lon="14.7244571"><ele>849.5</ele><time>2026-04-24T16:31:45.616Z</time></trkpt><trkpt lat="37.0309485" lon="14.7243696"><ele>850.0</ele><time>2026-04-24T16:31:46.615Z</time></trkpt><trkpt lat="37.0309959" lon="14.7242856"><ele>850.5</ele><time>2026-04-24T16:31:47.616Z</time></trkpt><trkpt lat="37.0310505" lon="14.7241866"><ele>851.0</ele><time>2026-04-24T16:31:49.615Z</time></trkpt><trkpt lat="37.0310732" lon="14.7240985"><ele>851.5</ele><time>2026-04-24T16:31:52.616Z</time></trkpt><trkpt lat="37.030988" lon="14.7241175"><ele>852.0</ele><time>2026-04-24T16:31:56.615Z</time></trkpt><trkpt lat="37.0309092" lon="14.7241471"><ele>852.0</ele><time>2026-04-24T16:32:02.615Z</time></trkpt><trkpt lat="37.0308151" lon="14.7241458"><ele>852.0</ele><time>2026-04-24T16:32:04.616Z</time></trkpt><trkpt lat="37.0307406" lon="14.724134"><ele>852.0</ele><time>2026-04-24T16:32:05.616Z</time></trkpt><trkpt lat="37.0306506" lon="14.7240825"><ele>852.0</ele><time>2026-04-24T16:32:07.616Z</time></trkpt><trkpt lat="37.0306375" lon="14.7239649"><ele>852.0</ele><time>2026-04-24T16:32:09.616Z</time></trkpt><trkpt lat="37.0306527" lon="14.7238865"><ele>852.0</ele><time>2026-04-24T16:32:10.615Z</time></trkpt><trkpt lat="37.03066" lon="14.7237848"><ele>852.0</ele><time>2026-04-24T16:32:11.615Z</time></trkpt><trkpt lat="37.0306704" lon="14.7236909"><ele>852.0</ele><time>2026-04-24T16:32:12.616Z</time></trkpt><trkpt lat="37.0306772" lon="14.7236031"><ele>852.0</ele><time>2026-04-24T16:32:13.616Z</time></trkpt><trkpt lat="37.0306974" lon="14.7234451"><ele>852.0</ele><time>2026-04-24T16:32:15.616Z</time></trkpt><trkpt lat="37.0307052" lon="14.7233576"><ele>852.0</ele><time>2026-04-24T16:32:16.615Z</time></trkpt><trkpt lat="37.0307175" lon="14.7232684"><ele>852.0</ele><time>2026-04-24T16:32:17.616Z</time></trkpt><trkpt lat="37.0307264" lon="14.7231747"><ele>853.1666666666666</ele><time>2026-04-24T16:32:18.616Z</time></trkpt><trkpt lat="37.0307338" lon="14.7230814"><ele>854.3333333333333</ele><time>2026-04-24T16:32:19.615Z</time></trkpt><trkpt lat="37.0307421" lon="14.7229839"><ele>855.5</ele><time>2026-04-24T16:32:20.615Z</time></trkpt><trkpt lat="37.0307575" lon="14.7228895"><ele>856.6666666666666</ele><time>2026-04-24T16:32:21.616Z</time></trkpt><trkpt lat="37.0307618" lon="14.7228035"><ele>857.8333333333333</ele><time>2026-04-24T16:32:22.615Z</time></trkpt><trkpt lat="37.0307649" lon="14.7227008"><ele>859.0</ele><time>2026-04-24T16:32:23.615Z</time></trkpt><trkpt lat="37.0307806" lon="14.7226098"><ele>859.8333333333333</ele><time>2026-04-24T16:32:24.615Z</time></trkpt><trkpt lat="37.03079" lon="14.7225243"><ele>860.6666666666666</ele><time>2026-04-24T16:32:25.615Z</time></trkpt><trkpt lat="37.0308006" lon="14.722431"><ele>861.5</ele><time>2026-04-24T16:32:26.616Z</time></trkpt><trkpt lat="37.0308152" lon="14.7223391"><ele>862.3333333333333</ele><time>2026-04-24T16:32:27.615Z</time></trkpt><trkpt lat="37.0308232" lon="14.7221825"><ele>863.1666666666666</ele><time>2026-04-24T16:32:29.616Z</time></trkpt><trkpt lat="37.0308315" lon="14.7220976"><ele>864.0</ele><time>2026-04-24T16:32:30.616Z</time></trkpt><trkpt lat="37.0308377" lon="14.7220076"><ele>864.6666666666666</ele><time>2026-04-24T16:32:31.615Z</time></trkpt><trkpt lat="37.0308595" lon="14.7219266"><ele>865.3333333333333</ele><time>2026-04-24T16:32:32.615Z</time></trkpt><trkpt lat="37.0309325" lon="14.7217928"><ele>866.0</ele><time>2026-04-24T16:32:34.615Z</time></trkpt><trkpt lat="37.0309691" lon="14.7217269"><ele>866.6666666666666</ele><time>2026-04-24T16:32:35.617Z</time></trkpt><trkpt lat="37.0310074" lon="14.721659"><ele>867.3333333333333</ele><time>2026-04-24T16:32:36.615Z</time></trkpt><trkpt lat="37.0310556" lon="14.7215803"><ele>868.0</ele><time>2026-04-24T16:32:37.615Z</time></trkpt><trkpt lat="37.0311034" lon="14.7215002"><ele>869.4999999999999</ele><time>2026-04-24T16:32:38.616Z</time></trkpt><trkpt lat="37.0311504" lon="14.721426"><ele>871.0</ele><time>2026-04-24T16:32:39.615Z</time></trkpt><trkpt lat="37.0311974" lon="14.7213591"><ele>872.5</ele><time>2026-04-24T16:32:40.615Z</time></trkpt><trkpt lat="37.0312453" lon="14.721286"><ele>874.0</ele><time>2026-04-24T16:32:41.615Z</time></trkpt><trkpt lat="37.0313026" lon="14.7211972"><ele>875.4999999999999</ele><time>2026-04-24T16:32:42.616Z</time></trkpt><trkpt lat="37.0313551" lon="14.7211161"><ele>877.0</ele><time>2026-04-24T16:32:43.615Z</time></trkpt><trkpt lat="37.0313958" lon="14.7210519"><ele>878.0000000000001</ele><time>2026-04-24T16:32:44.614Z</time></trkpt><trkpt lat="37.0314381" lon="14.7209848"><ele>879.0</ele><time>2026-04-24T16:32:45.615Z</time></trkpt><trkpt lat="37.0314819" lon="14.720911"><ele>880.0</ele><time>2026-04-24T16:32:46.615Z</time></trkpt><trkpt lat="37.0315247" lon="14.7208511"><ele>881.0</ele><time>2026-04-24T16:32:47.615Z</time></trkpt><trkpt lat="37.031565" lon="14.720788"><ele>882.0</ele><time>2026-04-24T16:32:48.616Z</time></trkpt><trkpt lat="37.0316047" lon="14.7207185"><ele>883.0000000000001</ele><time>2026-04-24T16:32:49.617Z</time></trkpt><trkpt lat="37.0316451" lon="14.7206517"><ele>884.0</ele><time>2026-04-24T16:32:50.615Z</time></trkpt><trkpt lat="37.0316822" lon="14.7205787"><ele>884.5000000000001</ele><time>2026-04-24T16:32:51.615Z</time></trkpt><trkpt lat="37.0317179" lon="14.7205027"><ele>885.0</ele><time>2026-04-24T16:32:52.615Z</time></trkpt><trkpt lat="37.0317586" lon="14.7204263"><ele>885.5</ele><time>2026-04-24T16:32:53.615Z</time></trkpt><trkpt lat="37.0318096" lon="14.7203376"><ele>886.0</ele><time>2026-04-24T16:32:54.616Z</time></trkpt><trkpt lat="37.03185" lon="14.7202475"><ele>886.5000000000001</ele><time>2026-04-24T16:32:55.616Z</time></trkpt><trkpt lat="37.0318972" lon="14.7201491"><ele>887.0</ele><time>2026-04-24T16:32:56.614Z</time></trkpt><trkpt lat="37.0319394" lon="14.7200502"><ele>888.0000000000001</ele><time>2026-04-24T16:32:57.616Z</time></trkpt><trkpt lat="37.0319727" lon="14.7199472"><ele>889.0</ele><time>2026-04-24T16:32:58.614Z</time></trkpt><trkpt lat="37.0320042" lon="14.7198551"><ele>890.0</ele><time>2026-04-24T16:32:59.615Z</time></trkpt><trkpt lat="37.0320345" lon="14.7197627"><ele>891.0</ele><time>2026-04-24T16:33:00.615Z</time></trkpt><trkpt lat="37.0320665" lon="14.7196662"><ele>892.0000000000001</ele><time>2026-04-24T16:33:01.616Z</time></trkpt><trkpt lat="37.0320955" lon="14.7195751"><ele>893.0</ele><time>2026-04-24T16:33:02.615Z</time></trkpt><trkpt lat="37.0321137" lon="14.7194842"><ele>893.0000000000001</ele><time>2026-04-24T16:33:03.616Z</time></trkpt><trkpt lat="37.0321113" lon="14.719401"><ele>893.0</ele><time>2026-04-24T16:33:04.615Z</time></trkpt><trkpt lat="37.0320975" lon="14.7193188"><ele>893.0</ele><time>2026-04-24T16:33:05.614Z</time></trkpt><trkpt lat="37.0320646" lon="14.7192336"><ele>893.0</ele><time>2026-04-24T16:33:06.616Z</time></trkpt><trkpt lat="37.0320182" lon="14.7191511"><ele>893.0000000000001</ele><time>2026-04-24T16:33:07.614Z</time></trkpt><trkpt lat="37.0319762" lon="14.7190711"><ele>893.0</ele><time>2026-04-24T16:33:08.615Z</time></trkpt><trkpt lat="37.0319258" lon="14.7189727"><ele>893.8</ele><time>2026-04-24T16:33:09.616Z</time></trkpt><trkpt lat="37.0318672" lon="14.7188698"><ele>894.5999999999999</ele><time>2026-04-24T16:33:10.616Z</time></trkpt><trkpt lat="37.0318029" lon="14.7187654"><ele>895.4000000000001</ele><time>2026-04-24T16:33:11.615Z</time></trkpt><trkpt lat="37.0317437" lon="14.7186558"><ele>896.2</ele><time>2026-04-24T16:33:12.617Z</time></trkpt><trkpt lat="37.031686" lon="14.7185472"><ele>897.0</ele><time>2026-04-24T16:33:13.616Z</time></trkpt><trkpt lat="37.0316315" lon="14.7184403"><ele>897.0</ele><time>2026-04-24T16:33:14.617Z</time></trkpt><trkpt lat="37.0315786" lon="14.7183331"><ele>897.0</ele><time>2026-04-24T16:33:15.615Z</time></trkpt><trkpt lat="37.031529" lon="14.7182209"><ele>897.0</ele><time>2026-04-24T16:33:16.615Z</time></trkpt><trkpt lat="37.0314796" lon="14.7181278"><ele>897.0</ele><time>2026-04-24T16:33:17.615Z</time></trkpt><trkpt lat="37.0314342" lon="14.718022"><ele>897.0</ele><time>2026-04-24T16:33:18.616Z</time></trkpt><trkpt lat="37.0313787" lon="14.7179156"><ele>897.0</ele><time>2026-04-24T16:33:19.614Z</time></trkpt><trkpt lat="37.0313306" lon="14.717812"><ele>897.0</ele><time>2026-04-24T16:33:20.617Z</time></trkpt><trkpt lat="37.0312875" lon="14.7177273"><ele>897.0</ele><time>2026-04-24T16:33:21.615Z</time></trkpt><trkpt lat="37.0312531" lon="14.7176306"><ele>897.0</ele><time>2026-04-24T16:33:22.616Z</time></trkpt><trkpt lat="37.0311893" lon="14.7174942"><ele>897.0</ele><time>2026-04-24T16:33:24.615Z</time></trkpt><trkpt lat="37.0311411" lon="14.7173818"><ele>897.3333333333334</ele><time>2026-04-24T16:33:26.615Z</time></trkpt><trkpt lat="37.0311011" lon="14.7172874"><ele>897.6666666666667</ele><time>2026-04-24T16:33:28.616Z</time></trkpt><trkpt lat="37.0310693" lon="14.717174"><ele>898.0</ele><time>2026-04-24T16:33:30.614Z</time></trkpt><trkpt lat="37.0310118" lon="14.7170513"><ele>898.3333333333334</ele><time>2026-04-24T16:33:32.616Z</time></trkpt><trkpt lat="37.0309764" lon="14.7169723"><ele>898.6666666666667</ele><time>2026-04-24T16:33:33.616Z</time></trkpt><trkpt lat="37.0309426" lon="14.7168989"><ele>899.0</ele><time>2026-04-24T16:33:34.615Z</time></trkpt><trkpt lat="37.0309176" lon="14.7168265"><ele>899.0</ele><time>2026-04-24T16:33:35.617Z</time></trkpt><trkpt lat="37.0309103" lon="14.7167439"><ele>899.0000000000001</ele><time>2026-04-24T16:33:36.615Z</time></trkpt><trkpt lat="37.0309207" lon="14.716622"><ele>899.0000000000001</ele><time>2026-04-24T16:33:38.615Z</time></trkpt><trkpt lat="37.0309372" lon="14.7164695"><ele>899.0</ele><time>2026-04-24T16:33:40.614Z</time></trkpt><trkpt lat="37.0309528" lon="14.7163312"><ele>899.0</ele><time>2026-04-24T16:33:42.615Z</time></trkpt><trkpt lat="37.03097" lon="14.7162059"><ele>899.0</ele><time>2026-04-24T16:33:44.615Z</time></trkpt><trkpt lat="37.0309743" lon="14.7160678"><ele>899.0000000000001</ele><time>2026-04-24T16:33:46.616Z</time></trkpt><trkpt lat="37.0309159" lon="14.7159597"><ele>899.0000000000001</ele><time>2026-04-24T16:33:48.615Z</time></trkpt><trkpt lat="37.0307858" lon="14.7159016"><ele>899.0</ele><time>2026-04-24T16:33:50.616Z</time></trkpt><trkpt lat="37.0307065" lon="14.7158734"><ele>899.0</ele><time>2026-04-24T16:33:51.615Z</time></trkpt><trkpt lat="37.0306332" lon="14.7158507"><ele>898.8333333333334</ele><time>2026-04-24T16:33:52.615Z</time></trkpt><trkpt lat="37.0305619" lon="14.7158273"><ele>898.6666666666667</ele><time>2026-04-24T16:33:53.615Z</time></trkpt><trkpt lat="37.0304981" lon="14.7158064"><ele>898.5</ele><time>2026-04-24T16:33:54.614Z</time></trkpt><trkpt lat="37.0304203" lon="14.7157832"><ele>898.3333333333333</ele><time>2026-04-24T16:33:55.617Z</time></trkpt><trkpt lat="37.0303426" lon="14.7157559"><ele>898.1666666666666</ele><time>2026-04-24T16:33:56.616Z</time></trkpt><trkpt lat="37.0302631" lon="14.7157229"><ele>898.0</ele><time>2026-04-24T16:33:57.616Z</time></trkpt><trkpt lat="37.0301761" lon="14.7156878"><ele>897.9999999999999</ele><time>2026-04-24T16:33:58.616Z</time></trkpt><trkpt lat="37.0301013" lon="14.7156642"><ele>898.0</ele><time>2026-04-24T16:33:59.616Z</time></trkpt><trkpt lat="37.0300318" lon="14.7156695"><ele>898.0</ele><time>2026-04-24T16:34:00.615Z</time></trkpt><trkpt lat="37.0299709" lon="14.7157067"><ele>898.0</ele><time>2026-04-24T16:34:01.616Z</time></trkpt><trkpt lat="37.0299141" lon="14.7157683"><ele>897.9999999999999</ele><time>2026-04-24T16:34:02.616Z</time></trkpt><trkpt lat="37.0298616" lon="14.7158364"><ele>898.0</ele><time>2026-04-24T16:34:03.615Z</time></trkpt><trkpt lat="37.029811" lon="14.7159213"><ele>898.4</ele><time>2026-04-24T16:34:04.615Z</time></trkpt><trkpt lat="37.0297489" lon="14.7160122"><ele>898.8</ele><time>2026-04-24T16:34:05.615Z</time></trkpt><trkpt lat="37.0296909" lon="14.7161092"><ele>899.2</ele><time>2026-04-24T16:34:06.616Z</time></trkpt><trkpt lat="37.0296186" lon="14.7162144"><ele>899.6</ele><time>2026-04-24T16:34:07.615Z</time></trkpt><trkpt lat="37.0295478" lon="14.7163112"><ele>900.0</ele><time>2026-04-24T16:34:08.615Z</time></trkpt><trkpt lat="37.0294798" lon="14.7164142"><ele>900.0</ele><time>2026-04-24T16:34:09.615Z</time></trkpt><trkpt lat="37.0294171" lon="14.7165004"><ele>900.0</ele><time>2026-04-24T16:34:10.615Z</time></trkpt><trkpt lat="37.0293411" lon="14.7165719"><ele>900.0</ele><time>2026-04-24T16:34:11.615Z</time></trkpt><trkpt lat="37.0292776" lon="14.7166246"><ele>900.0</ele><time>2026-04-24T16:34:12.616Z</time></trkpt><trkpt lat="37.0292058" lon="14.7166493"><ele>900.0</ele><time>2026-04-24T16:34:13.616Z</time></trkpt><trkpt lat="37.0291211" lon="14.7166696"><ele>900.0</ele><time>2026-04-24T16:34:14.615Z</time></trkpt><trkpt lat="37.029019" lon="14.7166828"><ele>899.2</ele><time>2026-04-24T16:34:15.615Z</time></trkpt><trkpt lat="37.0289167" lon="14.7166668"><ele>898.4</ele><time>2026-04-24T16:34:16.615Z</time></trkpt><trkpt lat="37.0288144" lon="14.7166466"><ele>897.5999999999999</ele><time>2026-04-24T16:34:17.616Z</time></trkpt><trkpt lat="37.0287013" lon="14.7166258"><ele>896.8</ele><time>2026-04-24T16:34:18.616Z</time></trkpt><trkpt lat="37.0285887" lon="14.7165865"><ele>896.0</ele><time>2026-04-24T16:34:19.615Z</time></trkpt><trkpt lat="37.0284731" lon="14.7165574"><ele>896.0</ele><time>2026-04-24T16:34:20.615Z</time></trkpt><trkpt lat="37.0283642" lon="14.7164985"><ele>896.0</ele><time>2026-04-24T16:34:21.617Z</time></trkpt><trkpt lat="37.0282654" lon="14.7164319"><ele>896.0</ele><time>2026-04-24T16:34:22.615Z</time></trkpt><trkpt lat="37.0281679" lon="14.7163558"><ele>896.0</ele><time>2026-04-24T16:34:23.615Z</time></trkpt><trkpt lat="37.0280695" lon="14.7162725"><ele>896.5</ele><time>2026-04-24T16:34:24.616Z</time></trkpt><trkpt lat="37.0279747" lon="14.7161787"><ele>897.0</ele><time>2026-04-24T16:34:25.616Z</time></trkpt><trkpt lat="37.0278841" lon="14.7160649"><ele>897.5</ele><time>2026-04-24T16:34:26.616Z</time></trkpt><trkpt lat="37.0277915" lon="14.7159545"><ele>898.0</ele><time>2026-04-24T16:34:27.615Z</time></trkpt><trkpt lat="37.0277023" lon="14.7158327"><ele>897.0</ele><time>2026-04-24T16:34:28.615Z</time></trkpt><trkpt lat="37.0276254" lon="14.7157325"><ele>896.0</ele><time>2026-04-24T16:34:29.615Z</time></trkpt><trkpt lat="37.027543" lon="14.7156228"><ele>895.0</ele><time>2026-04-24T16:34:30.614Z</time></trkpt><trkpt lat="37.0274551" lon="14.7155171"><ele>894.0</ele><time>2026-04-24T16:34:31.616Z</time></trkpt><trkpt lat="37.0273712" lon="14.7154327"><ele>893.0</ele><time>2026-04-24T16:34:32.615Z</time></trkpt><trkpt lat="37.0272911" lon="14.7153662"><ele>892.0</ele><time>2026-04-24T16:34:33.615Z</time></trkpt><trkpt lat="37.0272206" lon="14.7153771"><ele>891.0</ele><time>2026-04-24T16:34:34.615Z</time></trkpt><trkpt lat="37.0271382" lon="14.71539"><ele>890.0</ele><time>2026-04-24T16:34:35.615Z</time></trkpt><trkpt lat="37.027046" lon="14.7153998"><ele>889.0</ele><time>2026-04-24T16:34:36.614Z</time></trkpt><trkpt lat="37.0269536" lon="14.7154218"><ele>888.0</ele><time>2026-04-24T16:34:37.616Z</time></trkpt><trkpt lat="37.0268629" lon="14.7154729"><ele>888.0</ele><time>2026-04-24T16:34:38.615Z</time></trkpt><trkpt lat="37.0267664" lon="14.7155342"><ele>888.0</ele><time>2026-04-24T16:34:39.614Z</time></trkpt><trkpt lat="37.0266804" lon="14.7156034"><ele>888.0</ele><time>2026-04-24T16:34:40.615Z</time></trkpt><trkpt lat="37.0265941" lon="14.7156611"><ele>888.0</ele><time>2026-04-24T16:34:41.615Z</time></trkpt><trkpt lat="37.0265004" lon="14.7157018"><ele>888.0</ele><time>2026-04-24T16:34:42.615Z</time></trkpt><trkpt lat="37.0264116" lon="14.715726"><ele>887.0</ele><time>2026-04-24T16:34:43.615Z</time></trkpt><trkpt lat="37.0263245" lon="14.7157444"><ele>886.0</ele><time>2026-04-24T16:34:44.615Z</time></trkpt><trkpt lat="37.0262345" lon="14.7157321"><ele>885.0</ele><time>2026-04-24T16:34:45.615Z</time></trkpt><trkpt lat="37.0261426" lon="14.7157456"><ele>884.0</ele><time>2026-04-24T16:34:46.616Z</time></trkpt><trkpt lat="37.0260443" lon="14.7157444"><ele>883.0</ele><time>2026-04-24T16:34:47.615Z</time></trkpt><trkpt lat="37.0259495" lon="14.7157509"><ele>883.0</ele><time>2026-04-24T16:34:48.616Z</time></trkpt><trkpt lat="37.0258544" lon="14.7157589"><ele>883.0</ele><time>2026-04-24T16:34:49.615Z</time></trkpt><trkpt lat="37.0257645" lon="14.7157615"><ele>883.0</ele><time>2026-04-24T16:34:50.615Z</time></trkpt><trkpt lat="37.025669" lon="14.7157761"><ele>883.0</ele><time>2026-04-24T16:34:51.615Z</time></trkpt><trkpt lat="37.0255599" lon="14.7157776"><ele>883.0</ele><time>2026-04-24T16:34:52.615Z</time></trkpt><trkpt lat="37.0254567" lon="14.7158055"><ele>882.5999999999999</ele><time>2026-04-24T16:34:53.616Z</time></trkpt><trkpt lat="37.0253783" lon="14.7158362"><ele>882.1999999999999</ele><time>2026-04-24T16:34:54.616Z</time></trkpt><trkpt lat="37.0252762" lon="14.7158587"><ele>881.8</ele><time>2026-04-24T16:34:55.616Z</time></trkpt><trkpt lat="37.0251798" lon="14.7158333"><ele>881.4</ele><time>2026-04-24T16:34:56.617Z</time></trkpt><trkpt lat="37.0250782" lon="14.7158086"><ele>881.0</ele><time>2026-04-24T16:34:57.616Z</time></trkpt><trkpt lat="37.0249904" lon="14.7157682"><ele>882.8</ele><time>2026-04-24T16:34:58.614Z</time></trkpt><trkpt lat="37.0248943" lon="14.7157349"><ele>884.5999999999999</ele><time>2026-04-24T16:34:59.617Z</time></trkpt><trkpt lat="37.0248046" lon="14.7157106"><ele>886.4</ele><time>2026-04-24T16:35:00.616Z</time></trkpt><trkpt lat="37.0247089" lon="14.7156787"><ele>888.2</ele><time>2026-04-24T16:35:01.615Z</time></trkpt><trkpt lat="37.024615" lon="14.7156376"><ele>890.0</ele><time>2026-04-24T16:35:02.614Z</time></trkpt><trkpt lat="37.0245198" lon="14.7155893"><ele>890.0</ele><time>2026-04-24T16:35:03.616Z</time></trkpt><trkpt lat="37.0244352" lon="14.7155134"><ele>890.0</ele><time>2026-04-24T16:35:04.616Z</time></trkpt><trkpt lat="37.02435" lon="14.7154325"><ele>890.0</ele><time>2026-04-24T16:35:05.616Z</time></trkpt><trkpt lat="37.0242581" lon="14.7153404"><ele>890.0</ele><time>2026-04-24T16:35:06.616Z</time></trkpt><trkpt lat="37.0241578" lon="14.7152312"><ele>890.5</ele><time>2026-04-24T16:35:07.615Z</time></trkpt><trkpt lat="37.0240589" lon="14.7151174"><ele>891.0</ele><time>2026-04-24T16:35:08.615Z</time></trkpt><trkpt lat="37.023961" lon="14.7150185"><ele>891.5</ele><time>2026-04-24T16:35:09.615Z</time></trkpt><trkpt lat="37.0238749" lon="14.7149158"><ele>892.0</ele><time>2026-04-24T16:35:10.615Z</time></trkpt><trkpt lat="37.0238094" lon="14.7148108"><ele>892.0</ele><time>2026-04-24T16:35:11.615Z</time></trkpt><trkpt lat="37.0237487" lon="14.7146921"><ele>892.0</ele><time>2026-04-24T16:35:12.614Z</time></trkpt><trkpt lat="37.0236886" lon="14.7145526"><ele>892.0</ele><time>2026-04-24T16:35:13.614Z</time></trkpt><trkpt lat="37.0236796" lon="14.7144033"><ele>892.0</ele><time>2026-04-24T16:35:14.616Z</time></trkpt><trkpt lat="37.0236738" lon="14.7142465"><ele>893.0</ele><time>2026-04-24T16:35:15.616Z</time></trkpt><trkpt lat="37.0236652" lon="14.714082"><ele>894.0</ele><time>2026-04-24T16:35:16.615Z</time></trkpt><trkpt lat="37.0236531" lon="14.713924"><ele>895.0</ele><time>2026-04-24T16:35:17.614Z</time></trkpt><trkpt lat="37.0236439" lon="14.7137617"><ele>896.0</ele><time>2026-04-24T16:35:18.615Z</time></trkpt><trkpt lat="37.0236342" lon="14.7136379"><ele>896.5000000000001</ele><time>2026-04-24T16:35:19.616Z</time></trkpt><trkpt lat="37.02365" lon="14.7135228"><ele>897.0</ele><time>2026-04-24T16:35:20.615Z</time></trkpt><trkpt lat="37.0236957" lon="14.7134377"><ele>897.5</ele><time>2026-04-24T16:35:21.615Z</time></trkpt><trkpt lat="37.0237185" lon="14.7133508"><ele>898.0</ele><time>2026-04-24T16:35:22.615Z</time></trkpt><trkpt lat="37.0237005" lon="14.7132494"><ele>898.5000000000001</ele><time>2026-04-24T16:35:23.615Z</time></trkpt><trkpt lat="37.0237179" lon="14.7131432"><ele>899.0</ele><time>2026-04-24T16:35:24.615Z</time></trkpt><trkpt lat="37.0237528" lon="14.7130419"><ele>899.0000000000001</ele><time>2026-04-24T16:35:25.615Z</time></trkpt><trkpt lat="37.0237992" lon="14.7129245"><ele>899.0</ele><time>2026-04-24T16:35:26.615Z</time></trkpt><trkpt lat="37.0238427" lon="14.7128113"><ele>899.0</ele><time>2026-04-24T16:35:27.616Z</time></trkpt><trkpt lat="37.0238541" lon="14.712716"><ele>899.0</ele><time>2026-04-24T16:35:28.615Z</time></trkpt><trkpt lat="37.0238279" lon="14.7126338"><ele>899.0000000000001</ele><time>2026-04-24T16:35:29.615Z</time></trkpt><trkpt lat="37.0237711" lon="14.7125593"><ele>899.0</ele><time>2026-04-24T16:35:30.615Z</time></trkpt><trkpt lat="37.0236876" lon="14.7125145"><ele>896.2</ele><time>2026-04-24T16:35:31.615Z</time></trkpt><trkpt lat="37.0235786" lon="14.7125129"><ele>893.4000000000001</ele><time>2026-04-24T16:35:32.615Z</time></trkpt><trkpt lat="37.0234644" lon="14.7125276"><ele>890.6</ele><time>2026-04-24T16:35:33.616Z</time></trkpt><trkpt lat="37.0233559" lon="14.7125459"><ele>887.8</ele><time>2026-04-24T16:35:34.615Z</time></trkpt><trkpt lat="37.0232416" lon="14.7125661"><ele>885.0</ele><time>2026-04-24T16:35:35.615Z</time></trkpt><trkpt lat="37.02311" lon="14.7125875"><ele>882.5</ele><time>2026-04-24T16:35:36.616Z</time></trkpt><trkpt lat="37.022973" lon="14.7126154"><ele>880.0</ele><time>2026-04-24T16:35:37.615Z</time></trkpt><trkpt lat="37.0228268" lon="14.7126349"><ele>877.5</ele><time>2026-04-24T16:35:38.616Z</time></trkpt><trkpt lat="37.022675" lon="14.7126605"><ele>875.0</ele><time>2026-04-24T16:35:39.616Z</time></trkpt><trkpt lat="37.0225188" lon="14.7126912"><ele>877.0</ele><time>2026-04-24T16:35:40.615Z</time></trkpt><trkpt lat="37.0223597" lon="14.7127259"><ele>879.0</ele><time>2026-04-24T16:35:41.617Z</time></trkpt><trkpt lat="37.0222019" lon="14.7127618"><ele>881.0</ele><time>2026-04-24T16:35:42.616Z</time></trkpt><trkpt lat="37.0220447" lon="14.7128043"><ele>881.0</ele><time>2026-04-24T16:35:43.616Z</time></trkpt><trkpt lat="37.0218927" lon="14.7128445"><ele>881.0</ele><time>2026-04-24T16:35:44.614Z</time></trkpt><trkpt lat="37.021736" lon="14.7128865"><ele>881.0</ele><time>2026-04-24T16:35:45.615Z</time></trkpt><trkpt lat="37.0215796" lon="14.7129337"><ele>876.6666666666667</ele><time>2026-04-24T16:35:46.615Z</time></trkpt><trkpt lat="37.0214273" lon="14.7129918"><ele>872.3333333333333</ele><time>2026-04-24T16:35:47.616Z</time></trkpt><trkpt lat="37.0212801" lon="14.7130295"><ele>868.0</ele><time>2026-04-24T16:35:48.616Z</time></trkpt><trkpt lat="37.0211367" lon="14.7130677"><ele>868.0</ele><time>2026-04-24T16:35:49.615Z</time></trkpt><trkpt lat="37.0210021" lon="14.7131238"><ele>868.0</ele><time>2026-04-24T16:35:50.616Z</time></trkpt><trkpt lat="37.020875" lon="14.7131877"><ele>868.0</ele><time>2026-04-24T16:35:51.616Z</time></trkpt><trkpt lat="37.0207549" lon="14.7132683"><ele>868.0</ele><time>2026-04-24T16:35:52.616Z</time></trkpt><trkpt lat="37.0206403" lon="14.713347"><ele>865.8</ele><time>2026-04-24T16:35:53.615Z</time></trkpt><trkpt lat="37.02055" lon="14.7134116"><ele>863.5999999999999</ele><time>2026-04-24T16:35:54.616Z</time></trkpt><trkpt lat="37.0204587" lon="14.7134628"><ele>861.4000000000001</ele><time>2026-04-24T16:35:55.614Z</time></trkpt><trkpt lat="37.0203623" lon="14.7135094"><ele>859.2</ele><time>2026-04-24T16:35:56.616Z</time></trkpt><trkpt lat="37.0202619" lon="14.7134966"><ele>857.0</ele><time>2026-04-24T16:35:57.615Z</time></trkpt><trkpt lat="37.0201516" lon="14.7134868"><ele>857.0</ele><time>2026-04-24T16:35:58.616Z</time></trkpt><trkpt lat="37.0200307" lon="14.7134676"><ele>857.0</ele><time>2026-04-24T16:35:59.615Z</time></trkpt><trkpt lat="37.0199031" lon="14.7134541"><ele>857.0</ele><time>2026-04-24T16:36:00.615Z</time></trkpt><trkpt lat="37.0197812" lon="14.7134503"><ele>857.0</ele><time>2026-04-24T16:36:01.615Z</time></trkpt><trkpt lat="37.0196531" lon="14.7134445"><ele>855.5</ele><time>2026-04-24T16:36:02.615Z</time></trkpt><trkpt lat="37.0195284" lon="14.7134487"><ele>854.0</ele><time>2026-04-24T16:36:03.615Z</time></trkpt><trkpt lat="37.0194007" lon="14.7134522"><ele>852.5</ele><time>2026-04-24T16:36:04.614Z</time></trkpt><trkpt lat="37.0192769" lon="14.7134547"><ele>851.0</ele><time>2026-04-24T16:36:05.615Z</time></trkpt><trkpt lat="37.0191548" lon="14.7134643"><ele>850.6666666666667</ele><time>2026-04-24T16:36:06.615Z</time></trkpt><trkpt lat="37.0190481" lon="14.7134711"><ele>850.3333333333334</ele><time>2026-04-24T16:36:07.616Z</time></trkpt><trkpt lat="37.0189577" lon="14.7134695"><ele>850.0</ele><time>2026-04-24T16:36:08.615Z</time></trkpt><trkpt lat="37.0188855" lon="14.7134493"><ele>849.6666666666667</ele><time>2026-04-24T16:36:09.615Z</time></trkpt><trkpt lat="37.0188177" lon="14.7133887"><ele>849.3333333333334</ele><time>2026-04-24T16:36:11.615Z</time></trkpt><trkpt lat="37.0188123" lon="14.7132858"><ele>849.0</ele><time>2026-04-24T16:36:16.614Z</time></trkpt><trkpt lat="37.0188502" lon="14.713158"><ele>849.0</ele><time>2026-04-24T16:36:18.616Z</time></trkpt><trkpt lat="37.0189128" lon="14.7131068"><ele>849.0</ele><time>2026-04-24T16:36:19.615Z</time></trkpt><trkpt lat="37.0189883" lon="14.7130532"><ele>849.0</ele><time>2026-04-24T16:36:20.614Z</time></trkpt><trkpt lat="37.0190538" lon="14.7129903"><ele>849.0</ele><time>2026-04-24T16:36:21.615Z</time></trkpt><trkpt lat="37.0191236" lon="14.7129142"><ele>849.0</ele><time>2026-04-24T16:36:22.616Z</time></trkpt><trkpt lat="37.0191882" lon="14.7128314"><ele>849.0</ele><time>2026-04-24T16:36:23.616Z</time></trkpt><trkpt lat="37.0192446" lon="14.7127527"><ele>849.0</ele><time>2026-04-24T16:36:24.616Z</time></trkpt><trkpt lat="37.0193105" lon="14.7126762"><ele>849.0</ele><time>2026-04-24T16:36:25.615Z</time></trkpt><trkpt lat="37.019374" lon="14.712596"><ele>849.0</ele><time>2026-04-24T16:36:26.614Z</time></trkpt><trkpt lat="37.019414" lon="14.712508"><ele>849.0</ele><time>2026-04-24T16:36:27.615Z</time></trkpt><trkpt lat="37.0194633" lon="14.7124296"><ele>849.0</ele><time>2026-04-24T16:36:28.615Z</time></trkpt><trkpt lat="37.019494" lon="14.7123526"><ele>849.0</ele><time>2026-04-24T16:36:29.615Z</time></trkpt><trkpt lat="37.0195419" lon="14.7122815"><ele>849.0</ele><time>2026-04-24T16:36:30.615Z</time></trkpt><trkpt lat="37.0195925" lon="14.7122115"><ele>849.0</ele><time>2026-04-24T16:36:31.616Z</time></trkpt><trkpt lat="37.0196307" lon="14.7121469"><ele>849.0</ele><time>2026-04-24T16:36:32.615Z</time></trkpt><trkpt lat="37.0196685" lon="14.7120716"><ele>849.0</ele><time>2026-04-24T16:36:33.615Z</time></trkpt><trkpt lat="37.0196665" lon="14.7119439"><ele>849.0</ele><time>2026-04-24T16:36:35.615Z</time></trkpt><trkpt lat="37.01969" lon="14.7118523"><ele>849.0</ele><time>2026-04-24T16:36:37.616Z</time></trkpt><trkpt lat="37.0197081" lon="14.7117706"><ele>849.1666666666666</ele><time>2026-04-24T16:36:39.615Z</time></trkpt><trkpt lat="37.0197608" lon="14.7116961"><ele>849.3333333333333</ele><time>2026-04-24T16:36:41.617Z</time></trkpt><trkpt lat="37.0198382" lon="14.7116631"><ele>849.5</ele><time>2026-04-24T16:36:43.616Z</time></trkpt><trkpt lat="37.0199295" lon="14.7116164"><ele>849.6666666666666</ele><time>2026-04-24T16:36:45.616Z</time></trkpt><trkpt lat="37.0200095" lon="14.7115668"><ele>849.8333333333333</ele><time>2026-04-24T16:36:47.616Z</time></trkpt><trkpt lat="37.0200838" lon="14.7115078"><ele>850.0</ele><time>2026-04-24T16:36:49.615Z</time></trkpt><trkpt lat="37.0201789" lon="14.7114339"><ele>845.0</ele><time>2026-04-24T16:36:51.616Z</time></trkpt><trkpt lat="37.0202286" lon="14.71135"><ele>840.0</ele><time>2026-04-24T16:36:53.615Z</time></trkpt><trkpt lat="37.0203294" lon="14.7112963"><ele>835.0</ele><time>2026-04-24T16:36:55.615Z</time></trkpt><trkpt lat="37.0204253" lon="14.7112342"><ele>830.0</ele><time>2026-04-24T16:36:57.616Z</time></trkpt><trkpt lat="37.0205012" lon="14.7111478"><ele>825.0</ele><time>2026-04-24T16:36:59.616Z</time></trkpt><trkpt lat="37.0205857" lon="14.7110818"><ele>825.8</ele><time>2026-04-24T16:37:01.617Z</time></trkpt><trkpt lat="37.0206607" lon="14.7110115"><ele>826.6</ele><time>2026-04-24T16:37:03.616Z</time></trkpt><trkpt lat="37.0207491" lon="14.710968"><ele>827.4000000000001</ele><time>2026-04-24T16:37:05.616Z</time></trkpt><trkpt lat="37.0208479" lon="14.7109118"><ele>828.2</ele><time>2026-04-24T16:37:07.615Z</time></trkpt><trkpt lat="37.0209205" lon="14.7108534"><ele>829.0</ele><time>2026-04-24T16:37:09.615Z</time></trkpt><trkpt lat="37.0209666" lon="14.7107451"><ele>822.25</ele><time>2026-04-24T16:37:11.616Z</time></trkpt><trkpt lat="37.0210642" lon="14.7106578"><ele>815.5</ele><time>2026-04-24T16:37:13.616Z</time></trkpt><trkpt lat="37.0211803" lon="14.7105808"><ele>808.75</ele><time>2026-04-24T16:37:15.616Z</time></trkpt><trkpt lat="37.0212721" lon="14.7105179"><ele>802.0</ele><time>2026-04-24T16:37:17.615Z</time></trkpt><trkpt lat="37.0213358" lon="14.710428"><ele>801.9999999999999</ele><time>2026-04-24T16:37:19.615Z</time></trkpt><trkpt lat="37.0213884" lon="14.7103413"><ele>802.0</ele><time>2026-04-24T16:37:21.617Z</time></trkpt><trkpt lat="37.0214301" lon="14.7102799"><ele>802.0</ele><time>2026-04-24T16:37:22.616Z</time></trkpt><trkpt lat="37.0214697" lon="14.7102117"><ele>802.0</ele><time>2026-04-24T16:37:23.616Z</time></trkpt><trkpt lat="37.0215085" lon="14.7101261"><ele>801.9999999999999</ele><time>2026-04-24T16:37:24.615Z</time></trkpt><trkpt lat="37.0215503" lon="14.7100608"><ele>802.0</ele><time>2026-04-24T16:37:25.615Z</time></trkpt><trkpt lat="37.0216071" lon="14.7099729"><ele>797.2</ele><time>2026-04-24T16:37:27.616Z</time></trkpt><trkpt lat="37.0216825" lon="14.7098501"><ele>792.4000000000001</ele><time>2026-04-24T16:37:29.617Z</time></trkpt><trkpt lat="37.0217371" lon="14.7097826"><ele>787.5999999999999</ele><time>2026-04-24T16:37:30.616Z</time></trkpt><trkpt lat="37.021822" lon="14.7097266"><ele>782.8</ele><time>2026-04-24T16:37:31.615Z</time></trkpt><trkpt lat="37.0219212" lon="14.7096797"><ele>778.0</ele><time>2026-04-24T16:37:32.615Z</time></trkpt><trkpt lat="37.0220273" lon="14.7096327"><ele>778.0</ele><time>2026-04-24T16:37:33.615Z</time></trkpt><trkpt lat="37.0221373" lon="14.7095801"><ele>778.0</ele><time>2026-04-24T16:37:34.615Z</time></trkpt><trkpt lat="37.0222564" lon="14.7095205"><ele>778.0</ele><time>2026-04-24T16:37:35.614Z</time></trkpt><trkpt lat="37.0223816" lon="14.7094487"><ele>778.0</ele><time>2026-04-24T16:37:36.616Z</time></trkpt><trkpt lat="37.0225145" lon="14.7093721"><ele>771.0</ele><time>2026-04-24T16:37:37.616Z</time></trkpt><trkpt lat="37.0226538" lon="14.7092779"><ele>764.0</ele><time>2026-04-24T16:37:38.616Z</time></trkpt><trkpt lat="37.0227856" lon="14.7091914"><ele>757.0</ele><time>2026-04-24T16:37:39.616Z</time></trkpt><trkpt lat="37.0229375" lon="14.7091065"><ele>757.0</ele><time>2026-04-24T16:37:40.615Z</time></trkpt><trkpt lat="37.0230987" lon="14.7090233"><ele>757.0</ele><time>2026-04-24T16:37:41.615Z</time></trkpt><trkpt lat="37.0232557" lon="14.7089485"><ele>757.0</ele><time>2026-04-24T16:37:42.615Z</time></trkpt><trkpt lat="37.0234076" lon="14.7088785"><ele>761.0</ele><time>2026-04-24T16:37:43.615Z</time></trkpt><trkpt lat="37.023565" lon="14.7088093"><ele>765.0</ele><time>2026-04-24T16:37:44.616Z</time></trkpt><trkpt lat="37.0237222" lon="14.7087563"><ele>769.0</ele><time>2026-04-24T16:37:45.615Z</time></trkpt><trkpt lat="37.0238857" lon="14.7087124"><ele>769.0</ele><time>2026-04-24T16:37:46.616Z</time></trkpt><trkpt lat="37.0240518" lon="14.7086829"><ele>769.0</ele><time>2026-04-24T16:37:47.615Z</time></trkpt><trkpt lat="37.024221" lon="14.7086599"><ele>769.0</ele><time>2026-04-24T16:37:48.616Z</time></trkpt><trkpt lat="37.0243935" lon="14.7086321"><ele>770.6666666666666</ele><time>2026-04-24T16:37:49.616Z</time></trkpt><trkpt lat="37.0245654" lon="14.7086029"><ele>772.3333333333333</ele><time>2026-04-24T16:37:50.616Z</time></trkpt><trkpt lat="37.0247291" lon="14.7085744"><ele>774.0</ele><time>2026-04-24T16:37:51.615Z</time></trkpt><trkpt lat="37.0248851" lon="14.7085471"><ele>763.0</ele><time>2026-04-24T16:37:52.615Z</time></trkpt><trkpt lat="37.0250383" lon="14.7085055"><ele>752.0</ele><time>2026-04-24T16:37:53.615Z</time></trkpt><trkpt lat="37.025188" lon="14.7084615"><ele>741.0</ele><time>2026-04-24T16:37:54.616Z</time></trkpt><trkpt lat="37.0253176" lon="14.7083429"><ele>741.0</ele><time>2026-04-24T16:37:55.617Z</time></trkpt><trkpt lat="37.0254462" lon="14.7082068"><ele>741.0</ele><time>2026-04-24T16:37:56.616Z</time></trkpt><trkpt lat="37.0255611" lon="14.7080564"><ele>741.0</ele><time>2026-04-24T16:37:57.615Z</time></trkpt><trkpt lat="37.0256737" lon="14.7079016"><ele>741.0</ele><time>2026-04-24T16:37:58.614Z</time></trkpt><trkpt lat="37.0257811" lon="14.7077616"><ele>741.0</ele><time>2026-04-24T16:37:59.615Z</time></trkpt><trkpt lat="37.0258951" lon="14.7076582"><ele>741.0</ele><time>2026-04-24T16:38:00.616Z</time></trkpt><trkpt lat="37.0260206" lon="14.7075937"><ele>741.0</ele><time>2026-04-24T16:38:01.616Z</time></trkpt><trkpt lat="37.0261602" lon="14.7075781"><ele>741.25</ele><time>2026-04-24T16:38:02.615Z</time></trkpt><trkpt lat="37.0262984" lon="14.7075958"><ele>741.5</ele><time>2026-04-24T16:38:03.616Z</time></trkpt><trkpt lat="37.0264299" lon="14.7076536"><ele>741.75</ele><time>2026-04-24T16:38:04.615Z</time></trkpt><trkpt lat="37.0265411" lon="14.7077487"><ele>742.0</ele><time>2026-04-24T16:38:05.614Z</time></trkpt><trkpt lat="37.0266312" lon="14.7078753"><ele>738.6666666666667</ele><time>2026-04-24T16:38:06.615Z</time></trkpt><trkpt lat="37.02672" lon="14.7080228"><ele>735.3333333333334</ele><time>2026-04-24T16:38:07.616Z</time></trkpt><trkpt lat="37.0268155" lon="14.7081797"><ele>732.0</ele><time>2026-04-24T16:38:08.616Z</time></trkpt><trkpt lat="37.026915" lon="14.7083377"><ele>732.0</ele><time>2026-04-24T16:38:09.616Z</time></trkpt><trkpt lat="37.0269965" lon="14.708483"><ele>732.0</ele><time>2026-04-24T16:38:10.616Z</time></trkpt><trkpt lat="37.027054" lon="14.7086439"><ele>732.0</ele><time>2026-04-24T16:38:11.617Z</time></trkpt><trkpt lat="37.0270301" lon="14.7088344"><ele>732.0</ele><time>2026-04-24T16:38:12.616Z</time></trkpt><trkpt lat="37.0269979" lon="14.7090091"><ele>731.0</ele><time>2026-04-24T16:38:13.615Z</time></trkpt><trkpt lat="37.0269575" lon="14.7091931"><ele>730.0</ele><time>2026-04-24T16:38:14.616Z</time></trkpt><trkpt lat="37.0269084" lon="14.7093972"><ele>729.0</ele><time>2026-04-24T16:38:15.615Z</time></trkpt><trkpt lat="37.0268719" lon="14.7095988"><ele>729.0</ele><time>2026-04-24T16:38:16.616Z</time></trkpt><trkpt lat="37.0268342" lon="14.7098018"><ele>729.0</ele><time>2026-04-24T16:38:17.615Z</time></trkpt><trkpt lat="37.0267929" lon="14.7099899"><ele>729.0</ele><time>2026-04-24T16:38:18.615Z</time></trkpt><trkpt lat="37.026746" lon="14.7101599"><ele>730.2</ele><time>2026-04-24T16:38:19.614Z</time></trkpt><trkpt lat="37.0267042" lon="14.7103062"><ele>731.4000000000001</ele><time>2026-04-24T16:38:20.615Z</time></trkpt><trkpt lat="37.0266739" lon="14.7104199"><ele>732.6</ele><time>2026-04-24T16:38:21.616Z</time></trkpt><trkpt lat="37.0266746" lon="14.7105151"><ele>733.8</ele><time>2026-04-24T16:38:22.617Z</time></trkpt><trkpt lat="37.0267759" lon="14.7105985"><ele>735.0</ele><time>2026-04-24T16:38:24.617Z</time></trkpt><trkpt lat="37.0268303" lon="14.7105579"><ele>735.0</ele><time>2026-04-24T16:38:25.616Z</time></trkpt><trkpt lat="37.026911" lon="14.710402"><ele>735.0</ele><time>2026-04-24T16:38:27.615Z</time></trkpt><trkpt lat="37.0269498" lon="14.7102378"><ele>735.0</ele><time>2026-04-24T16:38:28.615Z</time></trkpt><trkpt lat="37.0269918" lon="14.7100732"><ele>735.0</ele><time>2026-04-24T16:38:29.615Z</time></trkpt><trkpt lat="37.0270355" lon="14.7099189"><ele>733.8</ele><time>2026-04-24T16:38:30.616Z</time></trkpt><trkpt lat="37.0270779" lon="14.7097839"><ele>732.6</ele><time>2026-04-24T16:38:31.615Z</time></trkpt><trkpt lat="37.0271318" lon="14.7096885"><ele>731.4000000000001</ele><time>2026-04-24T16:38:32.616Z</time></trkpt><trkpt lat="37.0272047" lon="14.7096446"><ele>730.2</ele><time>2026-04-24T16:38:33.617Z</time></trkpt><trkpt lat="37.0272846" lon="14.709612"><ele>729.0</ele><time>2026-04-24T16:38:34.616Z</time></trkpt><trkpt lat="37.0273622" lon="14.7096229"><ele>723.75</ele><time>2026-04-24T16:38:35.616Z</time></trkpt><trkpt lat="37.0274776" lon="14.7096871"><ele>718.5</ele><time>2026-04-24T16:38:36.616Z</time></trkpt><trkpt lat="37.0276076" lon="14.7097571"><ele>713.25</ele><time>2026-04-24T16:38:37.616Z</time></trkpt><trkpt lat="37.0277393" lon="14.7097902"><ele>708.0</ele><time>2026-04-24T16:38:38.616Z</time></trkpt><trkpt lat="37.0278708" lon="14.7097799"><ele>708.0</ele><time>2026-04-24T16:38:39.616Z</time></trkpt><trkpt lat="37.0279875" lon="14.7097218"><ele>708.0</ele><time>2026-04-24T16:38:40.617Z</time></trkpt><trkpt lat="37.0280764" lon="14.7096238"><ele>708.0</ele><time>2026-04-24T16:38:41.615Z</time></trkpt><trkpt lat="37.0281435" lon="14.7094997"><ele>708.0</ele><time>2026-04-24T16:38:42.615Z</time></trkpt><trkpt lat="37.0281926" lon="14.709341"><ele>707.75</ele><time>2026-04-24T16:38:43.617Z</time></trkpt><trkpt lat="37.0282464" lon="14.7091792"><ele>707.5</ele><time>2026-04-24T16:38:44.615Z</time></trkpt><trkpt lat="37.0283101" lon="14.7090234"><ele>707.25</ele><time>2026-04-24T16:38:45.617Z</time></trkpt><trkpt lat="37.028384" lon="14.7088821"><ele>707.0</ele><time>2026-04-24T16:38:46.615Z</time></trkpt><trkpt lat="37.0284812" lon="14.7087648"><ele>706.0</ele><time>2026-04-24T16:38:47.615Z</time></trkpt><trkpt lat="37.0285979" lon="14.7086763"><ele>705.0</ele><time>2026-04-24T16:38:48.616Z</time></trkpt><trkpt lat="37.0287332" lon="14.7086163"><ele>704.0</ele><time>2026-04-24T16:38:49.614Z</time></trkpt><trkpt lat="37.0288706" lon="14.7085707"><ele>703.0</ele><time>2026-04-24T16:38:50.615Z</time></trkpt><trkpt lat="37.0289974" lon="14.7085124"><ele>703.0</ele><time>2026-04-24T16:38:51.617Z</time></trkpt><trkpt lat="37.0291115" lon="14.7084521"><ele>703.0</ele><time>2026-04-24T16:38:52.615Z</time></trkpt><trkpt lat="37.0292207" lon="14.7083736"><ele>703.0</ele><time>2026-04-24T16:38:53.615Z</time></trkpt><trkpt lat="37.0293148" lon="14.7082721"><ele>703.0</ele><time>2026-04-24T16:38:54.616Z</time></trkpt><trkpt lat="37.029404" lon="14.7081592"><ele>698.75</ele><time>2026-04-24T16:38:55.614Z</time></trkpt><trkpt lat="37.0294951" lon="14.7080421"><ele>694.5</ele><time>2026-04-24T16:38:56.616Z</time></trkpt><trkpt lat="37.0295829" lon="14.7079291"><ele>690.25</ele><time>2026-04-24T16:38:57.616Z</time></trkpt><trkpt lat="37.0296655" lon="14.7078166"><ele>686.0</ele><time>2026-04-24T16:38:58.616Z</time></trkpt><trkpt lat="37.02974" lon="14.7077104"><ele>686.0</ele><time>2026-04-24T16:38:59.615Z</time></trkpt><trkpt lat="37.0298122" lon="14.7076182"><ele>686.0</ele><time>2026-04-24T16:39:00.615Z</time></trkpt><trkpt lat="37.0298843" lon="14.707547"><ele>686.0</ele><time>2026-04-24T16:39:01.616Z</time></trkpt><trkpt lat="37.0299627" lon="14.707525"><ele>686.0</ele><time>2026-04-24T16:39:02.617Z</time></trkpt><trkpt lat="37.0300458" lon="14.7075227"><ele>686.0</ele><time>2026-04-24T16:39:03.615Z</time></trkpt><trkpt lat="37.0301395" lon="14.7075524"><ele>680.0</ele><time>2026-04-24T16:39:04.616Z</time></trkpt><trkpt lat="37.0302366" lon="14.7076313"><ele>674.0</ele><time>2026-04-24T16:39:05.616Z</time></trkpt><trkpt lat="37.0303331" lon="14.7077518"><ele>668.0</ele><time>2026-04-24T16:39:06.616Z</time></trkpt><trkpt lat="37.0304294" lon="14.7079075"><ele>662.0</ele><time>2026-04-24T16:39:07.615Z</time></trkpt><trkpt lat="37.0305322" lon="14.7080488"><ele>662.0</ele><time>2026-04-24T16:39:08.616Z</time></trkpt><trkpt lat="37.0306444" lon="14.7081558"><ele>662.0</ele><time>2026-04-24T16:39:09.615Z</time></trkpt><trkpt lat="37.0307656" lon="14.7082161"><ele>662.0</ele><time>2026-04-24T16:39:10.615Z</time></trkpt><trkpt lat="37.0308881" lon="14.7082211"><ele>662.0</ele><time>2026-04-24T16:39:11.615Z</time></trkpt><trkpt lat="37.0310128" lon="14.7081693"><ele>660.25</ele><time>2026-04-24T16:39:12.617Z</time></trkpt><trkpt lat="37.0311263" lon="14.70806"><ele>658.5</ele><time>2026-04-24T16:39:13.615Z</time></trkpt><trkpt lat="37.0312277" lon="14.7079312"><ele>656.75</ele><time>2026-04-24T16:39:14.615Z</time></trkpt><trkpt lat="37.031323" lon="14.7077836"><ele>655.0</ele><time>2026-04-24T16:39:15.616Z</time></trkpt><trkpt lat="37.0313879" lon="14.7076245"><ele>649.3333333333334</ele><time>2026-04-24T16:39:16.616Z</time></trkpt><trkpt lat="37.0314146" lon="14.7074458"><ele>643.6666666666666</ele><time>2026-04-24T16:39:17.615Z</time></trkpt><trkpt lat="37.0314042" lon="14.7072556"><ele>638.0</ele><time>2026-04-24T16:39:18.615Z</time></trkpt><trkpt lat="37.0313695" lon="14.7070623"><ele>640.0</ele><time>2026-04-24T16:39:19.616Z</time></trkpt><trkpt lat="37.0313345" lon="14.7068636"><ele>642.0</ele><time>2026-04-24T16:39:20.616Z</time></trkpt><trkpt lat="37.0313407" lon="14.7066853"><ele>644.0</ele><time>2026-04-24T16:39:21.617Z</time></trkpt><trkpt lat="37.0313706" lon="14.7065166"><ele>646.0</ele><time>2026-04-24T16:39:22.616Z</time></trkpt><trkpt lat="37.0314418" lon="14.706379"><ele>646.0</ele><time>2026-04-24T16:39:23.615Z</time></trkpt><trkpt lat="37.0315392" lon="14.7062622"><ele>646.0</ele><time>2026-04-24T16:39:24.615Z</time></trkpt><trkpt lat="37.0316562" lon="14.7061466"><ele>646.0</ele><time>2026-04-24T16:39:25.615Z</time></trkpt><trkpt lat="37.0317775" lon="14.7060303"><ele>646.0</ele><time>2026-04-24T16:39:26.615Z</time></trkpt><trkpt lat="37.0319175" lon="14.7059103"><ele>646.6666666666667</ele><time>2026-04-24T16:39:27.616Z</time></trkpt><trkpt lat="37.0320476" lon="14.705785"><ele>647.3333333333334</ele><time>2026-04-24T16:39:28.616Z</time></trkpt><trkpt lat="37.032186" lon="14.7056609"><ele>648.0</ele><time>2026-04-24T16:39:29.615Z</time></trkpt><trkpt lat="37.0323236" lon="14.7055372"><ele>648.0</ele><time>2026-04-24T16:39:30.616Z</time></trkpt><trkpt lat="37.0324641" lon="14.7054164"><ele>648.0</ele><time>2026-04-24T16:39:31.615Z</time></trkpt><trkpt lat="37.0326004" lon="14.7052943"><ele>648.0</ele><time>2026-04-24T16:39:32.617Z</time></trkpt><trkpt lat="37.0327328" lon="14.7051702"><ele>648.0</ele><time>2026-04-24T16:39:33.614Z</time></trkpt><trkpt lat="37.0328686" lon="14.7050465"><ele>648.0</ele><time>2026-04-24T16:39:34.615Z</time></trkpt><trkpt lat="37.0329993" lon="14.7049105"><ele>648.0</ele><time>2026-04-24T16:39:35.616Z</time></trkpt><trkpt lat="37.0331212" lon="14.7047645"><ele>648.0</ele><time>2026-04-24T16:39:36.616Z</time></trkpt><trkpt lat="37.0332264" lon="14.7046151"><ele>648.0</ele><time>2026-04-24T16:39:37.617Z</time></trkpt><trkpt lat="37.0333267" lon="14.7044615"><ele>648.0</ele><time>2026-04-24T16:39:38.615Z</time></trkpt><trkpt lat="37.0334359" lon="14.7043057"><ele>646.0</ele><time>2026-04-24T16:39:39.615Z</time></trkpt><trkpt lat="37.0335408" lon="14.7041597"><ele>644.0</ele><time>2026-04-24T16:39:40.615Z</time></trkpt><trkpt lat="37.0336359" lon="14.7040182"><ele>642.0</ele><time>2026-04-24T16:39:41.617Z</time></trkpt><trkpt lat="37.0337222" lon="14.7038803"><ele>640.0</ele><time>2026-04-24T16:39:42.616Z</time></trkpt><trkpt lat="37.0337961" lon="14.7037534"><ele>640.0</ele><time>2026-04-24T16:39:43.615Z</time></trkpt><trkpt lat="37.0338599" lon="14.7036382"><ele>640.0</ele><time>2026-04-24T16:39:44.616Z</time></trkpt><trkpt lat="37.0339156" lon="14.703516"><ele>640.0</ele><time>2026-04-24T16:39:45.614Z</time></trkpt><trkpt lat="37.0339552" lon="14.7033926"><ele>640.0</ele><time>2026-04-24T16:39:46.616Z</time></trkpt><trkpt lat="37.0339731" lon="14.7032617"><ele>640.0</ele><time>2026-04-24T16:39:47.616Z</time></trkpt><trkpt lat="37.0339806" lon="14.7031398"><ele>643.2</ele><time>2026-04-24T16:39:48.615Z</time></trkpt><trkpt lat="37.033972" lon="14.7030241"><ele>646.4</ele><time>2026-04-24T16:39:49.617Z</time></trkpt><trkpt lat="37.0339457" lon="14.702903"><ele>649.5999999999999</ele><time>2026-04-24T16:39:50.616Z</time></trkpt><trkpt lat="37.0339024" lon="14.7027876"><ele>652.8</ele><time>2026-04-24T16:39:51.62Z</time></trkpt><trkpt lat="37.0338517" lon="14.7026675"><ele>656.0</ele><time>2026-04-24T16:39:52.614Z</time></trkpt><trkpt lat="37.0338022" lon="14.7025451"><ele>656.0</ele><time>2026-04-24T16:39:53.614Z</time></trkpt><trkpt lat="37.0337553" lon="14.7024216"><ele>656.0</ele><time>2026-04-24T16:39:54.615Z</time></trkpt><trkpt lat="37.0337046" lon="14.7022943"><ele>656.0</ele><time>2026-04-24T16:39:55.615Z</time></trkpt><trkpt lat="37.033651" lon="14.7021687"><ele>656.0</ele><time>2026-04-24T16:39:56.616Z</time></trkpt><trkpt lat="37.0336049" lon="14.7020444"><ele>656.0</ele><time>2026-04-24T16:39:57.616Z</time></trkpt><trkpt lat="37.0335564" lon="14.7019276"><ele>653.4</ele><time>2026-04-24T16:39:58.614Z</time></trkpt><trkpt lat="37.0335114" lon="14.7018107"><ele>650.8</ele><time>2026-04-24T16:39:59.616Z</time></trkpt><trkpt lat="37.0334663" lon="14.7016964"><ele>648.1999999999999</ele><time>2026-04-24T16:40:00.614Z</time></trkpt><trkpt lat="37.0334237" lon="14.7016052"><ele>645.5999999999999</ele><time>2026-04-24T16:40:01.615Z</time></trkpt><trkpt lat="37.0333821" lon="14.701532"><ele>643.0</ele><time>2026-04-24T16:40:02.614Z</time></trkpt><trkpt lat="37.0333741" lon="14.701666"><ele>643.0</ele><time>2026-04-24T16:40:07.616Z</time></trkpt><trkpt lat="37.0334" lon="14.7017522"><ele>643.0</ele><time>2026-04-24T16:40:08.615Z</time></trkpt><trkpt lat="37.0334075" lon="14.701846"><ele>643.0</ele><time>2026-04-24T16:40:09.617Z</time></trkpt><trkpt lat="37.0334144" lon="14.7019563"><ele>643.0</ele><time>2026-04-24T16:40:10.614Z</time></trkpt><trkpt lat="37.0334275" lon="14.7020782"><ele>643.0</ele><time>2026-04-24T16:40:11.616Z</time></trkpt><trkpt lat="37.0334564" lon="14.7021976"><ele>643.0</ele><time>2026-04-24T16:40:12.615Z</time></trkpt><trkpt lat="37.0335067" lon="14.7023194"><ele>645.5999999999999</ele><time>2026-04-24T16:40:13.615Z</time></trkpt><trkpt lat="37.033555" lon="14.7024486"><ele>648.1999999999999</ele><time>2026-04-24T16:40:14.615Z</time></trkpt><trkpt lat="37.0335917" lon="14.7025554"><ele>650.8</ele><time>2026-04-24T16:40:15.615Z</time></trkpt><trkpt lat="37.0336102" lon="14.7026634"><ele>653.4</ele><time>2026-04-24T16:40:16.615Z</time></trkpt><trkpt lat="37.0336217" lon="14.7027644"><ele>656.0</ele><time>2026-04-24T16:40:17.616Z</time></trkpt><trkpt lat="37.0336288" lon="14.7028723"><ele>659.0</ele><time>2026-04-24T16:40:18.615Z</time></trkpt><trkpt lat="37.0336082" lon="14.7030073"><ele>659.0</ele><time>2026-04-24T16:40:19.614Z</time></trkpt><trkpt lat="37.0335908" lon="14.7031138"><ele>659.0</ele><time>2026-04-24T16:40:20.614Z</time></trkpt><trkpt lat="37.0335617" lon="14.7031993"><ele>659.0</ele><time>2026-04-24T16:40:21.615Z</time></trkpt><trkpt lat="37.033527" lon="14.7032754"><ele>659.0</ele><time>2026-04-24T16:40:22.615Z</time></trkpt><trkpt lat="37.0334549" lon="14.7033291"><ele>659.0</ele><time>2026-04-24T16:40:24.615Z</time></trkpt></trkseg></trk></gpx>